[[{"header":{"parameterUnit":"m.s-1","parameterCategory":1,"la1":30.6,"la2":29.2853,"lo1":-89.7004,"lo2":-87.6739,"dy":0.0162,"dx":0.0183,"nx":112,"ny":82,"refTime":"2026-04-23T00:00:00:Z","depth":0,"parameterNumber":2,"parameterNumberName":"U-component_of_WINDS"},"data":[0.0,0.0,0.0,0.0,0.0,0.0,0.0,0.0,0.0,0.0,0.0,0.0,0.0,0.0,0.0,0.0,0.0,0.0,0.0,0.0,0.0,0.0,0.0,0.0,0.0,0.0,0.0,0.0,0.0,0.0,0.0,0.0,0.0,0.0,0.0,0.0,0.0,0.0,0.0,0.0,0.0,0.0,0.0,0.0,0.0,0.0,0.0,0.0,0.0,0.0,0.0,0.0,0.0,0.0,0.0,0.0,0.0,0.0,0.0,0.0,0.0,0.0,0.0,0.0,0.0,0.0,0.0,0.0,0.0,0.0,0.0,0.0,0.0,0.0,0.0,0.0,0.0,0.0,0.0,0.0,0.0,0.0,0.0,0.0,0.0,0.0,0.0,0.0,0.0,0.0,0.0,-0.4826,-0.513,-0.5325,-0.5372,-0.5286,-0.5153,-0.4979,0.0,0.0,0.0,0.0,0.0,0.0,0.0,0.0,0.0,0.0,0.0,0.0,0.0,0.0,0.0,0.0,0.0,0.0,0.0,0.0,0.0,0.0,0.0,0.0,0.0,0.0,0.0,0.0,0.0,0.0,0.0,0.0,0.0,0.0,0.0,0.0,0.0,0.0,0.0,0.0,0.0,0.0,0.0,0.0,0.0,0.0,0.0,0.0,0.0,0.0,0.0,0.0,0.0,0.0,0.0,0.0,0.0,0.0,0.0,0.0,0.0,0.0,0.0,0.0,0.0,0.0,0.0,0.0,0.0,0.0,0.0,0.0,0.0,0.0,0.0,0.0,0.0,0.0,0.0,0.0,0.0,0.0,0.0,0.0,0.0,0.0,0.0,0.0,0.0,0.0,0.0,0.0,0.0,0.0,0.0,0.0,0.0,0.0,0.0,0.0,0.0,0.0,0.0,0.0,-0.4582,-0.5157,-0.5273,-0.5419,-0.5702,-0.55,-0.5358,-0.5327,0.0,0.0,0.0,0.0,0.0,0.0,0.0,0.0,0.0,0.0,0.0,0.0,0.0,0.0,0.0,0.0,0.0,0.0,0.0,0.0,0.0,0.0,0.0,0.0,0.0,0.0,0.0,0.0,0.0,0.0,0.0,0.0,0.0,0.0,0.0,0.0,0.0,0.0,0.0,0.0,0.0,0.0,0.0,0.0,0.0,0.0,0.0,0.0,0.0,0.0,0.0,0.0,0.0,0.0,0.0,0.0,0.0,0.0,0.0,0.0,0.0,0.0,0.0,0.0,0.0,0.0,0.0,0.0,0.0,0.0,0.0,0.0,0.0,0.0,0.0,0.0,0.0,0.0,0.0,0.0,0.0,0.0,0.0,0.0,0.0,0.0,0.0,0.0,0.0,0.0,0.0,0.0,0.0,0.0,0.0,0.0,0.0,0.0,0.0,0.0,0.0,0.0,0.0,-0.4474,-0.4789,-0.5246,-0.5293,-0.5388,-0.5617,-0.5522,-0.5374,-0.5192,-0.4447,0.0,0.0,0.0,0.0,0.0,0.0,0.0,0.0,0.0,0.0,0.0,0.0,0.0,0.0,0.0,0.0,0.0,0.0,0.0,0.0,0.0,0.0,0.0,0.0,0.0,0.0,0.0,0.0,0.0,0.0,0.0,0.0,0.0,0.0,0.0,0.0,0.0,0.0,0.0,0.0,0.0,0.0,0.0,0.0,0.0,0.0,0.0,0.0,0.0,0.0,0.0,0.0,0.0,0.0,0.0,0.0,0.0,0.0,0.0,0.0,0.0,0.0,0.0,0.0,0.0,0.0,0.0,0.0,0.0,0.0,0.0,0.0,0.0,0.0,0.0,0.0,0.0,0.0,0.0,0.0,0.0,0.0,0.0,0.0,0.0,0.0,0.0,0.0,0.0,0.0,0.0,0.0,0.0,0.0,0.0,0.0,0.0,0.0,0.0,0.0,0.0,0.0,-0.4958,-0.5159,-0.5501,-0.5467,-0.5514,-0.5734,-0.571,-0.5545,-0.5214,-0.4617,0.0,0.0,0.0,0.0,0.0,0.0,0.0,0.0,0.0,0.0,0.0,0.0,0.0,0.0,0.0,0.0,0.0,0.0,0.0,0.0,0.0,0.0,0.0,0.0,0.0,0.0,0.0,0.0,0.0,0.0,0.0,0.0,0.0,0.0,0.0,0.0,0.0,0.0,0.0,0.0,0.0,0.0,0.0,0.0,0.0,0.0,0.0,0.0,0.0,0.0,0.0,0.0,0.0,0.0,0.0,0.0,0.0,0.0,0.0,0.0,0.0,0.0,0.0,0.0,0.0,0.0,0.0,0.0,0.0,0.0,0.0,0.0,0.0,0.0,0.0,0.0,0.0,0.0,0.0,0.0,0.0,0.0,0.0,0.0,0.0,0.0,0.0,0.0,0.0,0.0,0.0,0.0,0.0,0.0,0.0,0.0,0.0,0.0,0.0,0.0,0.0,0.0,-0.5392,-0.5859,-0.6183,-0.5951,-0.5975,-0.6474,-0.6345,-0.6091,-0.5764,-0.4942,0.0,0.0,0.0,0.0,0.0,0.0,0.0,0.0,0.0,0.0,0.0,0.0,0.0,0.0,0.0,0.0,0.0,0.0,0.0,0.0,0.0,0.0,0.0,0.0,0.0,0.0,0.0,0.0,0.0,0.0,0.0,0.0,0.0,0.0,0.0,0.0,0.0,0.0,0.0,0.0,0.0,0.0,0.0,0.0,0.0,0.0,0.0,0.0,0.0,0.0,0.0,0.0,0.0,0.0,0.0,0.0,0.0,0.0,0.0,0.0,0.0,0.0,0.0,0.0,0.0,0.0,0.0,0.0,0.0,0.0,0.0,0.0,0.0,0.0,0.0,0.0,0.0,0.0,0.0,0.0,0.0,0.0,0.0,0.0,0.0,0.0,0.0,0.0,0.0,0.0,0.0,0.0,0.0,0.0,0.0,0.0,0.0,0.0,0.0,0.0,0.0,0.0,-0.5527,-0.5934,0.0,-0.6191,-0.6214,-0.6459,-0.6406,-0.6145,-0.5655,0.0,0.0,0.0,0.0,0.0,0.0,0.0,0.0,0.0,0.0,0.0,0.0,0.0,0.0,0.0,0.0,0.0,0.0,0.0,0.0,0.0,0.0,0.0,0.0,0.0,0.0,0.0,0.0,0.0,0.0,0.0,0.0,0.0,0.0,0.0,0.0,0.0,0.0,0.0,0.0,0.0,0.0,0.0,0.0,0.0,0.0,0.0,0.0,0.0,0.0,0.0,0.0,0.0,0.0,0.0,0.0,0.0,0.0,0.0,0.0,0.0,0.0,0.0,0.0,0.0,0.0,0.0,0.0,0.0,0.0,0.0,0.0,0.0,0.0,0.0,0.0,0.0,0.0,0.0,0.0,0.0,0.0,0.0,0.0,0.0,0.0,0.0,0.0,0.0,0.0,0.0,0.0,0.0,0.0,0.0,0.0,0.0,0.0,0.0,0.0,0.0,0.0,-0.5296,-0.5796,-0.624,0.0,-0.6521,-0.6433,-0.6407,-0.6369,-0.606,-0.5421,0.0,0.0,0.0,0.0,0.0,0.0,0.0,0.0,0.0,0.0,0.0,0.0,0.0,0.0,0.0,0.0,0.0,0.0,0.0,0.0,0.0,0.0,0.0,0.0,0.0,0.0,0.0,0.0,0.0,0.0,0.0,0.0,0.0,0.0,0.0,0.0,0.0,0.0,0.0,0.0,0.0,0.0,0.0,0.0,0.0,0.0,0.0,0.0,0.0,0.0,0.0,0.0,0.0,0.0,0.0,0.0,0.0,0.0,0.0,0.0,0.0,0.0,0.0,0.0,0.0,0.0,0.0,0.0,0.0,0.0,0.0,0.0,0.0,0.0,0.0,0.0,0.0,0.0,0.0,0.0,0.0,0.0,0.0,0.0,0.0,0.0,0.0,0.0,0.0,0.0,0.0,0.0,0.0,0.0,0.0,0.0,0.0,0.0,0.0,0.0,0.0,0.0,-0.5419,-0.6211,-0.6904,-0.7157,-0.6948,-0.6696,-0.6419,-0.6273,-0.5887,0.0,0.0,0.0,0.0,0.0,0.0,0.0,0.0,0.0,0.0,0.0,0.0,0.0,0.0,0.0,0.0,0.0,0.0,0.0,0.0,0.0,0.0,0.0,0.0,0.0,0.0,0.0,0.0,0.0,0.0,0.0,0.0,0.0,0.0,0.0,0.0,0.0,0.0,0.0,0.0,0.0,0.0,0.0,0.0,0.0,0.0,0.0,0.0,0.0,0.0,0.0,0.0,0.0,0.0,0.0,0.0,0.0,0.0,0.0,0.0,0.0,0.0,0.0,0.0,0.0,0.0,0.0,0.0,0.0,0.0,0.0,0.0,0.0,0.0,0.0,0.0,0.0,0.0,0.0,0.0,0.0,0.0,0.0,0.0,0.0,0.0,0.0,0.0,0.0,0.0,0.0,0.0,0.0,0.0,0.0,0.0,0.0,0.0,0.0,0.0,0.0,0.0,0.0,-0.5268,-0.5835,-0.6381,-0.6734,-0.6715,-0.66,-0.6415,-0.6273,-0.5887,-0.5148,0.0,0.0,0.0,0.0,0.0,0.0,0.0,0.0,0.0,0.0,0.0,0.0,0.0,0.0,0.0,0.0,0.0,0.0,0.0,0.0,0.0,0.0,0.0,0.0,0.0,0.0,0.0,0.0,0.0,0.0,0.0,0.0,0.0,0.0,0.0,0.0,0.0,0.0,0.0,0.0,0.0,0.0,0.0,0.0,0.0,0.0,0.0,0.0,0.0,0.0,0.0,0.0,0.0,0.0,0.0,0.0,0.0,0.0,0.0,0.0,0.0,0.0,0.0,0.0,0.0,0.0,0.0,0.0,0.0,0.0,0.0,0.0,0.0,0.0,0.0,0.0,0.0,0.0,0.0,0.0,0.0,0.0,0.0,0.0,0.0,0.0,0.0,0.0,0.0,0.0,0.0,0.0,0.0,0.0,0.0,0.0,0.0,0.0,0.0,0.0,0.0,0.0,-0.5163,-0.5782,-0.6333,-0.657,-0.6598,-0.6493,-0.6216,-0.5935,-0.5482,-0.4822,0.0,0.0,0.0,0.0,0.0,0.0,0.0,0.0,0.0,0.0,0.0,0.0,0.0,0.0,0.0,0.0,0.0,0.0,0.0,0.0,0.0,0.0,0.0,0.0,0.0,0.0,0.0,0.0,0.0,0.0,0.0,0.0,0.0,0.0,0.0,0.0,0.0,0.0,0.0,0.0,0.0,0.0,0.0,0.0,0.0,0.0,0.0,0.0,0.0,0.0,0.0,0.0,0.0,0.0,0.0,0.0,0.0,0.0,0.0,0.0,0.0,0.0,0.0,0.0,0.0,0.0,0.0,0.0,0.0,0.0,0.0,0.0,0.0,0.0,0.0,0.0,0.0,0.0,0.0,0.0,0.0,0.0,0.0,0.0,0.0,0.0,0.0,0.0,0.0,0.0,0.0,0.0,0.0,0.0,0.0,0.0,0.0,0.0,0.0,0.0,0.0,0.0,-0.5062,-0.589,-0.6488,-0.6488,-0.6516,-0.6353,-0.5882,-0.538,-0.4871,-0.433,0.0,0.0,0.0,0.0,0.0,0.0,0.0,0.0,0.0,0.0,0.0,0.0,0.0,0.0,0.0,0.0,0.0,0.0,0.0,0.0,0.0,0.0,0.0,0.0,0.0,0.0,0.0,0.0,0.0,0.0,0.0,0.0,0.0,0.0,0.0,0.0,0.0,0.0,0.0,0.0,0.0,0.0,0.0,0.0,0.0,0.0,0.0,0.0,0.0,0.0,0.0,0.0,0.0,0.0,0.0,0.0,0.0,0.0,0.0,0.0,-0.4714,0.0,0.0,0.0,0.0,0.0,0.0,0.0,0.0,0.0,0.0,0.0,0.0,0.0,0.0,0.0,0.0,0.0,0.0,0.0,0.0,0.0,0.0,0.0,0.0,0.0,0.0,0.0,0.0,0.0,0.0,0.0,0.0,0.0,0.0,0.0,0.0,0.0,0.0,0.0,0.0,0.0,-0.4656,-0.5229,-0.5653,-0.5653,-0.5942,-0.5932,-0.5476,-0.518,-0.481,-0.433,-0.4321,0.0,0.0,0.0,0.0,0.0,0.0,0.0,0.0,0.0,0.0,0.0,0.0,0.0,0.0,0.0,0.0,0.0,0.0,0.0,0.0,0.0,0.0,0.0,0.0,0.0,0.0,0.0,0.0,0.0,0.0,0.0,0.0,0.0,0.0,0.0,0.0,0.0,0.0,0.0,0.0,0.0,0.0,0.0,0.0,0.0,0.0,0.0,0.0,0.0,0.0,0.0,0.0,0.0,0.0,0.0,0.0,0.0,0.0,0.0,0.0,-0.5381,0.0,0.0,0.0,0.0,0.0,0.0,0.0,0.0,0.0,0.0,0.0,0.0,0.0,0.0,0.0,0.0,0.0,0.0,0.0,0.0,0.0,0.0,0.0,0.0,0.0,0.0,0.0,0.0,0.0,0.0,0.0,0.0,0.0,0.0,0.0,0.0,0.0,0.0,0.0,0.0,-0.5058,-0.5269,-0.543,-0.5528,-0.5644,-0.5632,-0.5411,-0.5092,-0.4783,-0.4511,-0.4563,0.0,0.0,0.0,0.0,0.0,0.0,0.0,0.0,0.0,0.0,0.0,0.0,0.0,0.0,0.0,0.0,0.0,0.0,0.0,0.0,0.0,0.0,0.0,0.0,0.0,0.0,0.0,0.0,0.0,0.0,0.0,0.0,0.0,0.0,0.0,0.0,0.0,0.0,0.0,0.0,0.0,0.0,0.0,0.0,0.0,0.0,0.0,0.0,0.0,0.0,0.0,0.0,0.0,-0.6755,-0.6813,-0.7236,-0.6453,-0.6565,-0.7363,-0.7138,-0.7015,-0.6913,-0.6245,0.0,0.0,0.0,0.0,0.0,0.0,0.0,0.0,0.0,0.0,0.0,0.0,0.0,0.0,0.0,0.0,0.0,0.0,0.0,0.0,0.0,0.0,0.0,0.0,-0.7259,-0.7394,0.0,0.0,0.0,0.0,0.0,0.0,0.0,0.0,0.0,0.0,0.0,0.0,-0.5711,-0.5617,-0.5513,-0.5587,-0.5491,-0.5401,-0.5368,-0.4973,-0.4703,-0.4652,-0.4732,-0.4561,0.0,0.0,0.0,0.0,0.0,0.0,0.0,0.0,0.0,0.0,0.0,0.0,0.0,0.0,0.0,0.0,0.0,0.0,0.0,0.0,0.0,0.0,0.0,0.0,0.0,0.0,0.0,0.0,0.0,0.0,0.0,0.0,-0.9466,-1.0813,0.0,0.0,0.0,0.0,0.0,0.0,0.0,0.0,0.0,0.0,0.0,0.0,0.0,-0.7559,-0.7269,-0.8099,-0.8415,-0.8209,-0.8361,-0.8694,-0.9133,-0.8659,-0.8898,-0.9654,-0.9322,0.0,-0.6762,-0.5856,0.0,0.0,0.0,0.0,0.0,0.0,0.0,0.0,0.0,0.0,0.0,0.0,0.0,0.0,0.0,0.0,0.0,0.0,0.0,0.0,0.0,0.0,-0.7895,-0.8299,-0.8466,-0.837,0.0,-0.7326,-0.6935,-0.6371,-0.6253,0.0,0.0,0.0,0.0,0.0,0.0,0.0,-0.6034,-0.5957,-0.5667,-0.5224,-0.5356,-0.53,-0.4848,-0.4587,-0.4451,-0.4441,-0.4611,-0.4574,-0.4272,-0.4367,0.0,0.0,0.0,0.0,0.0,0.0,0.0,0.0,0.0,0.0,0.0,0.0,0.0,0.0,0.0,0.0,0.0,0.0,0.0,0.0,0.0,0.0,0.0,0.0,0.0,0.0,0.0,0.0,0.0,-0.9118,-0.9812,-1.1081,-0.977,-0.8911,0.0,0.0,0.0,0.0,0.0,0.0,0.0,0.0,0.0,-0.7645,-0.8532,-0.9037,-0.9078,-0.975,-1.0039,-0.9926,-0.9729,-0.9737,-0.9879,-0.9432,-0.9416,-0.9704,-0.9555,-0.9023,-0.8217,-0.7656,-0.7239,-0.6926,0.0,0.0,0.0,0.0,-0.7153,-0.757,-0.7491,-0.7413,0.0,-0.7243,0.0,0.0,0.0,0.0,0.0,0.0,0.0,0.0,0.0,0.0,-0.8216,-0.861,-0.8694,-0.8634,-0.8405,-0.8417,-0.8118,0.0,-0.6621,-0.6441,-0.5826,0.0,0.0,0.0,0.0,-0.5723,-0.6054,-0.5609,-0.5291,-0.5321,-0.5262,-0.5188,-0.5097,-0.4911,-0.4813,-0.4852,-0.494,-0.4931,-0.4812,-0.4714,-0.4507,0.0,0.0,0.0,0.0,0.0,0.0,0.0,0.0,0.0,0.0,0.0,0.0,0.0,0.0,0.0,0.0,0.0,0.0,0.0,0.0,0.0,0.0,0.0,0.0,0.0,0.0,0.0,0.0,-0.9754,-0.9982,-1.1253,-1.0186,-0.9419,0.0,0.0,0.0,0.0,0.0,0.0,-0.841,-0.8548,-0.8707,-0.8939,-0.9711,-1.0205,-1.038,-1.0887,-1.1117,-1.1025,-1.0686,-1.0526,-1.052,-1.0029,-0.985,-0.9943,-0.9846,-0.9864,-0.9891,-0.9219,-0.8772,-0.8473,-0.8123,-0.7939,-0.793,-0.8142,-0.8442,-0.8759,-0.8753,-0.8621,-0.844,-0.8351,-0.8031,-0.7704,-0.7749,0.0,0.0,0.0,0.0,-0.9248,-0.8822,-0.8867,-0.9036,-0.9088,-0.9115,-0.9079,-0.8935,-0.9223,-0.9051,0.0,-0.7282,-0.7061,-0.6336,0.0,0.0,0.0,0.0,-0.6367,-0.6515,-0.5873,-0.5481,-0.566,-0.5442,-0.5293,-0.5321,-0.5166,-0.5098,-0.5146,-0.5156,-0.5156,-0.5156,-0.4941,-0.4793,-0.4725,0.0,0.0,0.0,0.0,0.0,0.0,0.0,0.0,0.0,0.0,0.0,0.0,0.0,0.0,0.0,0.0,0.0,0.0,0.0,0.0,0.0,0.0,0.0,0.0,0.0,0.0,0.0,0.0,0.0,-1.2067,-1.0946,0.0,0.0,0.0,0.0,-0.9642,-0.8852,-0.8799,-0.9843,-0.9597,-0.9731,-1.0369,-1.0807,-1.0884,-1.0579,-1.1037,-1.1121,-1.0818,-1.1057,-1.1254,-1.1421,-1.0881,-1.091,-1.1372,-1.1049,-1.1097,-1.1263,-0.9512,-0.8803,-0.8746,-0.8348,-0.8416,-0.8772,-0.8972,-0.9568,-1.0266,-1.0064,-0.9999,-0.9993,-0.9977,-0.9664,-0.938,-0.9957,-0.9805,0.0,0.0,-1.049,-1.058,-1.0866,-1.0954,-1.0831,-1.0339,-1.0221,-1.0075,-0.957,-0.9486,-0.9318,0.0,-0.8598,-0.8513,-0.821,0.0,-0.7565,-0.7928,-0.7499,-0.7343,-0.7926,-0.7463,-0.6845,-0.6234,-0.6086,-0.5796,-0.5166,-0.5039,-0.501,-0.501,-0.501,-0.501,-0.501,-0.4941,-0.4863,-0.4802,-0.456,0.0,0.0,0.0,0.0,0.0,0.0,0.0,0.0,0.0,0.0,0.0,0.0,0.0,0.0,0.0,0.0,0.0,0.0,0.0,0.0,0.0,0.0,0.0,0.0,0.0,0.0,0.0,0.0,-1.2798,-1.1785,0.0,-1.0991,-1.0417,-1.0313,-1.0944,-1.03,-1.0329,-1.1358,-1.1143,-1.1192,-1.1638,-1.1639,-1.1711,-1.1961,-1.2467,-1.2655,-1.2534,-1.2773,-1.2876,-1.2845,-1.2438,-1.2297,-1.2389,-1.2277,-1.2297,-1.2356,-1.1688,-1.0909,-1.0051,-0.96,-0.9498,-0.9649,-0.9712,-0.9934,-1.0188,-1.0124,-1.0102,-1.0119,-1.0146,-1.0169,-1.0271,-1.089,-1.1072,-1.1112,-1.1354,-1.1446,-1.1379,-1.1167,-1.1099,-1.1051,-1.0858,-1.081,-1.0666,-1.0123,-1.0015,-0.9858,-0.9319,-0.8935,-0.855,-0.8063,-0.8134,-0.8145,-0.7771,-0.7789,-0.7774,-0.7603,-0.7201,-0.6912,-0.6856,-0.671,-0.641,-0.592,-0.5734,-0.5552,-0.5341,-0.5195,-0.5185,-0.532,-0.4882,-0.4752,-0.4991,-0.4327,-0.4086,0.0,0.0,0.0,0.0,0.0,0.0,0.0,0.0,0.0,0.0,0.0,0.0,0.0,0.0,0.0,0.0,0.0,0.0,0.0,0.0,0.0,0.0,0.0,0.0,0.0,0.0,-1.2287,-1.2953,-1.2508,-1.2089,-1.1856,-1.1663,-1.1698,-1.2082,-1.1649,-1.1643,-1.2244,-1.2083,-1.2194,-1.2699,-1.253,-1.2709,-1.324,-1.359,-1.377,-1.377,-1.3804,-1.3747,-1.3593,-1.3296,-1.3079,-1.2889,-1.2889,-1.2889,-1.2889,-1.2889,-1.2354,-1.149,-1.118,-1.1031,-1.1027,-1.102,-1.1016,-1.1011,-1.0951,-1.0878,-1.0811,-1.0833,-1.0968,-1.1175,-1.1578,-1.1889,-1.2111,-1.2162,-1.2174,-1.209,-1.174,-1.1644,-1.158,-1.1399,-1.1363,-1.1219,-1.069,-1.057,-1.0459,-1.0111,-0.9463,-0.8838,-0.8442,-0.8705,-0.8811,-0.8373,-0.8462,-0.8456,-0.8119,-0.7715,-0.7466,-0.747,-0.7306,-0.6966,-0.6351,-0.6305,-0.6075,-0.5534,-0.5654,-0.5735,-0.5702,-0.5269,-0.5163,-0.5432,-0.4649,-0.4534,-0.5128,0.0,0.0,0.0,0.0,0.0,0.0,0.0,0.0,0.0,0.0,0.0,0.0,0.0,0.0,0.0,0.0,0.0,0.0,0.0,0.0,0.0,0.0,0.0,-1.2216,-1.2418,-1.2557,-1.2561,-1.3125,-1.3167,-1.2262,-1.3155,-1.3561,-1.2981,-1.2816,-1.2652,-1.2466,-1.2416,-1.2745,-1.3525,-1.3536,-1.379,-1.4309,-1.4333,-1.4313,-1.4313,-1.4065,-1.3842,-1.3638,-1.3435,-1.3185,-1.2944,-1.2944,-1.2965,-1.2975,-1.2975,-1.2975,-1.2975,-1.2921,-1.2889,-1.2898,-1.2825,-1.2831,-1.2808,-1.2686,-1.2461,-1.2233,-1.2161,-1.2143,-1.2131,-1.2131,-1.2312,-1.2544,-1.2662,-1.2709,-1.2709,-1.2709,-1.2709,-1.2559,-1.2053,-1.1921,-1.1789,-1.1231,-1.1123,-1.1123,-1.1099,-1.0255,-0.9545,-0.9534,-0.951,-0.9585,-0.9846,-0.9564,0.0,-0.957,-0.913,-0.8619,-0.8094,-0.7923,-0.7446,-0.6457,-0.6709,-0.6527,-0.5596,-0.6324,-0.6571,-0.6116,-0.6096,-0.6075,-0.6065,-0.5583,-0.5482,-0.5783,0.0,0.0,0.0,0.0,0.0,0.0,0.0,0.0,0.0,0.0,0.0,0.0,0.0,0.0,0.0,0.0,0.0,0.0,0.0,0.0,0.0,0.0,-1.2861,-1.2721,-1.327,-1.3695,-1.3794,-1.3878,-1.3875,-1.3712,-1.3712,-1.3738,-1.377,-1.347,-1.345,-1.3827,-1.4019,-1.4211,-1.4433,-1.4438,-1.4515,-1.4663,-1.4756,-1.4806,-1.4818,-1.4976,-1.4936,-1.4673,-1.4473,-1.4227,-1.398,-1.398,-1.4183,-1.4495,-1.4495,-1.4705,-1.4853,-1.3448,-1.2889,-1.292,-1.2995,-1.3225,-1.352,-1.3478,-1.3338,-1.3148,-1.3129,-1.2914,-1.2685,-1.2685,-1.2826,-1.2978,-1.289,-1.2855,-1.282,-1.2727,-1.2709,-1.2656,-1.2528,-1.2475,-1.233,-1.1801,-1.1692,-1.1572,-1.1186,-1.0858,-1.0546,-1.0147,-0.9762,-0.9531,-0.9595,-0.9476,0.0,-0.932,-0.9104,-0.8979,-0.9075,-0.8956,-0.8606,-0.7887,-0.7665,-0.7232,-0.648,-0.6355,-0.624,-0.6106,-0.5816,-0.5504,-0.5162,-0.5867,-0.5931,0.0,0.0,0.0,0.0,0.0,0.0,0.0,0.0,0.0,0.0,0.0,0.0,0.0,0.0,0.0,0.0,0.0,0.0,0.0,0.0,0.0,0.0,-1.2968,-1.3392,-1.3799,-1.4096,-1.4293,-1.4375,-1.4611,-1.4797,-1.4844,-1.4799,-1.4764,-1.4689,-1.4425,-1.4359,-1.4645,-1.4753,-1.4967,-1.5343,-1.5338,-1.5441,-1.5668,-1.577,-1.5708,-1.556,-1.5646,-1.5591,-1.539,-1.5187,-1.5051,-1.4994,-1.4994,-1.513,-1.539,-1.539,-1.5557,0.0,0.0,0.0,0.0,0.0,-1.4305,-1.4509,-1.4509,-1.4358,-1.4162,-1.4106,-1.389,-1.3619,-1.3354,-1.3382,-1.3438,-1.3179,-1.3104,-1.3087,-1.3047,-1.303,-1.303,-1.303,-1.303,-1.2943,-1.2638,-1.2576,-1.2477,-1.2167,-1.192,0.0,-1.1365,-1.0485,-0.9893,-1.0066,-0.9694,-0.9412,-0.9485,-0.9205,-0.9068,-0.9236,-0.9113,-0.8775,-0.8192,-0.8085,0.0,0.0,0.0,-0.6509,-0.6116,-0.5879,0.0,0.0,0.0,0.0,0.0,0.0,0.0,0.0,-0.4754,-0.4353,0.0,0.0,0.0,0.0,0.0,0.0,0.0,0.0,0.0,0.0,0.0,0.0,0.0,0.0,0.0,0.0,-1.355,-1.3926,-1.5107,-1.4977,-1.4746,-1.4728,-1.5327,-1.5754,-1.5725,-1.6053,-1.608,-1.5566,-1.5477,-1.534,-1.5118,0.0,0.0,0.0,0.0,-1.6478,-1.696,-1.6918,-1.6714,-1.6367,-1.6163,-1.5988,-1.5854,-1.5657,-1.5657,-1.581,-1.581,-1.5832,-1.5876,-1.5876,-1.5898,-1.5942,-1.5832,-1.581,-1.5806,-1.5682,-1.5635,-1.5645,-1.5645,0.0,0.0,-1.5114,-1.4941,-1.4693,-1.4144,-1.3982,-1.391,-1.3602,-1.3459,-1.3425,-1.3493,-1.348,-1.348,-1.3497,-1.3497,-1.3497,-1.3497,-1.3497,-1.3497,-1.3497,-1.3116,-1.2785,-1.2785,-1.1515,-1.058,-1.0873,-1.0144,-0.9662,-0.9885,-0.9429,-0.9076,-0.9081,0.0,0.0,-0.8104,-0.8331,-0.7929,-0.6562,-0.7131,-0.7131,-0.6292,-0.6261,-0.624,-0.6189,-0.6292,-0.6695,-0.7421,-0.7213,-0.7107,-0.7088,-0.5533,-0.4862,0.0,0.0,0.0,0.0,0.0,0.0,0.0,0.0,0.0,0.0,0.0,0.0,0.0,0.0,0.0,-1.4677,-1.4841,-1.5038,-1.568,-1.6115,-1.6292,-1.6137,-1.616,-1.6244,-1.6383,-1.6237,-1.6053,-1.5827,-1.6039,-1.6081,-1.5823,-1.6596,-1.7015,-1.6908,-1.7063,-1.7205,-1.7303,-1.7044,-1.6854,-1.6778,0.0,0.0,-1.6204,-1.601,-1.5879,-1.581,-1.581,-1.602,-1.6358,-1.6358,-1.6595,-1.6837,-1.6095,-1.5866,-1.5954,-1.5932,-1.6143,-1.6467,-1.6467,-1.6329,-1.614,-1.6127,-1.5763,-1.5323,-1.5207,-1.4831,0.0,-1.4259,-1.3864,-1.3476,-1.3425,-1.3425,-1.3425,-1.348,-1.3497,-1.3497,-1.3497,-1.3497,-1.3497,-1.3497,-1.342,-1.3343,-1.3343,-1.2375,-1.146,-1.1033,-1.0819,-1.0526,-1.0041,-0.9786,-0.9764,-1.0079,-0.9985,-0.9821,-0.9671,-0.9327,-0.8864,-0.8255,-0.7769,-0.7421,-0.7245,-0.7235,-0.7059,-0.6674,-0.7411,-0.7514,-0.6945,-0.704,-0.6937,-0.6637,-0.6292,-0.6037,0.0,0.0,0.0,0.0,0.0,0.0,0.0,0.0,0.0,0.0,0.0,-1.2753,-1.4275,0.0,-1.4919,-1.5896,-1.6059,-1.6194,-1.6633,-1.6963,-1.6986,-1.6545,-1.6629,-1.6678,-1.6617,-1.6382,-1.6151,-1.5928,-1.6172,-1.6438,-1.6642,-1.7291,-1.7795,-1.8092,-1.819,-1.8167,-1.7988,-1.7787,-1.7537,-1.7199,-1.6955,-1.6786,-1.6659,-1.6522,-1.6466,-1.6497,-1.6497,-1.6625,-1.6863,-1.6863,-1.6989,-1.7157,-1.6667,-1.6539,-1.6595,-1.6595,-1.6744,-1.6955,-1.6955,-1.6892,-1.6794,-1.6794,-1.6598,-1.6297,-1.6023,-1.5526,-1.499,-1.4693,-1.4167,-1.3695,-1.3698,-1.3749,-1.3812,-1.3845,-1.3878,-1.3911,-1.3911,-1.3911,-1.3911,-1.3911,-1.3911,-1.3911,-1.3911,-1.3422,-1.278,-1.1965,-1.1341,-1.0827,-1.0479,-1.0042,-0.9835,-1.0026,-0.9927,-0.9845,-0.9803,-0.9273,-0.8771,-0.8379,-0.7758,-0.7326,-0.7152,-0.7152,-0.7036,-0.6798,-0.7266,-0.739,-0.7152,-0.725,-0.7256,-0.715,-0.7087,-0.6706,0.0,0.0,0.0,0.0,0.0,0.0,0.0,0.0,-1.1876,-1.3742,-1.3853,-1.4111,-1.5709,-1.5999,-1.6245,-1.6966,-1.708,-1.722,-1.7648,-1.7684,-1.7456,-1.685,-1.706,-1.7089,-1.6738,-1.657,-1.639,-1.6209,-1.6487,-1.6937,-1.7552,-1.7916,-1.8403,-1.9091,-1.9101,-1.8969,-1.8707,-1.8649,-1.8305,-1.772,-1.7376,-1.7246,-1.7269,-1.704,-1.7136,-1.7475,-1.7455,-1.7455,-1.7455,-1.7455,-1.7455,-1.7455,-1.7455,-1.7455,-1.7434,-1.7261,-1.7199,-1.7199,-1.7199,-1.7199,-1.7199,-1.7199,-1.7199,-1.712,-1.6676,-1.6049,-1.5414,-1.5033,-1.4431,-1.3891,-1.3964,-1.4059,-1.4138,-1.417,-1.4206,-1.4238,-1.4238,-1.4254,-1.4284,-1.4284,-1.43,-1.43,-1.43,-1.4235,-1.3888,-1.2959,-1.1971,-1.1295,-1.1165,-1.0577,-1.0128,-1.0016,-0.9898,-0.977,-0.9646,-0.9078,-0.8614,-0.8336,-0.7789,-0.7374,-0.7155,-0.7104,-0.7079,-0.7079,-0.7079,-0.7255,-0.7628,-0.7588,-0.7636,-0.7792,-0.7603,-0.7097,-1.3888,-1.2728,-1.1877,-1.3267,-1.2498,-1.1953,0.0,0.0,-1.2904,-1.5175,-1.4977,-1.4863,-1.6487,-1.678,-1.6984,-1.7599,-1.7703,-1.7853,-1.8326,-1.8401,-1.8226,-1.7797,-1.7721,-1.7537,-1.7089,-1.6879,-1.6889,-1.7212,-1.77,-1.8185,-1.8618,-1.9158,-1.9401,-1.9188,-1.9124,-1.9082,-1.9045,-1.9045,-1.8841,-1.8461,-1.7743,-1.7713,-1.8311,-1.746,-1.7592,-1.8442,-1.8383,-1.8344,-1.8344,-1.8344,-1.8344,-1.8344,-1.8344,-1.8344,-1.8266,-1.7496,-1.7199,-1.7199,-1.7199,-1.7199,-1.7199,-1.7199,-1.7199,-1.7186,-1.7133,-1.6349,-1.5492,-1.544,-1.4629,-1.3838,-1.3891,-1.3924,-1.3957,-1.4013,-1.4032,-1.4032,-1.4032,-1.4127,-1.4219,-1.4219,-1.4268,-1.43,-1.43,-1.4235,-1.3985,-1.3331,-1.3012,-1.2673,-1.2128,-1.1923,-1.1644,-1.1175,-1.1056,-1.0768,-1.0174,-0.9571,-0.9271,-0.9415,-0.8593,-0.8185,-0.8396,-0.8171,-0.8046,-0.8046,-0.8046,-0.8077,-0.8129,-0.7891,-0.7772,-0.7792,-0.7417,-0.7248,-1.4147,-1.3847,-1.3582,0.0,-1.2993,-1.3114,-1.4125,-1.4081,-1.4237,-1.5753,-1.5676,-1.5811,-1.7416,-1.7329,-1.7387,0.0,-1.8669,-1.8691,-1.878,-1.8716,-1.8565,-1.8277,-1.8123,-1.7749,-1.7052,-1.6773,-1.6813,-1.7264,-1.7716,-1.8291,-1.9058,-1.9509,-1.9767,-1.9854,-1.98,-1.9693,-1.9515,-1.9475,-1.9291,-1.8945,-1.8569,-1.8508,-1.8722,-1.829,-1.8241,-1.8553,-1.85,-1.85,-1.85,-1.85,-1.85,-1.85,-1.85,-1.85,-1.8461,-1.8088,-1.7948,-1.7948,-1.7948,-1.7948,-1.7948,-1.7948,-1.7948,-1.7948,-1.7948,-1.7101,-1.6145,-1.6145,-1.5298,-1.4349,-1.4187,-1.4154,-1.4154,-1.3977,-1.398,-1.4016,-1.4095,-1.4157,-1.4203,-1.4203,-1.4219,-1.4235,-1.4235,-1.4121,-1.3946,-1.3741,-1.3362,-1.301,-1.2756,-1.2351,-1.2003,-1.1738,-1.1397,-1.1082,-1.0808,-1.0185,-0.9788,-0.9723,-0.9137,-0.8739,-0.8659,-0.8361,-0.8201,-0.8201,-0.8201,-0.8201,-0.8201,-0.8087,-0.7947,-0.7792,-0.7749,-0.7817,-1.4554,-1.4638,0.0,-1.3581,-1.3602,-1.3944,-1.4156,-1.4521,-1.5089,-1.5987,-1.6025,-1.6329,-1.7733,-1.7516,-1.7522,-1.8812,-1.8989,-1.8979,-1.8995,-1.8887,-1.8742,-1.8524,-1.827,-1.7839,-1.7199,-1.6926,-1.7037,-1.7629,-1.79,-1.848,-1.9518,-1.9806,-2.0048,-2.0287,-2.0304,-2.0185,-1.9945,-1.9889,-1.9693,-1.9372,-1.9134,-1.9167,-1.9418,-1.9409,-1.9208,-1.8865,-1.8846,-1.8827,-1.8827,-1.8827,-1.8827,-1.8827,-1.8827,-1.8827,-1.8827,-1.8827,-1.8693,-1.85,-1.85,-1.85,-1.85,-1.85,-1.85,-1.85,-1.85,-1.7609,-1.6596,-1.6596,-1.5721,-1.4746,-1.4509,-1.4477,-1.4461,-1.4219,-1.4189,-1.4257,-1.4335,-1.4383,-1.4385,-1.4415,-1.4351,-1.4303,-1.4303,-1.4089,-1.3924,-1.3964,-1.3589,-1.3279,-1.3279,-1.2716,-1.2288,-1.2257,-1.1618,-1.1201,-1.1173,-1.0495,-0.9995,-0.9867,-0.9408,-0.9031,-0.8786,-0.8488,-0.8272,-0.8201,-0.8201,-0.8201,-0.8201,-0.8201,-0.8101,-0.7918,-0.8009,-0.8213,-1.5297,0.0,-1.4204,-1.4948,-1.4516,-1.4084,-1.4805,-1.4925,-1.513,-1.5946,-1.5986,-1.6175,-1.7068,-1.7162,-1.7368,-1.8195,-1.8222,-1.8349,-1.8922,-1.8887,-1.8742,-1.8524,-1.8142,-1.785,0.0,-1.7612,-1.7922,-1.8773,-1.8678,-1.9061,-2.0213,-2.0272,-2.0287,-2.0304,-2.0304,-2.0304,-2.0287,-2.0287,-2.01,-1.977,-1.9118,-1.9479,-2.0752,-2.0857,-2.0488,-1.9762,-1.969,-1.9657,-1.9657,-1.9657,-1.9657,-1.9657,-1.9657,-1.9657,-1.9657,-1.9657,-1.9165,-1.85,-1.85,-1.85,-1.85,-1.85,-1.85,-1.85,-1.85,-1.7609,-1.6596,-1.6596,-1.5721,-1.4808,-1.4793,-1.4793,-1.4793,-1.4777,-1.4763,-1.4777,-1.4777,-1.4827,-1.4905,-1.4953,-1.4705,-1.4517,-1.458,-1.4208,-1.3904,-1.3891,-1.3828,-1.3778,-1.3778,-1.3242,-1.2875,-1.2875,-1.1868,-1.1173,-1.1105,-1.0245,-0.9801,-0.9983,-0.9383,-0.9003,-0.899,-0.8728,-0.846,-0.8201,-0.8201,-0.8201,-0.8201,-0.8201,-0.8201,-0.8187,-0.7994,-0.8227,-1.4673,0.0,-1.4973,-1.5214,-1.5014,-1.4987,-1.5814,-1.5918,-1.593,-1.6225,-1.6653,-1.7202,-1.8032,-1.7672,-1.7639,-1.8898,-1.8545,-1.8368,-1.911,-1.904,-1.8904,-1.8834,-1.8518,0.0,0.0,0.0,0.0,-1.9014,-1.904,-1.9563,-2.0895,-2.0745,-2.0729,-2.0958,-2.0544,-2.0407,-2.0628,-2.0424,-2.0468,-2.0791,-2.0577,-2.0645,-2.0987,-2.054,-2.0131,-1.9797,-1.9962,-1.9925,-1.9744,-2.0222,-2.0135,-1.9711,-1.9945,-1.9907,-1.9708,-1.9708,-1.953,-1.931,-1.931,-1.931,-1.931,-1.931,-1.931,-1.931,-1.931,-1.8382,-1.7338,-1.7338,-1.6431,-1.5403,-1.5194,-1.5134,-1.5073,-1.4841,-1.4808,-1.481,-1.4858,-1.489,-1.4907,-1.4922,-1.483,-1.4768,-1.4799,-1.4639,-1.4429,-1.4203,-1.3957,-1.3804,-1.3804,-1.3621,-1.3503,-1.3503,-1.2761,-1.2262,-1.2281,-1.1268,-1.066,-1.0727,-0.9934,-0.9354,-0.9137,-0.8795,-0.8474,-0.8201,-0.8201,-0.8201,-0.8201,-0.8512,-0.8687,-0.8733,-0.9025,-0.9488,-1.5106,-1.5416,-1.5898,-1.613,-1.593,-1.5805,-1.6336,-1.6162,-1.5872,-1.5926,-1.6303,-1.6804,-1.7329,-1.6886,-1.6921,-1.8429,-1.8151,-1.8116,-1.9158,-1.9121,-1.9006,-1.9006,-1.9021,-1.8978,0.0,0.0,0.0,-1.9307,-1.9607,-2.0219,-2.1243,-2.1103,-2.1087,-2.1276,-2.0877,-2.0696,-2.0794,-2.0712,-2.1008,-2.17,-2.1933,-2.1882,-2.1545,-2.0988,-2.0576,-2.0277,-2.0396,-2.0344,-2.0154,-2.0613,-2.0512,-2.0118,-2.0326,-2.0275,-2.0083,-2.0083,-2.0083,-2.0048,-1.9782,-1.9708,-1.9708,-1.9708,-1.9708,-1.9708,-1.9708,-1.8927,-1.8012,-1.7773,-1.6952,-1.601,-1.5595,-1.5477,-1.5418,-1.5208,-1.5148,-1.5178,-1.5224,-1.521,-1.5225,-1.524,-1.5134,-1.5058,-1.5074,-1.492,-1.4699,-1.4349,-1.4121,-1.3941,-1.3821,-1.3804,-1.3804,-1.3804,-1.3217,-1.2849,-1.2855,-1.1963,-1.1389,-1.1348,-1.0765,-1.0218,-0.9755,-0.9312,-0.8865,-0.845,-0.8284,-0.8284,-0.845,-0.8771,-0.9046,-0.9261,-0.9669,-1.0175,-1.6465,-1.6686,-1.6866,-1.7677,-1.7178,-1.6502,-1.6474,-1.5753,-1.5101,-1.5092,-1.512,-1.5155,0.0,0.0,-1.5463,-1.7026,-1.7162,-1.762,-1.9092,-1.9138,-1.9041,0.0,0.0,0.0,0.0,0.0,0.0,-1.9783,0.0,-2.099,-2.1352,-2.1354,-2.1323,-2.1354,-2.1323,-2.115,-2.086,-2.1215,-2.1762,-2.2459,-2.3107,-2.3058,-2.2394,-2.2149,-2.1697,-2.1102,-2.0975,-2.0926,-2.0893,-2.086,-2.0844,-2.0811,-2.0827,-2.0811,-2.0794,-2.0794,-2.0794,-2.0712,-1.9995,-1.9729,-1.9744,-1.9744,-1.9711,-1.9708,-1.9708,-1.9226,-1.8568,-1.7938,-1.7264,-1.6607,-1.6009,-1.5858,-1.5844,-1.5814,-1.5799,-1.5799,-1.5799,-1.5799,-1.5813,-1.5885,-1.5595,-1.5359,-1.5404,-1.5102,-1.473,-1.4413,-1.4332,-1.4187,-1.3838,-1.3804,-1.3804,-1.3804,-1.3281,-1.291,-1.286,-1.2295,-1.1912,-1.1853,-1.1753,-1.1412,-1.0771,-1.0245,-0.966,-0.9004,-0.8536,-0.8521,-0.8958,-0.9041,-0.9303,-0.9751,-0.9982,-1.0307,-1.6576,-1.7083,-1.7771,-1.8625,-1.7694,-1.6713,-1.7247,-1.6192,-1.5104,-1.5105,-1.559,-1.601,0.0,0.0,0.0,-1.7918,-1.7565,0.0,-1.9092,-1.9259,0.0,-2.0042,0.0,-2.0436,-2.0956,-2.1552,0.0,0.0,-2.1361,-2.1566,-2.2289,-2.1928,-2.1797,-2.2034,-2.157,-2.1385,-2.154,-2.2411,-2.296,-2.3139,-2.3317,-2.3008,-2.2296,-2.165,-2.1247,-2.1118,-2.1276,-2.1197,-2.1007,-2.1447,-2.1323,-2.0893,-2.1103,-2.1023,-2.0794,-2.0794,-2.0794,-2.0778,-2.0579,-2.0309,-2.0085,-2.0085,-1.9892,-1.9708,-1.9708,-1.9226,-1.8672,-1.8493,-1.7968,-1.7294,-1.6637,-1.6458,-1.6368,-1.5904,-1.5799,-1.5799,-1.5799,-1.5799,-1.5813,-1.5813,-1.5741,-1.5668,-1.5712,-1.5418,-1.5149,-1.5058,-1.4608,-1.4187,-1.3838,-1.3804,-1.3804,-1.3804,-1.3565,-1.3457,-1.3536,-1.2948,-1.2564,-1.2554,-1.212,-1.1667,-1.1247,-1.1097,-1.0752,-1.0179,-0.9962,-0.9805,-0.9729,-0.9989,-1.0223,-1.0454,-1.0855,-1.1137,-1.754,-1.809,-1.8587,-1.9085,-1.8154,-1.7137,-1.7197,-1.6132,-1.5148,-1.514,-1.5497,0.0,-1.5375,0.0,0.0,0.0,0.0,0.0,-1.8621,-1.9077,-1.9601,0.0,-2.0774,0.0,-2.1931,-2.2563,-2.293,0.0,-2.2482,-2.2374,-2.2682,-2.2381,-2.2234,-2.2296,-2.1947,-2.1975,-2.2503,-2.2946,-2.3424,-2.3869,-2.3555,-2.3175,-2.2746,-2.199,-2.163,-2.1628,0.0,-2.1691,-2.1555,-2.1823,-2.1688,-2.1338,-2.1493,-2.1433,-2.1246,-2.1246,-2.1246,-2.1246,-2.1246,-2.0991,-2.0663,-2.0513,-2.0224,-1.9909,-1.9909,-1.9562,-1.9076,-1.8792,-1.8433,-1.7923,-1.695,-1.6696,-1.6547,-1.5934,-1.5799,-1.5799,-1.5799,-1.5799,-1.5813,-1.5827,-1.5827,-1.5827,-1.5827,-1.5653,-1.5418,-1.5118,-1.4763,-1.4349,-1.3871,-1.3804,-1.3804,-1.3804,-1.3741,-1.3725,-1.3788,-1.3467,-1.324,-1.3243,-1.2867,-1.25,-1.2166,-1.1787,-1.1352,-1.0867,-1.044,-1.025,-1.0313,-1.0497,-1.0734,-1.1003,-1.1321,-1.1459,-1.8757,-1.9198,-1.9193,-1.9191,-1.8411,-1.7457,-1.6755,-1.5874,-1.5204,-1.5201,0.0,-1.4963,-1.4203,-1.4638,-1.5053,-1.4898,0.0,-1.7298,-1.7996,-1.8702,-1.9473,-2.0401,-2.1272,-2.2017,-2.2603,-2.3383,-2.3827,-2.3774,-2.3547,-2.3218,-2.2784,-2.2725,-2.2579,-2.231,-2.2212,-2.2513,-2.3241,-2.3055,-2.3338,-2.4051,-2.3611,-2.3291,-2.3088,-2.2547,-2.2296,-2.2296,-2.2225,-2.2197,-2.2197,-2.2075,-2.2001,-2.1943,-2.1913,-2.1869,-2.1796,-2.1796,-2.1812,-2.1812,-2.1812,-2.1617,-2.1309,-2.0974,-2.0597,-2.0277,-2.0277,-2.0032,-1.9644,-1.9056,-1.8871,-1.8536,-1.7294,-1.689,-1.6682,-1.6069,-1.5858,-1.5799,-1.5799,-1.5799,-1.5827,-1.5899,-1.59,-1.593,-1.602,-1.5902,-1.5625,-1.5125,-1.4897,-1.4604,-1.4007,-1.3871,-1.3804,-1.3804,-1.3804,-1.3804,-1.3804,-1.3804,-1.3804,-1.3804,-1.3695,-1.3497,-1.3195,-1.2476,-1.1857,-1.1422,-1.0704,-1.0508,-1.0858,-1.0812,-1.101,-1.1402,-1.1477,-1.1504,-1.8928,-1.9193,-1.9211,-1.9197,-1.7987,-1.6769,-1.6551,-1.584,0.0,0.0,-1.5154,-1.5085,-1.4982,-1.5037,-1.5244,-1.57,0.0,0.0,0.0,0.0,-1.8841,0.0,0.0,0.0,0.0,0.0,0.0,0.0,0.0,-2.37,-2.3069,-2.281,-2.2577,-2.231,-2.1701,-2.1735,-2.2482,-2.3045,-2.2791,-2.1783,-2.2883,-2.2764,-2.1597,-2.2073,-2.2296,-2.2296,-2.2282,0.0,-2.2282,-2.2197,-2.2168,-2.214,-2.1974,-2.1882,-2.1884,-2.1811,-2.1812,-2.1812,-2.1812,-2.1751,-2.1663,-2.1324,-2.099,-2.0696,-2.0696,-2.0412,-2.0089,-1.9967,-1.9743,-1.9346,-1.8568,-1.7938,-1.7354,-1.6697,-1.6159,-1.5799,-1.5799,-1.5799,-1.5842,-1.5955,-1.5884,-1.6007,-1.6608,-1.6202,-1.5935,-1.6305,-1.5463,-1.4761,-1.4651,-1.4138,-1.3804,-1.3804,-1.3804,-1.3804,-1.3804,-1.3804,-1.3804,-1.3804,-1.3788,-1.3741,-1.3674,-1.352,-1.32,-1.261,-1.2305,-1.1966,-1.1604,-1.1439,-1.1409,-1.1485,-1.1485,-1.1504,-1.8969,-1.9193,-1.9083,-1.8641,-1.7551,-1.646,-1.5989,0.0,0.0,0.0,-1.5209,-1.5031,-1.4657,0.0,0.0,0.0,0.0,0.0,0.0,0.0,0.0,0.0,0.0,0.0,0.0,0.0,0.0,0.0,0.0,-2.3917,-2.3392,-2.3063,-2.2849,-2.2734,-2.2371,-2.2544,-2.3281,-2.326,-2.3083,-2.2773,-2.3101,-2.2872,-2.2211,-2.2561,-2.2721,-2.2721,-2.2721,0.0,-2.2721,-2.2681,-2.2624,-2.2537,-2.2337,-2.2212,-2.2082,-2.1928,-2.1825,-2.1812,-2.1812,-2.1812,-2.1766,-2.1617,-2.1324,-2.1055,-2.1055,-2.0811,-2.0462,-2.026,-2.007,-1.9758,-1.8918,-1.8446,-1.7968,-1.695,-1.6248,-1.5813,-1.5827,-1.5885,-1.5926,-1.6039,-1.6243,-1.6547,-1.6894,-1.6849,-1.6711,-1.648,-1.5792,-1.5128,-1.46,-1.4105,-1.3804,-1.3804,-1.3804,-1.3804,-1.3804,-1.3804,-1.3804,-1.3804,-1.3804,-1.3804,-1.3804,-1.3674,-1.3374,-1.2913,-1.2567,-1.2204,-1.18,-1.1597,-1.1504,-1.1504,-1.1504,-1.1504,-1.8739,-1.8785,-1.8477,-1.7799,-1.6979,-1.6143,-1.5463,-1.5306,0.0,0.0,-1.5263,-1.5023,-1.4386,0.0,-1.4872,0.0,-1.5136,0.0,0.0,0.0,0.0,0.0,0.0,0.0,0.0,0.0,0.0,0.0,0.0,0.0,-2.361,-2.3129,-2.294,-2.3091,-2.2933,-2.3114,-2.3691,-2.3465,-2.3395,-2.3475,-2.3395,-2.3191,-2.2845,-2.3021,-2.3091,-2.3091,-2.3091,0.0,-2.3091,-2.3091,-2.3037,-2.2928,-2.2747,-2.2537,-2.233,-2.2082,-2.1928,-2.1811,-2.1796,-2.1796,-2.1811,-2.1796,-2.1617,-2.1402,-2.1402,-2.1167,-2.0844,-2.053,-2.0379,-2.0135,-1.9256,-1.8912,-1.8442,-1.7041,-1.6248,-1.5827,-1.5913,-1.5955,-1.601,-1.6109,-1.6481,-1.6818,-1.6985,-1.7286,-1.7246,-1.6428,-1.6133,-1.5588,-1.4543,-1.4146,-1.3935,-1.3817,-1.3804,-1.3804,-1.3804,-1.3804,-1.3804,-1.3804,-1.3804,-1.3804,-1.3804,-1.3607,-1.3323,-1.3,-1.2549,-1.2186,-1.1881,-1.1653,-1.1533,-1.1504,-1.1504,-1.1504,-1.8013,-1.7437,-1.6823,-1.6744,-1.6066,-1.5396,-1.5326,0.0,0.0,-1.5306,-1.5301,-1.5245,-1.5115,-1.5146,-1.5092,0.0,0.0,-1.6404,0.0,0.0,0.0,0.0,0.0,0.0,0.0,0.0,0.0,0.0,0.0,0.0,-2.3628,-2.2654,-2.2406,-2.3074,-2.2388,-2.2037,-2.2107,-2.3503,-2.3151,-2.1145,-2.3203,-2.3415,-2.2048,-2.2757,-2.3091,-2.3091,-2.3091,0.0,0.0,-2.3091,-2.3091,-2.3067,-2.2928,-2.2755,-2.2541,-2.233,-2.211,-2.1884,-2.1811,-2.184,-2.1884,-2.1811,-2.1766,-2.1751,-2.1751,-2.1526,-2.1246,-2.1214,-2.099,-2.063,-2.0165,-1.9619,-1.874,-1.7088,-1.6293,-1.5913,-1.5983,-1.6011,-1.6039,-1.618,-1.6143,-1.6286,-1.6894,-1.6985,-1.6909,-1.6696,-1.6576,-1.6101,-1.4901,-1.4617,-1.4337,-1.3857,-1.3804,-1.3804,-1.3804,-1.3804,-1.3804,-1.3804,-1.3804,-1.3804,-1.3804,-1.3788,-1.3624,-1.3357,-1.296,-1.2544,-1.2156,-1.1844,-1.1626,-1.1504,-1.1504,-1.1504,-1.7174,-1.6928,-1.6659,-1.6611,-1.5933,-1.5305,-1.5306,0.0,-1.5305,-1.5306,-1.5303,-1.5289,-1.5209,-1.5207,-1.5173,-1.5097,-1.5293,-1.574,-1.6465,0.0,0.0,0.0,0.0,0.0,0.0,0.0,0.0,0.0,0.0,0.0,-2.3795,-2.3414,-2.3343,-2.3635,-2.3289,-2.3099,-2.3099,-2.4185,-2.4245,-2.3336,-2.4263,-2.4389,-2.3762,-2.3607,-2.3518,-2.3518,-2.3518,0.0,0.0,-2.3518,-2.3518,-2.3495,-2.3324,-2.3153,-2.2982,-2.2599,-2.2361,-2.2164,-2.1984,-2.194,-2.1955,-2.1926,-2.1882,-2.1855,-2.1796,-2.1708,-2.1556,-2.1356,-2.1198,-2.0958,-2.0362,-1.9546,-1.8664,-1.7709,-1.6985,-1.6426,-1.6131,-1.6067,-1.6095,-1.618,-1.646,-1.6891,-1.7547,-1.7941,-1.7934,-1.7225,-1.693,-1.6335,-1.5131,-1.449,-1.4154,-1.4275,-1.4001,-1.3804,-1.3804,-1.3804,-1.3804,-1.3804,-1.3804,-1.3804,-1.3804,-1.3804,-1.3674,-1.3408,-1.2995,-1.2597,-1.221,-1.1856,-1.1626,-1.1504,-1.1504,-1.1504,-1.6385,-1.6318,-1.6242,-1.5945,-1.5595,-1.5251,0.0,-1.5131,-1.5306,-1.5306,-1.5292,-1.5285,-1.5248,-1.5222,-1.5226,-1.5201,-1.5348,-1.5711,-1.6485,-1.7241,0.0,0.0,0.0,0.0,0.0,0.0,0.0,0.0,0.0,0.0,-2.4115,-2.4077,-2.4036,-2.3976,-2.3917,-2.3896,-2.3896,-2.4624,-2.4882,-2.4646,-2.5135,-2.5117,-2.4628,-2.4302,-2.4031,-2.3806,-2.3806,0.0,0.0,-2.3806,-2.3806,-2.3785,-2.3642,-2.3457,-2.32,-2.2837,-2.2537,-2.2306,-2.2068,-2.203,-2.2044,-2.2013,-2.1984,-2.1974,-2.1884,-2.1825,-2.1753,-2.151,-2.1387,-2.1182,-2.0564,-1.9682,-1.8774,-1.8121,-1.7439,-1.6803,-1.6206,-1.6095,-1.6137,-1.6194,-1.6535,-1.6981,-1.7425,-1.8035,-1.8104,-1.7126,-1.6943,-1.6465,-1.52,-1.451,-1.4183,-1.4354,-1.4027,-1.3804,-1.3804,-1.3804,-1.3804,-1.3804,-1.3804,-1.3804,-1.3804,-1.3804,-1.3721,-1.351,-1.3064,-1.2685,-1.2407,-1.1973,-1.169,-1.1586,-1.1578,-1.1541,-1.5644,-1.5409,-1.5205,-1.4336,-1.4778,-1.5161,-1.4316,-1.4724,-1.5306,-1.5306,-1.5306,-1.5297,-1.5304,-1.53,-1.5286,-1.5209,-1.5926,-1.6724,-1.7386,-1.8179,0.0,0.0,0.0,0.0,0.0,0.0,0.0,0.0,0.0,0.0,-2.4599,-2.4338,-2.4106,-2.3907,-2.3907,-2.3896,-2.3896,-2.4624,-2.4592,-2.3831,-2.5425,-2.5353,-2.3842,-2.4628,-2.4556,-2.3806,0.0,0.0,0.0,-2.3806,-2.3806,-2.3795,-2.3795,-2.3506,-2.3091,-2.2952,-2.2603,-2.2183,-2.2044,-2.2092,-2.2183,-2.2044,-2.2092,-2.2168,-2.2044,-2.1913,-2.1812,-2.1797,-2.1601,-2.1324,-2.0974,-2.0209,-1.9231,-1.8154,-1.7501,-1.6906,-1.6162,-1.6109,-1.6194,-1.6194,-1.621,-1.618,-1.6125,-1.6676,-1.6876,-1.6118,-1.658,-1.6489,-1.5077,-1.4889,-1.4623,-1.3887,-1.3804,-1.3804,-1.3804,-1.3804,-1.3804,-1.3804,-1.3804,-1.3804,-1.3804,-1.3804,-1.3804,-1.3804,-1.322,-1.2896,-1.2878,-1.2215,-1.187,-1.1804,-1.1727,-1.1626,-1.5468,-1.5391,-1.533,-1.5052,-1.52,-1.5327,-1.5041,-1.5189,-1.5374,-1.5376,-1.5331,-1.5299,-1.5306,-1.5299,-1.5284,-1.5269,-1.6,-1.6632,0.0,0.0,0.0,0.0,0.0,0.0,0.0,0.0,0.0,0.0,0.0,0.0,-2.452,-2.4452,-2.4302,-2.4115,-2.4008,-2.3976,-2.3976,-2.4696,-2.4936,-2.4682,-2.5157,-2.5117,-2.461,-2.4302,-2.4031,0.0,0.0,0.0,-2.3806,-2.3806,-2.3806,-2.3806,-2.3806,-2.371,-2.3569,-2.3388,-2.3212,-2.3035,-2.2624,-2.2511,-2.2497,-2.2276,-2.2194,-2.2183,-2.2137,-2.2046,-2.1926,-2.1926,-2.172,-2.1479,-2.1448,-2.0815,-2.003,-1.9358,-1.847,-1.7624,-1.6965,-1.6489,-1.6194,-1.6194,-1.6194,-1.6332,-1.6779,-1.7025,-1.6998,-1.6488,-1.6463,-1.6211,-1.534,-1.4757,-1.445,-1.4475,-1.4111,-1.3854,-1.3804,-1.3804,-1.3804,-1.3804,-1.3804,-1.3804,-1.3804,-1.3804,-1.3821,-1.3871,-1.351,-1.3224,-1.304,-1.2585,-1.2246,-1.2004,-1.1895,-1.1964,-1.5407,-1.541,-1.5312,-1.4999,-1.5153,-1.5304,-1.4985,-1.515,-1.5391,-1.5395,-1.538,-1.5324,-1.5303,-1.5295,-1.5301,-1.5301,-1.5767,-1.6309,0.0,0.0,0.0,0.0,0.0,0.0,0.0,0.0,0.0,0.0,0.0,0.0,-2.4738,-2.4642,-2.4518,-2.4381,-2.4229,-2.4143,-2.4143,-2.4579,-2.4807,-2.4829,-2.5069,-2.5027,-2.4686,-2.4473,-2.4166,0.0,0.0,-2.3806,0.0,-2.3806,-2.3806,-2.3806,-2.3806,-2.3753,-2.3657,-2.356,-2.3447,-2.3301,-2.296,-2.285,-2.2812,-2.2542,-2.2349,-2.2225,-2.2225,-2.2135,-2.2013,-2.2013,-2.1899,-2.1753,-2.1724,-2.1355,-2.0815,-2.0081,-1.9107,-1.8145,-1.7493,-1.674,-1.6194,-1.6194,-1.6194,-1.6332,-1.6747,-1.6824,-1.6737,-1.6487,-1.6278,-1.5958,-1.5437,-1.4796,-1.4468,-1.4563,-1.4203,-1.3927,-1.3878,-1.3858,-1.3841,-1.3861,-1.3858,-1.3841,-1.3861,-1.3841,-1.3858,-1.3927,-1.3581,-1.3331,-1.3207,-1.2743,-1.2389,-1.215,-1.2235,-1.2385,0.0,-1.5408,-1.5215,-1.4394,-1.4804,-1.5191,-1.437,-1.4811,0.0,-1.5393,-1.5393,-1.5394,-1.5386,-1.5347,-1.5326,-1.5386,-1.5442,0.0,0.0,0.0,0.0,0.0,0.0,0.0,0.0,0.0,0.0,0.0,0.0,0.0,-2.5101,-2.4858,-2.4738,-2.4719,-2.4547,-2.4438,-2.4412,-2.4348,-2.4338,-2.4417,-2.5088,-2.4995,-2.4229,-2.4922,-2.4728,0.0,0.0,-2.3827,-2.3816,-2.3816,-2.3816,-2.3806,-2.3806,-2.3696,-2.3508,-2.3508,-2.3371,-2.314,-2.3128,-2.3128,-2.3079,-2.2812,-2.2555,-2.2338,-2.2338,-2.2175,-2.2027,-2.2027,-2.212,-2.2125,-2.1814,-2.1768,-2.1525,-2.0432,-1.9456,-1.8565,-1.78,-1.6915,-1.6256,-1.621,-1.6194,-1.6223,-1.6256,-1.6271,-1.63,-1.6332,-1.6179,-1.5904,-1.552,-1.517,-1.4794,-1.4338,-1.4165,-1.4072,-1.4016,-1.3944,-1.3927,-1.4,-1.3944,-1.3927,-1.4,-1.3944,-1.3944,-1.4016,-1.3488,-1.3263,-1.3374,-1.272,-1.2389,-1.2298,-1.2734,-1.2904,-1.5402,0.0,-1.5347,-1.5151,-1.525,-1.535,0.0,-1.5251,-1.5398,-1.5404,0.0,0.0,-1.6186,-1.5755,-1.5522,-1.6184,-1.6841,-1.7626,0.0,0.0,0.0,0.0,0.0,0.0,0.0,0.0,0.0,0.0,0.0,-2.515,-2.5095,-2.5038,-2.4985,-2.4921,-2.4825,-2.4678,-2.4488,-2.4399,-2.4372,-2.4398,-2.4522,-2.4468,-2.4274,-2.4469,-2.4413,0.0,-2.4173,-2.4124,-2.4026,-2.4026,-2.3937,-2.3806,-2.3806,-2.3774,-2.3721,-2.3721,-2.3689,-2.3606,-2.3463,-2.3424,-2.3359,-2.3096,-2.2825,-2.2623,-2.2623,-2.2415,-2.2237,-2.2237,-2.2237,-2.2254,-2.218,-2.1991,-2.1657,-2.1142,-2.027,-1.9263,-1.8269,-1.7483,-1.6809,-1.6286,-1.6194,-1.6348,-1.687,-1.6962,-1.7147,-1.7654,-1.7562,-1.7375,-1.7234,-1.6799,-1.6198,-1.5421,-1.51,-1.4708,-1.4197,-1.4046,-1.3983,-1.4,-1.3983,-1.3983,-1.4,-1.3983,-1.4029,-1.4141,-1.3682,-1.3327,-1.3163,-1.2815,-1.2824,-1.3189,-1.3196,-1.3576,-1.5403,-1.5402,-1.5402,-1.5402,-1.5402,-1.5403,-1.5407,-1.5391,0.0,0.0,0.0,0.0,0.0,0.0,0.0,0.0,-1.764,0.0,0.0,0.0,0.0,0.0,0.0,0.0,0.0,0.0,0.0,0.0,0.0,-2.518,-2.5156,-2.5144,-2.5126,-2.5088,-2.5032,-2.49,-2.4681,-2.4615,-2.4599,-2.4631,-2.4524,-2.4466,-2.4449,-2.4407,-2.4355,0.0,-2.4294,-2.4266,-2.419,-2.4123,-2.4044,-2.3927,-2.3827,-2.3806,-2.3806,-2.3806,-2.3806,-2.3785,-2.3685,-2.3576,-2.3481,-2.3324,-2.3096,-2.2889,-2.2889,-2.2712,-2.246,-2.2338,-2.2296,-2.2296,-2.2296,-2.2166,-2.193,-2.1616,-2.0757,-1.9826,-1.9092,-1.8022,-1.7085,-1.6732,-1.6655,-1.6763,-1.7147,-1.7454,-1.7777,-1.8161,-1.8113,-1.7987,-1.7859,-1.7566,-1.7088,-1.6357,-1.6044,-1.5679,-1.5158,-1.4776,-1.4426,-1.417,-1.4111,-1.4111,-1.4144,-1.4111,-1.4013,-1.3878,-1.351,-1.3168,-1.2932,-1.3034,-1.3228,-1.3517,-1.389,-1.4348,-1.5403,-1.5402,-1.5402,-1.5402,-1.5402,-1.5402,-1.5402,0.0,0.0,0.0,0.0,0.0,0.0,0.0,0.0,0.0,0.0,0.0,0.0,0.0,0.0,0.0,0.0,0.0,0.0,0.0,0.0,0.0,0.0,-2.5191,-2.5191,-2.5191,-2.5191,-2.5191,-2.5137,-2.5063,-2.4926,-2.4837,-2.4842,-2.4877,-2.4768,-2.4692,-2.4642,-2.4569,-2.4488,-2.4357,0.0,0.0,-2.4284,-2.4181,-2.4103,-2.4044,-2.3876,-2.3806,-2.3806,-2.3806,-2.3806,-2.3806,-2.3806,-2.3696,-2.356,-2.356,-2.3371,-2.317,-2.317,-2.2973,-2.2712,-2.2501,-2.2349,-2.2296,-2.2296,-2.2296,-2.2225,-2.1886,-2.1111,-2.0341,-1.9892,-1.8608,-1.75,-1.7377,-1.7347,-1.7393,-1.75,-1.7992,-1.8391,-1.8514,-1.8514,-1.8451,-1.8289,-1.8143,-1.7833,-1.7259,-1.6951,-1.6641,-1.6226,-1.5673,-1.5118,-1.4599,-1.4346,-1.4235,-1.43,-1.4219,-1.3944,-1.3514,-1.325,-1.3004,-1.283,-1.3276,-1.3577,-1.3751,-1.4602,-1.5006,-1.5403,-1.5402,-1.5402,-1.5402,-1.5402,-1.5402,-1.5402,0.0,0.0,0.0,0.0,0.0,0.0,0.0,0.0,0.0,0.0,0.0,0.0,0.0,0.0,0.0,0.0,0.0,0.0,0.0,0.0,0.0,0.0,-2.5191,-2.5191,-2.5191,-2.5191,-2.5191,-2.5185,-2.5156,-2.5076,-2.4946,-2.4863,-2.4827,-2.4795,-2.4791,-2.4764,-2.4749,-2.4718,-2.4645,0.0,-2.4513,-2.4294,-2.4284,-2.4096,-2.3837,-2.3806,-2.3806,-2.3806,-2.3806,-2.3806,-2.3806,-2.3806,-2.3774,-2.3753,-2.3753,-2.362,-2.3429,-2.3429,-2.3253,-2.3035,-2.2998,-2.2642,-2.2296,-2.2296,-2.2296,-2.2225,-2.1886,-2.1473,-2.0906,-1.9987,-1.9358,-1.8793,-1.8161,-1.8053,-1.8238,-1.887,-1.9071,-1.9317,-1.9886,-1.9979,-1.9979,-1.9945,-1.9476,-1.8879,-1.8183,-1.7568,-1.6932,-1.625,-1.6046,-1.591,-1.5833,-1.4853,-1.43,-1.43,-1.4072,-1.3808,-1.351,-1.325,-1.3189,-1.3385,-1.3457,-1.3944,-1.4761,-1.4929,-1.5253,-1.5403,-1.5402,-1.5402,-1.5402,-1.5402,-1.5403,-1.5407,0.0,0.0,0.0,0.0,0.0,0.0,0.0,0.0,0.0,0.0,0.0,0.0,0.0,0.0,0.0,0.0,0.0,0.0,0.0,0.0,0.0,0.0,0.0,-2.5191,-2.5191,-2.5191,-2.5191,-2.5191,-2.5168,-2.5107,-2.5031,-2.4972,-2.4912,-2.4882,-2.4839,-2.4809,-2.4806,-2.4757,-2.47,0.0,-2.4637,-2.4495,-2.4357,-2.421,-2.4057,-2.3868,-2.3806,-2.3806,-2.3806,-2.3806,-2.3806,-2.3806,-2.3806,-2.3806,-2.3806,-2.3732,-2.3664,-2.3664,-2.3508,-2.3289,-2.3128,-2.2825,-2.2515,-2.2515,-2.2405,-2.2225,-2.1886,-2.1691,-2.135,-2.0528,-1.9924,-1.942,-1.8902,-1.8792,-1.8885,-1.924,-1.9595,-1.995,-2.0258,-2.0304,-2.0304,-2.0304,-2.0061,-1.9624,-1.8968,-1.8518,-1.7993,-1.7336,-1.6845,-1.6308,-1.5643,-1.5087,-1.4642,-1.43,-1.404,-1.3775,-1.351,-1.3521,-1.3521,-1.3505,-1.4052,-1.4553,-1.5013,-1.5301,-1.5564,-1.5403,-1.5402,-1.5402,-1.5402,0.0,-1.5443,-1.5663,0.0,0.0,0.0,0.0,0.0,0.0,0.0,0.0,0.0,0.0,0.0,0.0,0.0,0.0,0.0,0.0,0.0,0.0,0.0,0.0,0.0,0.0,0.0,-2.5253,-2.5253,-2.5253,-2.5253,-2.5253,-2.5206,-2.5155,-2.5155,-2.5107,-2.4993,-2.4933,-2.4865,-2.4823,-2.4832,-2.4787,-2.473,-2.4723,-2.47,-2.4645,-2.4436,-2.433,-2.4266,-2.3988,-2.3837,-2.3806,-2.3806,-2.3806,-2.3806,-2.3806,-2.3806,-2.3806,-2.3806,-2.3806,-2.3806,-2.3806,-2.3664,-2.347,-2.3253,-2.2965,-2.2685,-2.2619,-2.2446,-2.224,-2.1991,-2.1857,-2.1661,-2.1151,-2.0575,-2.0052,-1.9715,-1.965,-1.9632,-1.955,-1.9965,-2.0304,-2.0304,-2.0304,-2.0304,-2.0304,-2.022,-2.001,-1.9545,-1.9213,-1.8798,-1.8208,-1.7579,-1.6761,-1.5688,-1.5498,-1.5196,-1.4734,-1.4452,-1.4184,-1.3895,-1.4042,-1.4031,-1.3848,-1.4626,-1.5073,-1.5205,-1.56,-1.5792,-1.5403,-1.5403,-1.5402,-1.5402,-1.5402,0.0,-1.6425,-1.6658,0.0,-1.7661,0.0,0.0,0.0,0.0,0.0,0.0,0.0,0.0,0.0,0.0,0.0,0.0,0.0,0.0,0.0,0.0,0.0,0.0,0.0,0.0,-2.5393,-2.5393,-2.5393,-2.5393,-2.5393,-2.5361,-2.5296,-2.5351,-2.5257,-2.4993,-2.4934,-2.4902,-2.4895,-2.4898,-2.4856,-2.4787,-2.4795,-2.4695,-2.4512,-2.4495,-2.44,-2.4294,-2.4142,-2.3958,-2.3806,-2.3806,-2.3806,-2.3806,-2.3806,-2.3806,-2.3806,-2.3806,-2.3806,-2.3806,-2.3806,-2.3664,-2.3504,-2.3481,-2.3114,-2.2646,-2.2391,-2.231,-2.2296,-2.2268,-2.2034,-2.1797,-2.1736,-2.1445,-2.1086,-2.0764,-2.0682,-2.0583,-2.0278,-2.0273,-2.0304,-2.0304,-2.0304,-2.0304,-2.0304,-2.003,-1.9823,-1.9785,-1.9203,-1.8611,-1.8062,-1.7908,-1.7563,-1.6905,-1.633,-1.6019,-1.5964,-1.5701,-1.543,-1.5068,-1.4847,-1.4802,-1.4893,-1.4965,-1.5265,-1.5732,-1.578,-1.5792,-1.5403,-1.5793,-1.6085,-1.5539,-1.6202,0.0,0.0,-1.6734,-1.7582,-1.7841,-1.9181,0.0,0.0,0.0,0.0,0.0,0.0,0.0,0.0,0.0,0.0,0.0,0.0,0.0,0.0,0.0,0.0,0.0,0.0,0.0,-2.541,-2.541,-2.541,-2.541,-2.541,-2.5397,-2.5365,-2.5397,-2.5351,-2.5257,-2.5173,-2.5109,-2.5025,-2.5025,-2.4974,-2.4863,-2.4813,-2.4772,-2.4687,-2.4545,-2.4469,-2.44,-2.4275,-2.4124,-2.3986,-2.3986,-2.3907,-2.3806,-2.3806,-2.3806,-2.3806,-2.3806,-2.3806,-2.3806,-2.3806,-2.3742,-2.3664,-2.3549,-2.323,-2.2884,-2.2619,-2.2419,-2.2296,-2.2296,-2.2194,-2.2049,-2.1842,-2.1706,-2.1508,-2.1166,-2.0942,-2.0761,-2.0628,-2.0441,-2.0304,-2.0304,-2.0304,-2.0304,-2.0304,-2.0185,-2.003,-1.9823,-1.9203,-1.8669,-1.8344,-1.8101,-1.784,-1.7576,-1.6987,-1.6498,-1.6114,-1.5995,-1.571,-1.5216,-1.5634,-1.556,-1.5013,-1.5548,-1.5815,-1.5792,-1.5792,-1.5792,-1.5403,-1.5833,-1.6202,-1.5889,0.0,0.0,-1.6367,-1.734,-1.8362,-1.8327,-1.9955,0.0,0.0,0.0,0.0,0.0,0.0,0.0,0.0,0.0,0.0,0.0,0.0,0.0,0.0,0.0,0.0,0.0,0.0,0.0,0.0,-2.5453,-2.5453,-2.5453,-2.5453,-2.5441,-2.544,-2.5441,-2.5433,-2.5391,-2.5397,-2.5327,-2.5184,-2.5151,-2.5074,-2.4993,-2.4898,-2.4846,-2.4787,-2.4653,-2.4572,-2.4495,-2.441,-2.4257,-2.4103,-2.4152,-2.3998,-2.3806,-2.3876,-2.3847,-2.3806,-2.3806,-2.3806,-2.3806,-2.3806,-2.3753,-2.3685,-2.3549,-2.3313,-2.3047,-2.276,-2.2501,-2.2296,-2.2296,-2.2296,-2.224,-2.2005,-2.1961,-2.1827,-2.1385,-2.1103,-2.0893,-2.0678,-2.0458,-2.0304,-2.0304,-2.0304,-2.0304,-2.0304,-2.0304,-2.0168,-1.9841,-1.9277,-1.8865,-1.8731,-1.8319,-1.8075,-1.8089,-1.7607,-1.712,-1.6688,-1.6674,-1.642,-1.5912,-1.6481,-1.6334,-1.5411,-1.6009,-1.6129,-1.5792,-1.5792,-1.5792,-1.5403,-1.5406,-1.5619,0.0,0.0,0.0,-1.7615,-1.8612,-1.9205,-1.9221,0.0,0.0,0.0,0.0,0.0,0.0,0.0,0.0,0.0,0.0,0.0,0.0,0.0,0.0,0.0,0.0,0.0,0.0,0.0,0.0,0.0,-2.5582,-2.5582,-2.5601,-2.5601,-2.5577,-2.5499,-2.5573,-2.5531,-2.5395,-2.5534,-2.5527,-2.5406,-2.5264,-2.5201,-2.5187,-2.5063,-2.4917,-2.4794,-2.4795,-2.4687,-2.4503,-2.4503,-2.433,-2.4123,-2.4247,-2.4096,-2.3827,-2.4026,-2.3976,-2.3806,-2.3806,-2.3806,-2.3806,-2.3806,-2.3664,-2.3504,-2.3504,-2.3313,-2.3047,-2.2773,-2.2501,-2.231,-2.2296,-2.2296,-2.2296,-2.2296,-2.2296,-2.2092,-2.1432,-2.1291,-2.1087,-2.0426,-2.0304,-2.0304,-2.0304,-2.0304,-2.0304,-2.0304,-2.0304,-2.0168,-1.9841,-1.9446,-1.9207,-1.9207,-1.8592,-1.8288,-1.8495,-1.8187,-1.7962,-1.7902,-1.7902,-1.7747,-1.7413,-1.7393,-1.7047,-1.6312,-1.6312,-1.6129,-1.5792,-1.5792,-1.5792,-1.5401,-1.5853,0.0,0.0,0.0,0.0,0.0,-1.8183,0.0,0.0,0.0,0.0,0.0,0.0,0.0,0.0,0.0,0.0,0.0,0.0,0.0,0.0,0.0,0.0,0.0,0.0,0.0,0.0,0.0,0.0,0.0,-2.4685,-2.4977,-2.5582,-2.5601,-2.5592,-2.5577,-2.5592,-2.5586,-2.5538,-2.5586,-2.5527,-2.5391,-2.5408,-2.5327,-2.5195,-2.5111,-2.4993,-2.4863,-2.4761,-2.4692,-2.4634,-2.4634,-2.4528,-2.4383,-2.4426,-2.4321,-2.4153,-2.4113,-2.4064,-2.3986,-2.3855,-2.3806,-2.3806,-2.3806,-2.3753,-2.37,-2.37,-2.3547,-2.3313,-2.306,-2.2786,-2.2525,-2.2352,-2.2296,-2.2296,-2.2296,-2.2296,-2.2237,-2.2034,-2.1631,-2.1245,-2.1039,-2.0613,-2.0304,-2.0304,-2.0304,-2.0304,-2.0304,-2.0304,-2.027,-2.0168,-1.9839,-1.9591,-1.9566,-1.9147,-1.8808,-1.8577,-1.8422,-1.822,-1.7922,-1.7902,-1.7747,-1.7413,-1.7632,-1.7406,-1.6714,-1.6714,-1.6543,-1.6151,-1.5913,-1.5792,-1.5304,0.0,0.0,0.0,0.0,0.0,0.0,0.0,0.0,0.0,0.0,0.0,0.0,0.0,0.0,0.0,0.0,0.0,0.0,0.0,0.0,0.0,0.0,0.0,0.0,0.0,0.0,0.0,0.0,0.0,0.0,-2.3772,-2.418,-2.5054,-2.5074,-2.5249,-2.5601,-2.5601,-2.5601,-2.5601,-2.5601,-2.557,-2.5484,-2.5495,-2.5429,-2.5313,-2.5135,-2.4975,-2.4856,-2.4746,-2.47,-2.47,-2.47,-2.461,-2.4512,-2.4561,-2.4452,-2.4312,-2.4266,-2.4219,-2.4162,-2.3986,-2.3917,-2.3907,-2.3816,-2.3806,-2.3806,-2.3806,-2.3664,-2.3429,-2.3182,-2.2897,-2.2619,-2.2349,-2.2296,-2.2296,-2.2296,-2.2296,-2.2268,-2.2137,-2.1766,-2.1416,-2.115,-2.0762,-2.0458,-2.0321,-2.0304,-2.0304,-2.0304,-2.0304,-2.0304,-2.0304,-2.0013,-1.9839,-1.9922,-1.953,-1.9147,-1.8865,-1.8655,-1.8358,-1.7955,-1.7909,-1.7788,-1.7591,-1.7788,-1.7645,-1.7094,-1.696,-1.6693,-1.629,-1.5957,-1.5792,-1.5168,0.0,0.0,0.0,0.0,0.0,0.0,0.0,0.0,0.0,0.0,0.0,0.0,0.0,0.0,0.0,0.0,0.0,0.0,0.0,0.0,0.0,0.0,0.0,0.0,0.0,0.0,0.0,0.0,0.0,0.0,-2.2884,-2.329,-2.4161,-2.4178,-2.4608,-2.5465,-2.5485,-2.5523,-2.5601,-2.5601,-2.5601,-2.5598,-2.555,-2.5503,-2.5464,-2.5149,-2.4949,-2.4816,-2.4761,-2.4715,-2.4707,-2.4707,-2.4637,-2.4537,-2.466,-2.4555,-2.4348,-2.4461,-2.44,-2.4284,-2.4142,-2.4084,-2.4026,-2.3865,-2.3806,-2.3806,-2.3806,-2.3675,-2.3463,-2.3188,-2.2947,-2.2699,-2.2422,-2.2324,-2.2296,-2.2296,-2.2296,-2.2209,-2.1901,-2.1827,-2.1601,-2.1006,-2.0876,-2.0728,-2.0407,-2.0321,-2.0304,-2.0304,-2.0304,-2.0304,-2.0304,-2.003,-1.9962,-2.027,-1.9812,-1.9417,-1.9262,-1.8903,-1.85,-1.8088,-1.7955,-1.7902,-1.7902,-1.7902,-1.7747,-1.7434,-1.7115,-1.6757,-1.6377,-1.6022,-1.5859,0.0,-1.5531,0.0,0.0,0.0,0.0,0.0,0.0,0.0,0.0,0.0,0.0,0.0,0.0,0.0,0.0,0.0,0.0,0.0,0.0,0.0,0.0,0.0,0.0,0.0,0.0,0.0,0.0,0.0,0.0,-2.1949,-2.1988,-2.2377,-2.3251,-2.327,-2.3698,-2.4569,-2.4588,-2.4918,-2.5601,-2.5601,-2.5601,-2.5601,-2.5589,-2.5515,-2.541,-2.5226,-2.5101,-2.5025,-2.4914,-2.4834,-2.4764,-2.4715,-2.4684,-2.4668,-2.4692,-2.4668,-2.4594,-2.4528,-2.44,-2.4284,-2.4142,-2.3996,-2.3865,-2.3816,-2.3806,-2.3806,-2.3806,-2.3764,-2.3696,-2.3474,-2.3359,-2.3206,-2.2738,-2.2446,-2.2296,-2.2296,-2.2296,-2.2282,-2.2209,-2.1991,-2.1751,-2.1601,-2.1371,-2.1071,-2.0745,-2.046,-2.0304,-2.0304,-2.0304,-2.0304,-2.0304,-2.0252,-2.022,-2.0287,-2.0183,-1.9993,-1.9699,-1.9533,-1.9203,-1.8649,-1.8169,-1.7902,-1.7902,-1.7902,-1.7862,-1.7788,-1.7447,-1.7248,-1.7144,-1.6497,-1.6194,0.0,0.0,0.0,0.0,0.0,0.0,0.0,0.0,0.0,0.0,0.0,0.0,0.0,0.0,0.0,0.0,0.0,0.0,0.0,0.0,0.0,0.0,0.0,0.0,0.0,0.0,0.0,0.0,0.0,-2.0682,-2.1092,-2.1131,-2.15,-2.2357,-2.2377,-2.2804,-2.3675,-2.3675,-2.3911,-2.4358,-2.4358,-2.4572,-2.4996,-2.5404,-2.5525,-2.5406,-2.5339,-2.5214,-2.5101,-2.4961,-2.4865,-2.4798,-2.4734,-2.47,-2.47,-2.47,-2.47,-2.4692,-2.461,-2.4545,-2.4462,-2.4257,-2.4124,-2.4018,-2.3847,-2.3806,-2.3806,-2.3806,-2.3721,-2.3631,-2.3538,-2.3394,-2.333,-2.3444,-2.297,-2.246,-2.2338,-2.2296,-2.2296,-2.2296,-2.2166,-2.1991,-2.1827,-2.1524,-2.1245,-2.1071,-2.0745,-2.0652,-2.098,-2.087,-2.0888,-2.1227,-2.1257,-2.1257,-2.1257,-2.0949,-2.064,-2.0307,-1.9912,-1.9493,-1.9016,-1.8649,-1.8313,-1.7955,-1.7922,-1.7902,-1.7902,-1.755,-1.7393,-1.7393,-1.685,-1.6595,0.0,0.0,0.0,0.0,0.0,0.0,0.0,0.0,0.0,0.0,0.0,0.0,0.0,0.0,0.0,0.0,0.0,0.0,0.0,0.0,0.0,0.0,0.0,0.0,0.0,0.0,0.0,0.0,0.0,-2.0507,-2.0507,-2.0507,-2.0818,-2.1461,-2.1481,-2.1908,-2.2765,-2.2785,-2.2845,-2.3001,-2.3001,-2.3464,-2.4313,-2.5054,-2.5396,-2.543,-2.5434,-2.5327,-2.5147,-2.5012,-2.4908,-2.4836,-2.4757,-2.4707,-2.47,-2.47,-2.47,-2.47,-2.47,-2.4692,-2.4637,-2.4384,-2.4275,-2.421,-2.3888,-2.3806,-2.3806,-2.3806,-2.3775,-2.3757,-2.3757,-2.3708,-2.3789,-2.4418,-2.388,-2.3123,-2.2681,-2.264,-2.2634,-2.2499,-2.2584,-2.2579,-2.2312,-2.1993,-2.1759,-2.1759,-2.1423,-2.1364,-2.1914,-2.1693,-2.1689,-2.2243,-2.2305,-2.2305,-2.2305,-2.1797,-2.1348,-2.1076,-2.0484,-2.0001,-1.9674,-1.9577,-1.9233,-1.8585,-1.8205,-1.7983,-1.7922,-1.7632,-1.7488,-1.7488,-1.7136,-1.7033,0.0,0.0,0.0,0.0,0.0,0.0,0.0,0.0,0.0,0.0,0.0,0.0,0.0,0.0,0.0,0.0,0.0,0.0,0.0,0.0,0.0,0.0,0.0,0.0,0.0,0.0,0.0,0.0,-2.0507,-2.0507,-2.0507,-2.0507,-2.0546,-2.0663,-2.0663,-2.1053,-2.1869,-2.1869,-2.2241,-2.3001,-2.3001,-2.3464,-2.4294,-2.4411,-2.4874,-2.5567,-2.557,-2.5495,-2.5354,-2.5219,-2.5093,-2.4953,-2.4832,-2.4749,-2.47,-2.47,-2.47,-2.47,-2.47,-2.4618,-2.4503,-2.4348,-2.4228,-2.4094,-2.3876,-2.3806,-2.3806,-2.3806,-2.4281,-2.4802,-2.4802,-2.5285,-2.5757,-2.5641,-2.5483,-2.5065,-2.3935,-2.3967,-2.4017,-2.3376,-2.378,-2.4188,-2.4157,-2.3861,-2.3653,-2.3653,-2.3055,-2.2649,-2.2744,-2.2412,-2.2212,-2.2289,-2.2305,-2.2305,-2.2305,-2.2228,-2.2147,-2.211,-2.2014,-2.182,-2.1551,-2.1434,-2.1203,-2.0878,-1.9262,-1.8279,-1.7982,-1.7889,-1.7828,-1.7842,-1.7488,-1.7621,-1.3166,-1.3755,0.0,0.0,0.0,0.0,0.0,0.0,0.0,0.0,0.0,0.0,0.0,0.0,0.0,0.0,0.0,0.0,0.0,0.0,0.0,0.0,0.0,0.0,0.0,0.0,0.0,0.0,-2.0493,-2.0507,-2.0507,-2.0507,-2.0507,-2.0507,-2.0507,-2.0663,-2.1015,-2.1034,-2.1228,-2.1597,-2.1597,-2.2044,-2.286,-2.3345,-2.4319,-2.5601,-2.5592,-2.5527,-2.5393,-2.5264,-2.5121,-2.4999,-2.4846,-2.4757,-2.47,-2.47,-2.47,-2.47,-2.47,-2.4668,-2.4586,-2.4471,-2.4321,-2.4172,-2.4026,-2.4195,-2.4465,-2.4465,-2.5045,-2.5679,-2.5679,-2.5932,-2.6277,-2.6615,-2.6588,-2.6315,-2.5751,-2.531,-2.4856,-2.4393,-2.4407,-2.4491,-2.4491,-2.4382,-2.4288,-2.4288,-2.3836,-2.3578,-2.3735,-2.3417,-2.325,-2.3399,-2.3425,-2.3425,-2.3425,-2.3071,-2.2855,-2.2855,-2.2501,-2.2248,-2.2133,-2.2075,-2.192,-2.1645,-2.035,-1.957,-1.9329,-1.9092,-1.895,-1.89,-1.8758,-1.8841,-1.3537,-1.4037,-1.4335,0.0,0.0,0.0,0.0,0.0,0.0,0.0,0.0,0.0,0.0,0.0,0.0,0.0,0.0,0.0,0.0,0.0,0.0,0.0,0.0,0.0,0.0,0.0,0.0,0.0,-2.0506,-2.0495,-2.0495,-2.0508,-2.0504,-2.0508,-2.0502,-2.0499,-2.0499,-2.049,-2.0507,-2.0507,-2.0507,-2.0915,-2.1733,-2.259,-2.3834,-2.5287,-2.5504,-2.5544,-2.5445,-2.5293,-2.5154,-2.5013,-2.4849,-2.4764,-2.47,-2.47,-2.47,-2.47,-2.47,-2.47,-2.4684,-2.4545,-2.44,-2.4266,-2.4142,-2.453,-2.5009,-2.5009,-2.5733,-2.65,-2.65,-2.6663,-2.6952,-2.7568,-2.7558,-2.736,-2.721,-2.6397,-2.569,-2.5576,-2.5358,-2.5159,-2.5065,-2.5066,-2.5066,-2.5066,-2.4761,-2.4611,-2.4805,-2.4507,-2.4353,-2.443,-2.4451,-2.441,-2.4302,-2.384,-2.3548,-2.3548,-2.3086,-2.2809,-2.2809,-2.2809,-2.2716,-2.2499,-2.1789,-2.1104,-2.0472,-2.0128,-1.988,-1.9731,-1.9722,-1.9768,-1.3539,-1.3998,0.0,0.0,0.0,0.0,0.0,0.0,0.0,0.0,0.0,0.0,0.0,0.0,0.0,0.0,0.0,0.0,0.0,0.0,0.0,0.0,0.0,0.0,0.0,0.0,0.0,0.0,-2.0503,-2.0494,-2.0494,-2.0495,-2.0506,-2.0495,-2.0498,-2.0506,-2.0506,-2.0502,-2.0507,-2.0507,-2.0507,-2.0915,-2.1733,-2.259,-2.3503,-2.4411,-2.5249,-2.5609,-2.5564,-2.5378,-2.5219,-2.5082,-2.4881,-2.4768,-2.47,-2.47,-2.47,-2.47,-2.47,-2.47,-2.4684,-2.4545,-2.44,-2.4266,-2.4142,-2.453,-2.5009,-2.5009,-2.6131,-2.7333,-2.7333,-2.7894,-2.8491,-2.8527,-2.8533,-2.836,-2.7791,-2.7063,-2.6647,-2.7001,-2.706,-2.6949,-2.6639,-2.6589,-2.6589,-2.6589,-2.625,-2.6005,-2.602,-2.566,-2.5281,-2.4902,-2.4863,-2.4719,-2.4323,-2.4271,-2.4256,-2.4256,-2.4225,-2.421,-2.421,-2.421,-2.4194,-2.4189,-2.3819,-2.2659,-2.0697,-2.0458,-2.0172,-1.9778,-1.9731,-1.9962,-1.2841,-1.3568,0.0,0.0,0.0,0.0,0.0,0.0,0.0,0.0,0.0,0.0,0.0,0.0,0.0,0.0,0.0,0.0,0.0,0.0,0.0,0.0,0.0,0.0,0.0,0.0,0.0,0.0,0.0,-2.05,-2.0504,-2.0506,-2.0495,-2.0498,-2.0492,-2.0505,-2.0498,-2.0502,-2.0508,-2.0502,-2.0493,-2.0643,-2.0954,-2.1791,-2.2649,-2.3503,-2.4394,-2.5084,-2.5593,-2.5426,-2.5293,-2.5141,-2.4994,-2.4858,-2.4757,-2.4715,-2.47,-2.47,-2.47,-2.47,-2.4692,-2.4634,-2.4537,-2.4392,-2.4266,-2.5039,-2.594,-2.581,-2.6916,-2.8165,-2.8165,-2.8382,-2.86,-2.86,-2.86,-2.8549,-2.8317,-2.791,-2.7603,-2.7755,-2.7457,-2.7165,-2.7037,-2.6841,-2.6691,-2.6691,-2.6573,-2.6385,-2.6123,-2.5962,-2.5726,-2.5332,-2.5044,-2.4843,-2.4699,-2.4451,-2.4302,-2.4302,-2.4302,-2.4302,-2.4302,-2.4302,-2.4302,-2.4302,-2.4177,-2.3498,-2.2229,-2.1883,-2.1433,-2.0949,-2.0846,-2.0884,-1.2532,0.0,0.0,0.0,0.0,0.0,0.0,0.0,0.0,0.0,0.0,0.0,0.0,0.0,0.0,0.0,0.0,0.0,0.0,0.0,0.0,0.0,0.0,0.0,0.0,0.0,0.0,0.0,0.0,0.0,-2.052,-2.0509,-2.0496,-2.0506,-2.0506,-2.0501,-2.0492,-2.0499,-2.0508,-2.0495,-2.0502,-2.0493,-2.0527,-2.1325,-2.2027,-2.2629,-2.3792,-2.4796,-2.5583,-2.546,-2.5333,-2.5215,-2.508,-2.4947,-2.4839,-2.4764,-2.4715,-2.4707,-2.473,-2.473,-2.4723,-2.4738,-2.4634,-2.4503,-2.441,-2.5379,-2.6472,-2.6336,-2.7417,-2.86,-2.86,-2.86,-2.86,-2.86,-2.86,-2.86,-2.86,-2.8422,-2.8228,-2.8129,-2.7692,-2.7338,-2.7213,-2.6923,-2.6691,-2.6691,-2.6691,-2.659,-2.6349,-2.6298,-2.6157,-2.5744,-2.5332,-2.5059,-2.4902,-2.4533,-2.4302,-2.4302,-2.4302,-2.4302,-2.4302,-2.4302,-2.4302,-2.4302,-2.4302,-2.3973,-2.3326,-2.2859,-2.2356,-2.1864,-2.1592,-2.1447,0.0,0.0,0.0,0.0,0.0,0.0,0.0,0.0,0.0,0.0,0.0,0.0,0.0,0.0,0.0,0.0,0.0,0.0,0.0,0.0,0.0,0.0,0.0,0.0,0.0,0.0,0.0,0.0,-2.0532,-2.0539,-2.0584,-2.0546,-2.0499,-2.05,-2.0499,-2.0494,-2.0507,-2.0492,-2.0499,-2.0508,-2.0495,-2.0502,-2.0527,-2.1306,-2.1675,-2.1791,-2.352,-2.4763,-2.5556,-2.5448,-2.5371,-2.5296,-2.5162,-2.5019,-2.4895,-2.4832,-2.4757,-2.4715,-2.4791,-2.4791,-2.4806,-2.4805,-2.4715,-2.4607,-2.4557,-2.5466,-2.6523,-2.6542,-2.7536,-2.86,-2.86,-2.86,-2.86,-2.86,-2.86,-2.86,-2.86,-2.86,-2.8505,-2.817,-2.7897,-2.7612,-2.7276,-2.694,-2.6708,-2.6691,-2.6691,-2.6691,-2.6691,-2.6691,-2.6539,-2.6157,-2.5762,-2.5351,-2.4962,-2.4553,-2.4302,-2.4302,-2.4302,-2.4302,-2.4302,-2.4302,-2.4302,-2.4302,-2.4302,-2.4135,-2.3803,-2.3348,-2.2881,-2.2394,-2.1841,-2.1544,-1.3574,0.0,0.0,0.0,0.0,0.0,0.0,0.0,0.0,0.0,0.0,0.0,0.0,0.0,0.0,0.0,0.0,0.0,0.0,0.0,0.0,0.0,0.0,0.0,0.0,0.0,0.0,0.0,-2.0511,-2.0516,-2.0534,-2.0566,-2.0564,-2.0561,-2.0575,-2.0567,-2.0561,-2.0528,-2.0494,-2.0499,-2.05,-2.0502,-2.0507,-2.0721,-2.1151,-2.1753,-2.2882,-2.385,-2.4702,-2.5308,-2.549,-2.5365,-2.5283,-2.5122,-2.4961,-2.4907,-2.4834,-2.4764,-2.4787,-2.4802,-2.4798,-2.4794,-2.4764,-2.4824,-2.5296,-2.607,-2.6863,-2.7251,-2.8066,-2.8785,-2.8637,-2.86,-2.86,-2.86,-2.86,-2.86,-2.86,-2.86,-2.8574,-2.8479,-2.8219,-2.7911,-2.7609,-2.7274,-2.6972,-2.6741,-2.6691,-2.6691,-2.6691,-2.6691,-2.6657,-2.6539,-2.6175,-2.5781,-2.537,-2.4962,-2.4614,-2.4323,-2.4302,-2.4302,-2.4302,-2.4302,-2.4302,-2.4302,-2.4302,-2.4261,-2.4156,-2.3696,-2.3135,-2.2457,-2.1874,-2.1544,-1.3898,-1.4536,0.0,0.0,0.0,0.0,0.0,-1.5569,0.0,0.0,0.0,0.0,0.0,0.0,0.0,0.0,0.0,0.0,0.0,0.0,0.0,0.0,0.0,0.0,0.0,-2.0353,-2.0542,-2.0498,-2.0501,-2.0505,-2.0508,-2.0544,-2.0566,-2.0604,-2.0602,-2.0596,-2.0609,-2.056,-2.0528,-2.0494,-2.0494,-2.0495,-2.0497,-2.049,-2.076,-2.1267,-2.2474,-2.329,-2.385,-2.5096,-2.5548,-2.5468,-2.5382,-2.524,-2.5113,-2.5,-2.4907,-2.4834,-2.4839,-2.4813,-2.4801,-2.4823,-2.4816,-2.4866,-2.5266,-2.6084,-2.6981,-2.7276,-2.8121,-2.8839,-2.865,-2.86,-2.86,-2.86,-2.86,-2.86,-2.86,-2.86,-2.8562,-2.8422,-2.8134,-2.784,-2.7535,-2.7195,-2.6923,-2.6725,-2.6691,-2.6691,-2.6691,-2.6691,-2.6691,-2.6691,-2.6333,-2.5998,-2.5781,-2.5218,-2.4799,-2.4574,-2.4405,-2.4302,-2.4302,-2.4302,-2.4302,-2.4302,-2.4302,-2.4302,-2.4302,-2.3888,-2.3355,-2.274,-2.2194,-2.1864,-1.4071,-1.467,-1.5538,-1.6311,-1.5984,0.0,-1.6415,-1.5913,-1.5315,0.0,0.0,0.0,0.0,0.0,0.0,0.0,0.0,0.0,0.0,0.0,0.0,0.0,0.0,0.0,-1.9167,-1.9802,-2.0264,-2.0361,-2.0449,-2.0507,-2.0505,-2.0498,-2.0525,-2.0586,-2.0605,-2.0603,-2.0595,-2.0609,-2.0579,-2.0506,-2.0492,-2.0492,-2.0508,-2.0495,-2.0507,-2.0585,-2.2163,-2.2904,-2.3137,-2.4785,-2.5514,-2.5593,-2.5464,-2.5365,-2.5283,-2.5096,-2.4981,-2.4908,-2.4919,-2.487,-2.4808,-2.487,-2.4856,-2.4824,-2.4908,-2.5806,-2.6833,-2.7,-2.7959,-2.8875,-2.8694,-2.865,-2.8637,-2.8637,-2.8612,-2.86,-2.86,-2.86,-2.8505,-2.8156,-2.7911,-2.7639,-2.7322,-2.6972,-2.6741,-2.6708,-2.6691,-2.6691,-2.6691,-2.6691,-2.6691,-2.6691,-2.6367,-2.6123,-2.6034,-2.5389,-2.4922,-2.4843,-2.4492,-2.4302,-2.4302,-2.4302,-2.4302,-2.4302,-2.4302,-2.4302,-2.4302,-2.3952,-2.3588,-2.315,-2.2678,-2.2417,-1.5135,-1.5577,-1.6292,-1.6468,0.0,0.0,-1.663,-1.5846,-1.525,0.0,0.0,0.0,0.0,0.0,0.0,0.0,0.0,0.0,0.0,0.0,0.0,0.0,0.0,0.0,-1.8251,-1.84,-1.8784,-1.9485,-2.0137,-2.0501,-2.0506,-2.0504,-2.0513,-2.0516,-2.0566,-2.0604,-2.0603,-2.0594,-2.0579,-2.0506,-2.0492,-2.0492,-2.0508,-2.0495,-2.0507,-2.0546,-2.1539,-2.2357,-2.3079,-2.4122,-2.4968,-2.5596,-2.5508,-2.5434,-2.5373,-2.5274,-2.5126,-2.4974,-2.4986,-2.4933,-2.487,-2.4823,-2.4801,-2.4918,-2.5566,-2.5963,-2.6413,-2.7615,-2.8489,-2.9049,-2.9016,-2.8927,-2.8846,-2.8846,-2.8724,-2.86,-2.86,-2.86,-2.8505,-2.8156,-2.8061,-2.7922,-2.7639,-2.7321,-2.7005,-2.6741,-2.6691,-2.6691,-2.6691,-2.6691,-2.6691,-2.6691,-2.6641,-2.6315,-2.567,-2.5484,-2.5118,-2.4451,-2.4343,-2.4302,-2.4302,-2.4302,-2.4302,-2.4302,-2.4302,-2.4302,-2.4302,-2.3952,-2.3696,-2.3486,-2.3127,-2.2904,-1.5442,-1.5519,-1.5965,-1.6388,0.0,0.0,0.0,-1.5854,-1.5374,-1.5849,0.0,0.0,0.0,0.0,0.0,0.0,0.0,0.0,0.0,0.0,0.0,0.0,0.0,0.0,-1.7353,-1.7737,-1.8177,-1.8618,-1.904,-1.9425,-1.9837,-1.9847,-2.0052,-2.0488,-2.054,-2.0545,-2.0547,-2.0583,-2.0576,-2.051,-2.0509,-2.0506,-2.0506,-2.0506,-2.0495,-2.0546,-2.1345,-2.2182,-2.3079,-2.3947,-2.4815,-2.5609,-2.5554,-2.552,-2.5449,-2.5378,-2.5238,-2.5087,-2.5025,-2.4933,-2.4849,-2.4805,-2.4809,-2.4877,-2.5276,-2.596,-2.6822,-2.7904,-2.8719,-2.923,-2.9137,-2.9038,-2.8984,-2.8929,-2.8822,-2.8724,-2.8625,-2.86,-2.8562,-2.8378,-2.8197,-2.8006,-2.7742,-2.7567,-2.7338,-2.7005,-2.6956,-2.6891,-2.6725,-2.6691,-2.6691,-2.6691,-2.6691,-2.6539,-2.6123,-2.5908,-2.554,-2.4942,-2.4719,-2.4513,-2.4302,-2.4302,-2.4302,-2.4302,-2.4302,-2.4302,-2.4302,-2.4135,-2.4009,-2.3931,-2.361,-2.3392,0.0,0.0,0.0,0.0,0.0,-1.6031,0.0,0.0,0.0,-1.6224,0.0,0.0,0.0,0.0,0.0,0.0,0.0,0.0,0.0,0.0,0.0,0.0,0.0,0.0,-1.6474,-1.7093,-1.7571,-1.7731,-1.7748,-1.812,-1.892,-1.9116,-1.9514,-2.0229,-2.0408,-2.0494,-2.0504,-2.0547,-2.0546,-2.0504,-2.0507,-2.0509,-2.0494,-2.0506,-2.0504,-2.0531,-2.1189,-2.2046,-2.3059,-2.3753,-2.4666,-2.5598,-2.5602,-2.557,-2.5489,-2.5437,-2.5337,-2.519,-2.5088,-2.4966,-2.4844,-2.4824,-2.4813,-2.4798,-2.4772,-2.5914,-2.731,-2.7867,-2.8706,-2.9423,-2.9262,-2.918,-2.9115,-2.8973,-2.8922,-2.8827,-2.865,-2.86,-2.86,-2.86,-2.8378,-2.8106,-2.7829,-2.7728,-2.7597,-2.7244,-2.7197,-2.7085,-2.6741,-2.6691,-2.6691,-2.6691,-2.6691,-2.6674,-2.659,-2.628,-2.5926,-2.5521,-2.5214,-2.4863,-2.4538,-2.4451,-2.4385,-2.4302,-2.4302,-2.4302,-2.4302,-2.4302,-2.4302,-2.4281,-2.403,-2.3846,0.0,0.0,0.0,0.0,-1.8077,0.0,0.0,0.0,-1.6172,-1.5501,0.0,0.0,0.0,0.0,0.0,0.0,0.0,0.0,0.0,0.0,0.0,0.0,0.0,0.0,0.0,-1.5632,-1.6015,-1.6785,-1.686,-1.7226,-1.8099,-1.8803,-1.9254,-1.9335,-2.0091,-2.0494,-2.0504,-2.0505,-2.0508,-2.0504,-2.0501,-2.0494,-2.0503,-2.0506,-2.0497,-2.0506,-2.059,-2.1539,-2.302,-2.3117,-2.4125,-2.5598,-2.5602,-2.557,-2.5492,-2.5479,-2.5397,-2.5289,-2.5198,-2.5122,-2.5057,-2.4938,-2.4846,-2.4791,-2.4723,-2.5871,-2.7223,-2.73,-2.8454,-2.9655,-2.9636,-2.9492,-2.9322,-2.9115,-2.8996,-2.8827,-2.865,-2.86,-2.86,-2.86,-2.8574,-2.8435,-2.8102,-2.7855,-2.7597,-2.7244,-2.7197,-2.7085,-2.6741,-2.6691,-2.6691,-2.6691,-2.6691,-2.6573,-2.621,-2.6139,-2.5926,-2.5521,-2.5465,-2.5408,-2.537,-2.502,-2.4659,-2.4302,-2.4302,-2.4302,-2.4302,-2.4302,-2.4302,-2.4302,-2.4261,-2.424,0.0,0.0,0.0,0.0,0.0,0.0,-1.6772,0.0,-1.5792,0.0,0.0,0.0,0.0,0.0,0.0,0.0,0.0,0.0,0.0,0.0,0.0,0.0,0.0,0.0,0.0,0.0,0.0,0.0,-1.6042,-1.6018,-1.7903,-1.7846,-1.8199,-1.9175,-1.9553,-1.999,-2.0504,-2.0493,-2.0502,-2.0508,-2.0506,-2.0496,-2.0496,-2.049,-2.0508,-2.0508,-2.0495,-2.1442,-2.3001,-2.3001,-2.4028,-2.5598,-2.5592,-2.5557,-2.5495,-2.5505,-2.5426,-2.5283,-2.5228,-2.5128,-2.5013,-2.4896,-2.4809,-2.4791,-2.4715,-2.5871,-2.7204,-2.7204,-2.8406,-2.9701,-2.9701,-2.9636,-2.9531,-2.9332,-2.9144,-2.8966,-2.8803,-2.8687,-2.86,-2.86,-2.86,-2.8562,-2.8422,-2.8304,-2.8059,-2.755,-2.7491,-2.7289,-2.6775,-2.6691,-2.6691,-2.6691,-2.6691,-2.6641,-2.647,-2.6453,-2.628,-2.5872,-2.5633,-2.5389,-2.516,-2.4981,-2.4719,-2.4302,-2.4302,-2.4302,-2.4302,-2.4302,-2.4302,-2.4302,-2.4302,-2.4302,-1.8222,0.0,0.0,0.0,0.0,0.0,0.0,0.0,0.0,0.0,0.0,0.0,0.0,0.0,0.0,0.0,0.0,-1.5614,0.0,0.0,0.0,0.0,0.0,0.0,0.0,0.0,0.0,0.0,0.0,-1.5143,-1.7513,-1.7046,-1.7477,-1.9155,-1.9194,-1.9629,-2.0497,-2.0504,-2.0516,-2.0526,-2.0507,-2.0498,-2.0498,-2.0497,-2.0494,-2.0493,-2.0495,-2.1442,-2.3001,-2.3001,-2.4028,-2.5601,-2.5601,-2.5564,-2.5495,-2.5495,-2.5449,-2.5339,-2.5288,-2.5151,-2.5006,-2.4875,-2.4802,-2.4828,-2.4997,-2.6059,-2.7242,-2.7467,-2.8575,-2.9701,-2.9701,-2.9701,-2.9645,-2.9443,-2.9251,-2.906,-2.8934,-2.8749,-2.86,-2.86,-2.86,-2.86,-2.86,-2.86,-2.8401,-2.7803,-2.7701,-2.7459,-2.6791,-2.6691,-2.6691,-2.6691,-2.6691,-2.6691,-2.6691,-2.6691,-2.659,-2.628,-2.598,-2.5652,-2.5237,-2.5218,-2.4981,-2.4472,-2.4451,-2.441,-2.4302,-2.4302,-2.4302,-2.4302,-2.4302,-2.4302,0.0,0.0,0.0,-1.8122,0.0,0.0,0.0,0.0,-1.7411,0.0,0.0,0.0,0.0,0.0,-1.7353,-1.658,0.0,0.0,0.0,0.0,0.0,0.0,0.0,0.0,0.0,0.0,0.0,0.0,-1.4627,0.0,-1.6657,-1.6714,-1.7477,-1.9155,-1.9194,-1.9621,-2.0483,-2.0494,-2.052,-2.0605,-2.0525,-2.0503,-2.05,-2.0507,-2.0498,-2.0506,-2.0499,-2.1442,-2.3001,-2.3001,-2.4028,-2.5601,-2.5601,-2.5564,-2.5495,-2.5495,-2.5498,-2.5484,-2.5427,-2.5262,-2.5063,-2.4933,-2.4853,-2.4941,-2.5726,-2.6537,-2.7355,-2.8134,-2.8998,-2.9701,-2.9701,-2.9701,-2.9645,-2.9443,-2.9251,-2.906,-2.8934,-2.8749,-2.86,-2.86,-2.86,-2.86,-2.86,-2.86,-2.8401,-2.7803,-2.7701,-2.7459,-2.6791,-2.6691,-2.6691,-2.6691,-2.6691,-2.6691,-2.6691,-2.6691,-2.6691,-2.6674,-2.6674,-2.6487,-2.607,-2.6052,-2.5689,-2.4902,-2.4883,-2.4679,-2.4302,-2.4302,-2.4302,-2.4302,-2.4302,-2.4302,0.0,0.0,-2.1406,-1.912,0.0,0.0,0.0,0.0,0.0,0.0,0.0,0.0,0.0,0.0,-1.7603,-1.7334,-1.6853,0.0,0.0,0.0,0.0,0.0,0.0,0.0,0.0,0.0,0.0,0.0,-1.6108,0.0,-1.8238,-1.73,-1.7222,-1.8372,-1.8411,-1.8809,-1.9623,-2.0202,-2.0509,-2.0526,-2.0508,-2.0505,-2.05,-2.0497,-2.0494,-2.0532,-2.1061,-2.1949,-2.304,-2.3617,-2.4549,-2.5601,-2.5601,-2.5589,-2.557,-2.5518,-2.5494,-2.5472,-2.5372,-2.5254,-2.5157,-2.5118,-2.5412,-2.583,-2.6012,-2.7011,-2.8103,-2.835,-2.9035,-2.9701,-2.9701,-2.9701,-2.9673,-2.9617,-2.9334,-2.9093,-2.9038,-2.8797,-2.86,-2.86,-2.86,-2.86,-2.86,-2.86,-2.8453,-2.8037,-2.7815,-2.7552,-2.7085,-2.6841,-2.6691,-2.6691,-2.6691,-2.6691,-2.6691,-2.6691,-2.6691,-2.6691,-2.6691,-2.6522,-2.6122,-2.6104,-2.5854,-2.5313,-2.5294,-2.5237,-2.5082,-2.4839,-2.4699,-2.4699,-2.441,-2.4302,-1.9734,-2.077,0.0,-1.9446,-1.9342,0.0,-1.7352,0.0,-1.8362,0.0,0.0,0.0,0.0,0.0,-1.8519,-1.8204,-1.7731,-1.718,0.0,-1.6253,0.0,0.0,0.0,0.0,0.0,0.0,-1.6207,-1.8216,-1.6811,0.0,0.0,-1.7613,-1.7222,-1.8391,-1.8156,-1.8395,-1.9226,-2.0082,-2.0506,-2.0504,-2.0508,-2.0504,-2.0498,-2.0492,-2.0508,-2.0547,-2.135,-2.2182,-2.3079,-2.3947,-2.4802,-2.5601,-2.5601,-2.5589,-2.557,-2.5518,-2.551,-2.548,-2.5339,-2.5274,-2.5271,-2.5535,-2.595,-2.6428,-2.6934,-2.779,-2.8625,-2.8868,-2.9295,-2.9692,-2.9692,-2.9701,-2.9701,-2.9701,-2.9394,-2.9097,-2.9097,-2.8827,-2.86,-2.86,-2.86,-2.86,-2.86,-2.86,-2.8492,-2.8143,-2.7936,-2.7742,-2.743,-2.7085,-2.6874,-2.6874,-2.6775,-2.6691,-2.6691,-2.6691,-2.6691,-2.6691,-2.6691,-2.6573,-2.6315,-2.6315,-2.6123,-2.5726,-2.5707,-2.5652,-2.5503,-2.5098,-2.4902,-2.4883,-2.4492,-2.4302]},{"header":{"parameterUnit":"m.s-1","parameterCategory":1,"la1":30.6,"la2":29.2853,"lo1":-89.7004,"lo2":-87.6739,"dy":0.0162,"dx":0.0183,"nx":112,"ny":82,"refTime":"2026-04-23T00:00:00:Z","depth":0,"parameterNumber":3,"parameterNumberName":"V-component_of_WINDS"},"data":[0.0,0.0,0.0,0.0,0.0,0.0,0.0,0.0,0.0,0.0,0.0,0.0,0.0,0.0,0.0,0.0,0.0,0.0,0.0,0.0,0.0,0.0,0.0,0.0,0.0,0.0,0.0,0.0,0.0,0.0,0.0,0.0,0.0,0.0,0.0,0.0,0.0,0.0,0.0,0.0,0.0,0.0,0.0,0.0,0.0,0.0,0.0,0.0,0.0,0.0,0.0,0.0,0.0,0.0,0.0,0.0,0.0,0.0,0.0,0.0,0.0,0.0,0.0,0.0,0.0,0.0,0.0,0.0,0.0,0.0,0.0,0.0,0.0,0.0,0.0,0.0,0.0,0.0,0.0,0.0,0.0,0.0,0.0,0.0,0.0,0.0,0.0,0.0,0.0,0.0,0.0,-1.3395,-1.4095,-1.4482,-1.4464,-1.4475,-1.4502,-1.4563,0.0,0.0,0.0,0.0,0.0,0.0,0.0,0.0,0.0,0.0,0.0,0.0,0.0,0.0,0.0,0.0,0.0,0.0,0.0,0.0,0.0,0.0,0.0,0.0,0.0,0.0,0.0,0.0,0.0,0.0,0.0,0.0,0.0,0.0,0.0,0.0,0.0,0.0,0.0,0.0,0.0,0.0,0.0,0.0,0.0,0.0,0.0,0.0,0.0,0.0,0.0,0.0,0.0,0.0,0.0,0.0,0.0,0.0,0.0,0.0,0.0,0.0,0.0,0.0,0.0,0.0,0.0,0.0,0.0,0.0,0.0,0.0,0.0,0.0,0.0,0.0,0.0,0.0,0.0,0.0,0.0,0.0,0.0,0.0,0.0,0.0,0.0,0.0,0.0,0.0,0.0,0.0,0.0,0.0,0.0,0.0,0.0,0.0,0.0,0.0,0.0,0.0,0.0,0.0,-1.2674,-1.4169,-1.4438,-1.4447,-1.4337,-1.4374,-1.4428,-1.4439,0.0,0.0,0.0,0.0,0.0,0.0,0.0,0.0,0.0,0.0,0.0,0.0,0.0,0.0,0.0,0.0,0.0,0.0,0.0,0.0,0.0,0.0,0.0,0.0,0.0,0.0,0.0,0.0,0.0,0.0,0.0,0.0,0.0,0.0,0.0,0.0,0.0,0.0,0.0,0.0,0.0,0.0,0.0,0.0,0.0,0.0,0.0,0.0,0.0,0.0,0.0,0.0,0.0,0.0,0.0,0.0,0.0,0.0,0.0,0.0,0.0,0.0,0.0,0.0,0.0,0.0,0.0,0.0,0.0,0.0,0.0,0.0,0.0,0.0,0.0,0.0,0.0,0.0,0.0,0.0,0.0,0.0,0.0,0.0,0.0,0.0,0.0,0.0,0.0,0.0,0.0,0.0,0.0,0.0,0.0,0.0,0.0,0.0,0.0,0.0,0.0,0.0,0.0,-1.2547,-1.3201,-1.4365,-1.4493,-1.4458,-1.435,-1.4387,-1.4422,-1.4509,-1.3052,0.0,0.0,0.0,0.0,0.0,0.0,0.0,0.0,0.0,0.0,0.0,0.0,0.0,0.0,0.0,0.0,0.0,0.0,0.0,0.0,0.0,0.0,0.0,0.0,0.0,0.0,0.0,0.0,0.0,0.0,0.0,0.0,0.0,0.0,0.0,0.0,0.0,0.0,0.0,0.0,0.0,0.0,0.0,0.0,0.0,0.0,0.0,0.0,0.0,0.0,0.0,0.0,0.0,0.0,0.0,0.0,0.0,0.0,0.0,0.0,0.0,0.0,0.0,0.0,0.0,0.0,0.0,0.0,0.0,0.0,0.0,0.0,0.0,0.0,0.0,0.0,0.0,0.0,0.0,0.0,0.0,0.0,0.0,0.0,0.0,0.0,0.0,0.0,0.0,0.0,0.0,0.0,0.0,0.0,0.0,0.0,0.0,0.0,0.0,0.0,0.0,0.0,-1.3305,-1.3752,-1.4332,-1.4429,-1.4411,-1.4282,-1.4313,-1.4399,-1.4522,-1.2993,0.0,0.0,0.0,0.0,0.0,0.0,0.0,0.0,0.0,0.0,0.0,0.0,0.0,0.0,0.0,0.0,0.0,0.0,0.0,0.0,0.0,0.0,0.0,0.0,0.0,0.0,0.0,0.0,0.0,0.0,0.0,0.0,0.0,0.0,0.0,0.0,0.0,0.0,0.0,0.0,0.0,0.0,0.0,0.0,0.0,0.0,0.0,0.0,0.0,0.0,0.0,0.0,0.0,0.0,0.0,0.0,0.0,0.0,0.0,0.0,0.0,0.0,0.0,0.0,0.0,0.0,0.0,0.0,0.0,0.0,0.0,0.0,0.0,0.0,0.0,0.0,0.0,0.0,0.0,0.0,0.0,0.0,0.0,0.0,0.0,0.0,0.0,0.0,0.0,0.0,0.0,0.0,0.0,0.0,0.0,0.0,0.0,0.0,0.0,0.0,0.0,0.0,-1.3304,-1.4189,-1.4136,-1.4236,-1.4205,-1.3963,-1.4043,-1.4177,-1.4312,-1.2873,0.0,0.0,0.0,0.0,0.0,0.0,0.0,0.0,0.0,0.0,0.0,0.0,0.0,0.0,0.0,0.0,0.0,0.0,0.0,0.0,0.0,0.0,0.0,0.0,0.0,0.0,0.0,0.0,0.0,0.0,0.0,0.0,0.0,0.0,0.0,0.0,0.0,0.0,0.0,0.0,0.0,0.0,0.0,0.0,0.0,0.0,0.0,0.0,0.0,0.0,0.0,0.0,0.0,0.0,0.0,0.0,0.0,0.0,0.0,0.0,0.0,0.0,0.0,0.0,0.0,0.0,0.0,0.0,0.0,0.0,0.0,0.0,0.0,0.0,0.0,0.0,0.0,0.0,0.0,0.0,0.0,0.0,0.0,0.0,0.0,0.0,0.0,0.0,0.0,0.0,0.0,0.0,0.0,0.0,0.0,0.0,0.0,0.0,0.0,0.0,0.0,0.0,-1.31,-1.3606,0.0,-1.4154,-1.4123,-1.397,-1.4016,-1.4132,-1.4356,0.0,0.0,0.0,0.0,0.0,0.0,0.0,0.0,0.0,0.0,0.0,0.0,0.0,0.0,0.0,0.0,0.0,0.0,0.0,0.0,0.0,0.0,0.0,0.0,0.0,0.0,0.0,0.0,0.0,0.0,0.0,0.0,0.0,0.0,0.0,0.0,0.0,0.0,0.0,0.0,0.0,0.0,0.0,0.0,0.0,0.0,0.0,0.0,0.0,0.0,0.0,0.0,0.0,0.0,0.0,0.0,0.0,0.0,0.0,0.0,0.0,0.0,0.0,0.0,0.0,0.0,0.0,0.0,0.0,0.0,0.0,0.0,0.0,0.0,0.0,0.0,0.0,0.0,0.0,0.0,0.0,0.0,0.0,0.0,0.0,0.0,0.0,0.0,0.0,0.0,0.0,0.0,0.0,0.0,0.0,0.0,0.0,0.0,0.0,0.0,0.0,0.0,-1.2477,-1.2941,-1.3382,0.0,-1.3984,-1.3874,-1.3584,-1.3581,-1.3572,-1.3587,0.0,0.0,0.0,0.0,0.0,0.0,0.0,0.0,0.0,0.0,0.0,0.0,0.0,0.0,0.0,0.0,0.0,0.0,0.0,0.0,0.0,0.0,0.0,0.0,0.0,0.0,0.0,0.0,0.0,0.0,0.0,0.0,0.0,0.0,0.0,0.0,0.0,0.0,0.0,0.0,0.0,0.0,0.0,0.0,0.0,0.0,0.0,0.0,0.0,0.0,0.0,0.0,0.0,0.0,0.0,0.0,0.0,0.0,0.0,0.0,0.0,0.0,0.0,0.0,0.0,0.0,0.0,0.0,0.0,0.0,0.0,0.0,0.0,0.0,0.0,0.0,0.0,0.0,0.0,0.0,0.0,0.0,0.0,0.0,0.0,0.0,0.0,0.0,0.0,0.0,0.0,0.0,0.0,0.0,0.0,0.0,0.0,0.0,0.0,0.0,0.0,0.0,-1.1588,-1.2877,-1.3734,-1.3603,-1.3711,-1.3466,-1.2666,-1.2651,-1.2447,0.0,0.0,0.0,0.0,0.0,0.0,0.0,0.0,0.0,0.0,0.0,0.0,0.0,0.0,0.0,0.0,0.0,0.0,0.0,0.0,0.0,0.0,0.0,0.0,0.0,0.0,0.0,0.0,0.0,0.0,0.0,0.0,0.0,0.0,0.0,0.0,0.0,0.0,0.0,0.0,0.0,0.0,0.0,0.0,0.0,0.0,0.0,0.0,0.0,0.0,0.0,0.0,0.0,0.0,0.0,0.0,0.0,0.0,0.0,0.0,0.0,0.0,0.0,0.0,0.0,0.0,0.0,0.0,0.0,0.0,0.0,0.0,0.0,0.0,0.0,0.0,0.0,0.0,0.0,0.0,0.0,0.0,0.0,0.0,0.0,0.0,0.0,0.0,0.0,0.0,0.0,0.0,0.0,0.0,0.0,0.0,0.0,0.0,0.0,0.0,0.0,0.0,0.0,-1.1594,-1.1931,-1.229,-1.2766,-1.2865,-1.2814,-1.2624,-1.2651,-1.2447,-1.1839,0.0,0.0,0.0,0.0,0.0,0.0,0.0,0.0,0.0,0.0,0.0,0.0,0.0,0.0,0.0,0.0,0.0,0.0,0.0,0.0,0.0,0.0,0.0,0.0,0.0,0.0,0.0,0.0,0.0,0.0,0.0,0.0,0.0,0.0,0.0,0.0,0.0,0.0,0.0,0.0,0.0,0.0,0.0,0.0,0.0,0.0,0.0,0.0,0.0,0.0,0.0,0.0,0.0,0.0,0.0,0.0,0.0,0.0,0.0,0.0,0.0,0.0,0.0,0.0,0.0,0.0,0.0,0.0,0.0,0.0,0.0,0.0,0.0,0.0,0.0,0.0,0.0,0.0,0.0,0.0,0.0,0.0,0.0,0.0,0.0,0.0,0.0,0.0,0.0,0.0,0.0,0.0,0.0,0.0,0.0,0.0,0.0,0.0,0.0,0.0,0.0,0.0,-1.1104,-1.1565,-1.2006,-1.2455,-1.2507,-1.2407,-1.2133,-1.1903,-1.1494,-1.083,0.0,0.0,0.0,0.0,0.0,0.0,0.0,0.0,0.0,0.0,0.0,0.0,0.0,0.0,0.0,0.0,0.0,0.0,0.0,0.0,0.0,0.0,0.0,0.0,0.0,0.0,0.0,0.0,0.0,0.0,0.0,0.0,0.0,0.0,0.0,0.0,0.0,0.0,0.0,0.0,0.0,0.0,0.0,0.0,0.0,0.0,0.0,0.0,0.0,0.0,0.0,0.0,0.0,0.0,0.0,0.0,0.0,0.0,0.0,0.0,0.0,0.0,0.0,0.0,0.0,0.0,0.0,0.0,0.0,0.0,0.0,0.0,0.0,0.0,0.0,0.0,0.0,0.0,0.0,0.0,0.0,0.0,0.0,0.0,0.0,0.0,0.0,0.0,0.0,0.0,0.0,0.0,0.0,0.0,0.0,0.0,0.0,0.0,0.0,0.0,0.0,0.0,-1.0265,-1.1466,-1.23,-1.23,-1.2352,-1.2106,-1.136,-1.0761,-1.0098,-0.9338,0.0,0.0,0.0,0.0,0.0,0.0,0.0,0.0,0.0,0.0,0.0,0.0,0.0,0.0,0.0,0.0,0.0,0.0,0.0,0.0,0.0,0.0,0.0,0.0,0.0,0.0,0.0,0.0,0.0,0.0,0.0,0.0,0.0,0.0,0.0,0.0,0.0,0.0,0.0,0.0,0.0,0.0,0.0,0.0,0.0,0.0,0.0,0.0,0.0,0.0,0.0,0.0,0.0,0.0,0.0,0.0,0.0,0.0,0.0,0.0,-1.0344,0.0,0.0,0.0,0.0,0.0,0.0,0.0,0.0,0.0,0.0,0.0,0.0,0.0,0.0,0.0,0.0,0.0,0.0,0.0,0.0,0.0,0.0,0.0,0.0,0.0,0.0,0.0,0.0,0.0,0.0,0.0,0.0,0.0,0.0,0.0,0.0,0.0,0.0,0.0,0.0,0.0,-0.9442,-1.0181,-1.0687,-1.0687,-1.1263,-1.1335,-1.0603,-1.0446,-1.0084,-0.9338,-0.932,0.0,0.0,0.0,0.0,0.0,0.0,0.0,0.0,0.0,0.0,0.0,0.0,0.0,0.0,0.0,0.0,0.0,0.0,0.0,0.0,0.0,0.0,0.0,0.0,0.0,0.0,0.0,0.0,0.0,0.0,0.0,0.0,0.0,0.0,0.0,0.0,0.0,0.0,0.0,0.0,0.0,0.0,0.0,0.0,0.0,0.0,0.0,0.0,0.0,0.0,0.0,0.0,0.0,0.0,0.0,0.0,0.0,0.0,0.0,0.0,-1.1606,0.0,0.0,0.0,0.0,0.0,0.0,0.0,0.0,0.0,0.0,0.0,0.0,0.0,0.0,0.0,0.0,0.0,0.0,0.0,0.0,0.0,0.0,0.0,0.0,0.0,0.0,0.0,0.0,0.0,0.0,0.0,0.0,0.0,0.0,0.0,0.0,0.0,0.0,0.0,0.0,-0.9588,-0.9962,-1.0186,-1.0155,-1.0559,-1.0676,-1.0285,-0.9966,-0.9619,-0.9274,-0.9226,0.0,0.0,0.0,0.0,0.0,0.0,0.0,0.0,0.0,0.0,0.0,0.0,0.0,0.0,0.0,0.0,0.0,0.0,0.0,0.0,0.0,0.0,0.0,0.0,0.0,0.0,0.0,0.0,0.0,0.0,0.0,0.0,0.0,0.0,0.0,0.0,0.0,0.0,0.0,0.0,0.0,0.0,0.0,0.0,0.0,0.0,0.0,0.0,0.0,0.0,0.0,0.0,0.0,-1.2155,-1.268,-1.3937,-1.2802,-1.292,-1.3958,-1.3215,-1.3192,-1.3641,-1.2839,0.0,0.0,0.0,0.0,0.0,0.0,0.0,0.0,0.0,0.0,0.0,0.0,0.0,0.0,0.0,0.0,0.0,0.0,0.0,0.0,0.0,0.0,0.0,0.0,-1.02,-1.0224,0.0,0.0,0.0,0.0,0.0,0.0,0.0,0.0,0.0,0.0,0.0,0.0,-0.9941,-1.0107,-1.0075,-0.99,-1.0087,-1.0157,-1.0042,-0.9478,-0.9156,-0.9204,-0.9163,-0.8855,0.0,0.0,0.0,0.0,0.0,0.0,0.0,0.0,0.0,0.0,0.0,0.0,0.0,0.0,0.0,0.0,0.0,0.0,0.0,0.0,0.0,0.0,0.0,0.0,0.0,0.0,0.0,0.0,0.0,0.0,0.0,0.0,-0.3681,-0.523,0.0,0.0,0.0,0.0,0.0,0.0,0.0,0.0,0.0,0.0,0.0,0.0,0.0,-1.1556,-1.1718,-1.3087,-1.3901,-1.4182,-1.4815,-1.5097,-1.5088,-1.5073,-1.4956,-1.476,-1.481,0.0,-1.3673,-1.2311,0.0,0.0,0.0,0.0,0.0,0.0,0.0,0.0,0.0,0.0,0.0,0.0,0.0,0.0,0.0,0.0,0.0,0.0,0.0,0.0,0.0,0.0,-1.0289,-1.0791,-1.0958,-1.081,0.0,-1.02,-1.0282,-0.9625,-0.9493,0.0,0.0,0.0,0.0,0.0,0.0,0.0,-0.968,-0.9865,-0.9718,-0.9117,-0.9737,-0.9968,-0.9388,-0.9302,-0.9281,-0.9285,-0.9224,-0.9199,-0.9214,-0.9104,0.0,0.0,0.0,0.0,0.0,0.0,0.0,0.0,0.0,0.0,0.0,0.0,0.0,0.0,0.0,0.0,0.0,0.0,0.0,0.0,0.0,0.0,0.0,0.0,0.0,0.0,0.0,0.0,0.0,-0.2842,-0.4077,-0.5784,-0.6329,-0.6899,0.0,0.0,0.0,0.0,0.0,0.0,0.0,0.0,0.0,-1.0427,-1.1907,-1.2699,-1.2669,-1.3701,-1.4238,-1.4341,-1.4874,-1.5102,-1.5033,-1.5317,-1.5327,-1.5123,-1.5218,-1.5017,-1.456,-1.3464,-1.3093,-1.3129,0.0,0.0,0.0,0.0,-1.2266,-1.2723,-1.2315,-1.1835,0.0,-1.148,0.0,0.0,0.0,0.0,0.0,0.0,0.0,0.0,0.0,0.0,-1.0879,-1.1069,-1.1103,-1.1026,-1.0734,-1.1094,-1.1097,0.0,-0.9455,-0.9437,-0.9256,0.0,0.0,0.0,0.0,-0.9549,-0.9782,-0.9594,-0.9281,-0.8834,-0.923,-0.9384,-0.901,-0.9046,-0.9076,-0.9078,-0.9052,-0.9057,-0.9121,-0.9128,-0.9014,0.0,0.0,0.0,0.0,0.0,0.0,0.0,0.0,0.0,0.0,0.0,0.0,0.0,0.0,0.0,0.0,0.0,0.0,0.0,0.0,0.0,0.0,0.0,0.0,0.0,0.0,0.0,0.0,-0.3466,-0.447,-0.6126,-0.6903,-0.761,0.0,0.0,0.0,0.0,0.0,0.0,-1.0455,-1.1216,-1.1634,-1.1728,-1.3005,-1.3635,-1.3527,-1.4221,-1.4586,-1.4631,-1.5121,-1.5351,-1.5379,-1.5704,-1.584,-1.5758,-1.5796,-1.5785,-1.5676,-1.4575,-1.421,-1.4277,-1.3485,-1.3344,-1.3599,-1.345,-1.361,-1.3849,-1.3575,-1.3055,-1.2542,-1.2648,-1.2134,-1.153,-1.1735,0.0,0.0,0.0,0.0,-1.2787,-1.1497,-1.1635,-1.2046,-1.1711,-1.1641,-1.1595,-1.141,-1.1805,-1.1716,0.0,-0.9797,-0.9741,-0.9438,0.0,0.0,0.0,0.0,-1.0139,-1.03,-0.9847,-0.9375,-0.8992,-0.9103,-0.91,-0.8856,-0.888,-0.8919,-0.8936,-0.8931,-0.8931,-0.8931,-0.9029,-0.9087,-0.91,0.0,0.0,0.0,0.0,0.0,0.0,0.0,0.0,0.0,0.0,0.0,0.0,0.0,0.0,0.0,0.0,0.0,0.0,0.0,0.0,0.0,0.0,0.0,0.0,0.0,0.0,0.0,0.0,0.0,-0.6552,-0.7383,0.0,0.0,0.0,0.0,-1.0183,-0.9875,-1.0234,-1.155,-1.1957,-1.2399,-1.289,-1.3739,-1.4248,-1.4428,-1.5157,-1.5627,-1.5814,-1.6666,-1.7003,-1.6892,-1.7245,-1.725,-1.7019,-1.7137,-1.7129,-1.6857,-1.4967,-1.4191,-1.4134,-1.3392,-1.3534,-1.4141,-1.4015,-1.4839,-1.5923,-1.5098,-1.4789,-1.4745,-1.4756,-1.426,-1.3745,-1.432,-1.4069,0.0,0.0,-1.4372,-1.433,-1.4065,-1.4021,-1.3894,-1.3263,-1.3082,-1.2924,-1.2277,-1.2169,-1.1953,0.0,-1.1004,-1.107,-1.1248,0.0,-1.063,-1.1401,-1.0962,-1.0784,-1.1426,-1.0986,-1.0366,-0.9715,-0.9716,-0.9528,-0.8948,-0.8953,-0.8992,-0.8992,-0.8992,-0.8992,-0.8992,-0.9007,-0.9027,-0.9104,-0.9097,0.0,0.0,0.0,0.0,0.0,0.0,0.0,0.0,0.0,0.0,0.0,0.0,0.0,0.0,0.0,0.0,0.0,0.0,0.0,0.0,0.0,0.0,0.0,0.0,0.0,0.0,0.0,0.0,-0.7167,-0.7708,0.0,-0.9325,-0.9359,-0.9873,-1.1234,-1.0878,-1.1198,-1.2586,-1.2932,-1.3427,-1.4149,-1.46,-1.5091,-1.5588,-1.6284,-1.668,-1.6747,-1.7662,-1.8093,-1.8091,-1.8397,-1.8491,-1.8454,-1.8505,-1.8491,-1.8405,-1.77,-1.6599,-1.5294,-1.4538,-1.4418,-1.4647,-1.4604,-1.4903,-1.532,-1.501,-1.4907,-1.4896,-1.4901,-1.4624,-1.4433,-1.5023,-1.4962,-1.4713,-1.4897,-1.495,-1.4829,-1.4326,-1.4206,-1.4144,-1.3898,-1.3836,-1.3652,-1.2985,-1.2847,-1.2647,-1.1928,-1.141,-1.0992,-1.0676,-1.0745,-1.0859,-1.0819,-1.1021,-1.1128,-1.0985,-1.088,-1.0695,-1.0382,-1.0407,-1.0159,-0.9474,-0.952,-0.9355,-0.8845,-0.8886,-0.8891,-0.8811,-0.8435,-0.8464,-0.8957,-0.8096,-0.787,0.0,0.0,0.0,0.0,0.0,0.0,0.0,0.0,0.0,0.0,0.0,0.0,0.0,0.0,0.0,0.0,0.0,0.0,0.0,0.0,0.0,0.0,0.0,0.0,0.0,0.0,-0.5861,-0.7088,-0.8065,-0.8946,-0.9752,-1.0072,-1.0766,-1.2003,-1.1828,-1.2242,-1.3628,-1.39,-1.45,-1.5577,-1.5788,-1.6194,-1.687,-1.7316,-1.7546,-1.7546,-1.8236,-1.862,-1.8708,-1.8944,-1.9119,-1.92,-1.92,-1.92,-1.92,-1.92,-1.8359,-1.7034,-1.6536,-1.6354,-1.631,-1.596,-1.5843,-1.5799,-1.546,-1.5392,-1.5439,-1.5471,-1.5376,-1.5346,-1.5754,-1.5741,-1.5571,-1.5531,-1.5547,-1.5439,-1.4993,-1.487,-1.4821,-1.459,-1.4544,-1.436,-1.3682,-1.3529,-1.3417,-1.297,-1.2113,-1.1337,-1.0952,-1.1218,-1.1457,-1.1419,-1.162,-1.1746,-1.1649,-1.1546,-1.136,-1.1075,-1.1091,-1.0753,-0.9779,-1.0017,-0.9769,-0.8771,-0.9249,-0.9428,-0.9081,-0.8683,-0.87,-0.9199,-0.8073,-0.8116,-0.9395,0.0,0.0,0.0,0.0,0.0,0.0,0.0,0.0,0.0,0.0,0.0,0.0,0.0,0.0,0.0,0.0,0.0,0.0,0.0,0.0,0.0,0.0,0.0,-0.4117,-0.5335,-0.6244,-0.6366,-0.8442,-0.9788,-0.9558,-1.0724,-1.1789,-1.2481,-1.265,-1.3304,-1.4628,-1.4797,-1.5565,-1.7118,-1.7209,-1.7531,-1.8191,-1.8222,-1.8238,-1.8238,-1.8454,-1.8622,-1.8772,-1.8966,-1.914,-1.9281,-1.9281,-1.9267,-1.9236,-1.9236,-1.9236,-1.9236,-1.9202,-1.92,-1.9076,-1.8105,-1.7741,-1.7588,-1.6608,-1.6386,-1.6532,-1.6586,-1.6599,-1.6583,-1.6583,-1.645,-1.6274,-1.6207,-1.6194,-1.6194,-1.6194,-1.6194,-1.6039,-1.5393,-1.5224,-1.5055,-1.4375,-1.4236,-1.4236,-1.4206,-1.3155,-1.2272,-1.2231,-1.22,-1.2463,-1.3245,-1.2749,0.0,-1.3542,-1.3039,-1.2396,-1.1832,-1.183,-1.1303,-0.9919,-1.0431,-1.0246,-0.8848,-1.0097,-1.0541,-0.9835,-0.9779,-0.9746,-0.9729,-0.9155,-0.9238,-0.9967,0.0,0.0,0.0,0.0,0.0,0.0,0.0,0.0,0.0,0.0,0.0,0.0,0.0,0.0,0.0,0.0,0.0,0.0,0.0,0.0,0.0,0.0,-0.4809,-0.5269,-0.5873,-0.6717,-0.7904,-0.8714,-0.9536,-1.0427,-1.1154,-1.1942,-1.2869,-1.3266,-1.3837,-1.4666,-1.5367,-1.5957,-1.6386,-1.7206,-1.7726,-1.7907,-1.8634,-1.8993,-1.9008,-1.965,-2.0048,-2.0241,-2.0432,-2.0604,-2.0726,-2.0726,-2.0588,-2.0369,-2.0369,-2.0194,-1.989,-1.9386,-1.92,-1.9155,-1.882,-1.854,-1.8229,-1.7968,-1.7461,-1.6942,-1.6957,-1.6604,-1.6163,-1.6163,-1.6052,-1.5955,-1.6025,-1.6053,-1.6081,-1.618,-1.6194,-1.6162,-1.5964,-1.5931,-1.5747,-1.507,-1.4932,-1.4778,-1.4286,-1.3898,-1.3498,-1.3016,-1.2523,-1.2282,-1.2505,-1.235,0.0,-1.2711,-1.2675,-1.2764,-1.3173,-1.3278,-1.2971,-1.2088,-1.172,-1.1163,-1.0345,-1.017,-1.0011,-0.9819,-0.9286,-0.8744,-0.8221,-0.9645,-0.9994,0.0,0.0,0.0,0.0,0.0,0.0,0.0,0.0,0.0,0.0,0.0,0.0,0.0,0.0,0.0,0.0,0.0,0.0,0.0,0.0,0.0,0.0,-0.4688,-0.5225,-0.6126,-0.6742,-0.744,-0.8383,-0.9308,-1.0194,-1.1034,-1.164,-1.2334,-1.3197,-1.357,-1.4173,-1.5099,-1.5752,-1.6405,-1.704,-1.7722,-1.8199,-1.8467,-1.9045,-1.9398,-1.9518,-2.0071,-2.041,-2.0562,-2.076,-2.0859,-2.0828,-2.0828,-2.073,-2.0562,-2.0562,-2.0412,0.0,0.0,0.0,0.0,0.0,-1.8516,-1.7957,-1.7957,-1.7652,-1.7257,-1.7303,-1.7076,-1.6743,-1.6454,-1.6306,-1.6158,-1.5916,-1.5826,-1.584,-1.5898,-1.5912,-1.5912,-1.5912,-1.5912,-1.5806,-1.54,-1.5324,-1.5204,-1.4826,-1.4524,0.0,-1.3817,-1.3122,-1.2719,-1.303,-1.2576,-1.235,-1.2759,-1.2698,-1.2772,-1.3251,-1.3384,-1.3164,-1.2495,-1.2332,0.0,0.0,0.0,-1.0442,-0.9835,-0.9385,0.0,0.0,0.0,0.0,0.0,0.0,0.0,0.0,-0.9458,-0.9025,0.0,0.0,0.0,0.0,0.0,0.0,0.0,0.0,0.0,0.0,0.0,0.0,0.0,0.0,0.0,0.0,-0.4915,-0.5521,-0.6885,-0.7817,-0.8364,-0.8396,-1.0001,-1.1211,-1.1451,-1.2124,-1.2791,-1.3412,-1.3663,-1.4336,-1.5621,0.0,0.0,0.0,0.0,-1.8749,-1.9339,-1.9376,-1.9527,-1.9767,-1.996,-2.01,-2.0156,-2.0359,-2.0359,-2.0191,-2.0191,-2.0174,-2.0139,-2.0139,-2.0122,-2.0087,-2.0174,-2.0191,-2.0095,-1.9193,-1.8265,-1.7452,-1.7452,0.0,0.0,-1.7657,-1.7727,-1.7705,-1.712,-1.6849,-1.6578,-1.5891,-1.5654,-1.558,-1.5522,-1.5507,-1.5507,-1.5492,-1.5492,-1.5492,-1.5492,-1.5492,-1.5492,-1.5492,-1.5021,-1.461,-1.461,-1.3845,-1.3421,-1.4011,-1.3043,-1.2478,-1.3118,-1.2801,-1.255,-1.2643,0.0,0.0,-1.2015,-1.2497,-1.2037,-1.0154,-1.1274,-1.1412,-1.0094,-1.0044,-1.0011,-0.9928,-1.0094,-1.074,-1.1876,-1.2094,-1.2157,-1.2032,-1.0352,-0.9491,0.0,0.0,0.0,0.0,0.0,0.0,0.0,0.0,0.0,0.0,0.0,0.0,0.0,0.0,0.0,-0.6211,-0.6472,-0.6893,-0.8032,-0.8795,-0.9359,-0.9624,-1.0147,-1.088,-1.1876,-1.2431,-1.2855,-1.3163,-1.385,-1.4511,-1.5048,-1.6132,-1.7015,-1.7585,-1.8378,-1.8858,-1.9007,-1.9265,-1.9431,-1.9472,0.0,0.0,-1.9877,-2.0083,-2.0187,-2.0191,-2.0191,-2.005,-1.98,-1.98,-1.9603,-1.9369,-1.9965,-2.0172,-2.0102,-1.9895,-1.9497,-1.9069,-1.9069,-1.862,-1.8083,-1.8069,-1.7739,-1.732,-1.7188,-1.6764,0.0,-1.6331,-1.5949,-1.5536,-1.558,-1.558,-1.558,-1.5507,-1.5492,-1.5492,-1.5492,-1.5492,-1.5492,-1.5492,-1.5404,-1.5315,-1.5315,-1.4267,-1.3329,-1.2975,-1.2695,-1.2406,-1.2073,-1.203,-1.2248,-1.2871,-1.3042,-1.3093,-1.301,-1.2633,-1.2342,-1.2124,-1.2049,-1.1876,-1.1594,-1.1578,-1.1296,-1.0707,-1.1859,-1.2025,-1.1114,-1.1834,-1.1895,-1.1323,-1.1741,-1.1566,0.0,0.0,0.0,0.0,0.0,0.0,0.0,0.0,0.0,0.0,0.0,-0.3914,-0.4794,0.0,-0.5265,-0.6382,-0.655,-0.6937,-0.8045,-0.8481,-0.9032,-0.9892,-1.0467,-1.1144,-1.2018,-1.2401,-1.2733,-1.3072,-1.3935,-1.4639,-1.5084,-1.6195,-1.6998,-1.7282,-1.7798,-1.8127,-1.8305,-1.85,-1.8765,-1.9101,-1.9291,-1.9439,-1.9548,-1.969,-1.9711,-1.966,-1.966,-1.9551,-1.9398,-1.9398,-1.9288,-1.9139,-1.9515,-1.9624,-1.9603,-1.9603,-1.9475,-1.9291,-1.9291,-1.9009,-1.8651,-1.8651,-1.8433,-1.81,-1.7795,-1.7243,-1.6648,-1.639,-1.5838,-1.5344,-1.5314,-1.5269,-1.5239,-1.5208,-1.5178,-1.5148,-1.5148,-1.5148,-1.5148,-1.5148,-1.5148,-1.5148,-1.5148,-1.4616,-1.4039,-1.3614,-1.3018,-1.2482,-1.2189,-1.2021,-1.2091,-1.2464,-1.2593,-1.2657,-1.269,-1.2112,-1.1854,-1.2134,-1.1611,-1.1335,-1.1445,-1.1445,-1.1287,-1.0906,-1.1628,-1.1826,-1.1445,-1.1889,-1.2137,-1.22,-1.2753,-1.2383,0.0,0.0,0.0,0.0,0.0,0.0,0.0,0.0,-0.3293,-0.365,-0.412,-0.467,-0.5371,-0.5489,-0.5673,-0.6322,-0.6407,-0.6805,-0.795,-0.8106,-0.8585,-0.9876,-1.066,-1.1338,-1.1884,-1.215,-1.252,-1.3067,-1.3957,-1.4723,-1.5325,-1.6238,-1.6863,-1.7152,-1.7199,-1.7344,-1.7598,-1.7659,-1.7988,-1.8592,-1.8674,-1.8821,-1.9011,-1.9008,-1.8948,-1.8822,-1.8841,-1.8841,-1.8841,-1.8841,-1.8841,-1.8841,-1.8841,-1.8841,-1.886,-1.9045,-1.9101,-1.9101,-1.9101,-1.9101,-1.9101,-1.9101,-1.9101,-1.9014,-1.8521,-1.7824,-1.7081,-1.6478,-1.5784,-1.5193,-1.5073,-1.5011,-1.4963,-1.4932,-1.4872,-1.4841,-1.4841,-1.4825,-1.4824,-1.4824,-1.4808,-1.4808,-1.4808,-1.4871,-1.4796,-1.4456,-1.3531,-1.2851,-1.2731,-1.2439,-1.2204,-1.2069,-1.2115,-1.2119,-1.2018,-1.1645,-1.1484,-1.1687,-1.1307,-1.114,-1.1258,-1.1314,-1.1329,-1.1329,-1.1329,-1.1611,-1.2207,-1.2232,-1.2615,-1.3295,-1.3404,-1.2837,-0.1798,-0.1775,-0.1921,-0.2579,-0.2443,-0.2378,0.0,0.0,-0.3533,-0.4676,-0.4975,-0.5245,-0.6041,-0.6149,-0.6329,-0.7066,-0.7175,-0.7578,-0.8716,-0.8876,-0.9187,-0.9992,-1.0283,-1.0668,-1.1338,-1.1682,-1.2242,-1.3118,-1.3891,-1.4693,-1.5519,-1.6183,-1.668,-1.7013,-1.7144,-1.722,-1.7261,-1.7261,-1.7455,-1.7828,-1.7474,-1.7559,-1.7954,-1.7729,-1.7708,-1.7848,-1.7908,-1.7948,-1.7948,-1.7948,-1.7948,-1.7948,-1.7948,-1.7948,-1.8028,-1.8803,-1.9101,-1.9101,-1.9101,-1.9101,-1.9101,-1.9101,-1.9101,-1.9087,-1.9029,-1.8158,-1.7168,-1.711,-1.6211,-1.5268,-1.5193,-1.5162,-1.5132,-1.5027,-1.4982,-1.4982,-1.4982,-1.492,-1.4886,-1.4886,-1.4839,-1.4808,-1.4808,-1.4871,-1.4705,-1.414,-1.3984,-1.3739,-1.3206,-1.3155,-1.2932,-1.233,-1.2332,-1.2171,-1.1704,-1.1978,-1.2137,-1.2051,-1.2532,-1.2756,-1.2595,-1.2765,-1.2844,-1.2844,-1.2844,-1.2894,-1.2977,-1.31,-1.3194,-1.3295,-1.3485,-1.3489,-0.1612,-0.1808,-0.2015,0.0,-0.2452,-0.2549,-0.297,-0.3429,-0.3915,-0.4369,-0.4774,-0.5252,-0.5933,-0.5946,-0.6136,0.0,-0.712,-0.7386,-0.8141,-0.8431,-0.8805,-0.9388,-0.9763,-1.0351,-1.1394,-1.1799,-1.2413,-1.3307,-1.4123,-1.4779,-1.5228,-1.5975,-1.6367,-1.6293,-1.6358,-1.6488,-1.6667,-1.6744,-1.6955,-1.7284,-1.7202,-1.7297,-1.7497,-1.747,-1.7577,-1.776,-1.7787,-1.7787,-1.7787,-1.7787,-1.7787,-1.7787,-1.7787,-1.7787,-1.7828,-1.8206,-1.8344,-1.8344,-1.8344,-1.8344,-1.8344,-1.8344,-1.8344,-1.8344,-1.8344,-1.7479,-1.6501,-1.6501,-1.5636,-1.4761,-1.4917,-1.4948,-1.4948,-1.5087,-1.5058,-1.4997,-1.495,-1.4918,-1.4902,-1.4902,-1.4886,-1.4871,-1.4871,-1.4979,-1.4956,-1.4639,-1.4298,-1.4013,-1.3769,-1.3478,-1.3214,-1.2979,-1.263,-1.2308,-1.2082,-1.1952,-1.1927,-1.198,-1.2433,-1.2716,-1.2747,-1.2968,-1.3093,-1.3093,-1.3093,-1.3093,-1.3093,-1.3164,-1.3226,-1.3295,-1.332,-1.3574,-0.1482,-0.1781,0.0,-0.2273,-0.249,-0.2679,-0.2816,-0.352,-0.4131,-0.4097,-0.4557,-0.5109,-0.5591,-0.5628,-0.5863,-0.6616,-0.6818,-0.7072,-0.7626,-0.8041,-0.8467,-0.8935,-0.9486,-1.0196,-1.1169,-1.1579,-1.2237,-1.3375,-1.4111,-1.47,-1.5181,-1.5825,-1.6054,-1.5814,-1.5792,-1.5913,-1.6151,-1.625,-1.6488,-1.6803,-1.678,-1.692,-1.7255,-1.7323,-1.7371,-1.74,-1.7421,-1.7441,-1.7441,-1.7441,-1.7441,-1.7441,-1.7441,-1.7441,-1.7441,-1.7441,-1.7585,-1.7787,-1.7787,-1.7787,-1.7787,-1.7787,-1.7787,-1.7787,-1.7787,-1.6967,-1.5992,-1.5992,-1.5182,-1.4365,-1.4604,-1.4636,-1.4651,-1.4886,-1.4887,-1.4796,-1.4747,-1.47,-1.4671,-1.4669,-1.4732,-1.4779,-1.4779,-1.501,-1.5162,-1.5073,-1.4701,-1.4429,-1.4429,-1.3938,-1.3588,-1.3643,-1.2903,-1.2412,-1.2437,-1.1994,-1.1755,-1.1837,-1.2205,-1.2487,-1.2636,-1.2885,-1.3048,-1.3093,-1.3093,-1.3093,-1.3093,-1.3093,-1.3155,-1.3243,-1.3166,-1.3567,-0.1507,0.0,-0.1791,-0.2501,-0.2592,-0.2674,-0.3333,-0.3756,-0.4054,-0.4254,-0.4622,-0.4945,-0.5096,-0.539,-0.5706,-0.6066,-0.6408,-0.686,-0.7597,-0.8041,-0.8467,-0.8935,-0.9646,-1.0176,0.0,-1.0582,-1.1418,-1.3268,-1.3601,-1.4331,-1.5686,-1.5802,-1.5814,-1.5792,-1.5792,-1.5792,-1.5814,-1.5814,-1.5988,-1.6333,-1.5865,-1.6165,-1.7107,-1.7041,-1.6814,-1.6436,-1.6522,-1.6531,-1.6531,-1.6531,-1.6531,-1.6531,-1.6531,-1.6531,-1.6531,-1.6531,-1.7068,-1.7787,-1.7787,-1.7787,-1.7787,-1.7787,-1.7787,-1.7787,-1.7787,-1.6967,-1.5992,-1.5992,-1.5182,-1.43,-1.4316,-1.4316,-1.4316,-1.4332,-1.4319,-1.4332,-1.4332,-1.4225,-1.4114,-1.4035,-1.4294,-1.4485,-1.4422,-1.4842,-1.5207,-1.5193,-1.5224,-1.5269,-1.5269,-1.4674,-1.4268,-1.4268,-1.3152,-1.2437,-1.2497,-1.2183,-1.1917,-1.1714,-1.22,-1.2506,-1.2516,-1.27,-1.2904,-1.3093,-1.3093,-1.3093,-1.3093,-1.3093,-1.3093,-1.3102,-1.3174,-1.3558,-0.0994,0.0,-0.1607,-0.1902,-0.221,-0.2508,-0.2771,-0.3365,-0.3843,-0.3783,-0.4094,-0.4469,-0.4769,-0.5047,-0.5435,-0.6117,-0.6431,-0.6754,-0.7169,-0.762,-0.7951,-0.8116,-0.8857,0.0,0.0,0.0,0.0,-1.2885,-1.3055,-1.3603,-1.4733,-1.5142,-1.5164,-1.4812,-1.5446,-1.5659,-1.5334,-1.5637,-1.6027,-1.6501,-1.6331,-1.6495,-1.6881,-1.6596,-1.6448,-1.6392,-1.6129,-1.6207,-1.6457,-1.5834,-1.5944,-1.6466,-1.6151,-1.6228,-1.65,-1.65,-1.668,-1.6934,-1.6934,-1.6934,-1.6934,-1.6934,-1.6934,-1.6934,-1.6934,-1.6156,-1.5272,-1.5272,-1.4441,-1.3628,-1.3832,-1.3898,-1.3964,-1.4238,-1.43,-1.427,-1.4192,-1.413,-1.4084,-1.4068,-1.4165,-1.423,-1.4198,-1.4417,-1.4683,-1.4902,-1.5132,-1.5298,-1.5298,-1.5095,-1.4964,-1.4964,-1.4266,-1.3769,-1.3699,-1.2849,-1.229,-1.2232,-1.2186,-1.2246,-1.2433,-1.2678,-1.2894,-1.3093,-1.3093,-1.3093,-1.3093,-1.3589,-1.3802,-1.3774,-1.4235,-1.4821,-0.0957,-0.1281,-0.1583,-0.1802,-0.215,-0.2468,-0.2606,-0.3142,-0.3573,-0.3421,-0.3614,-0.388,-0.412,-0.4367,-0.4832,-0.5722,-0.6073,-0.6415,-0.6926,-0.7412,-0.7703,-0.7703,-0.8419,-0.9027,0.0,0.0,0.0,-1.2478,-1.2733,-1.3225,-1.4261,-1.464,-1.4663,-1.4317,-1.4926,-1.521,-1.5108,-1.5221,-1.551,-1.602,-1.623,-1.6266,-1.6162,-1.596,-1.5824,-1.57,-1.5545,-1.5645,-1.5888,-1.5322,-1.5457,-1.5966,-1.5668,-1.5734,-1.601,-1.601,-1.601,-1.6054,-1.638,-1.65,-1.65,-1.65,-1.65,-1.65,-1.65,-1.5881,-1.5148,-1.4947,-1.4224,-1.3523,-1.3527,-1.3514,-1.3581,-1.3845,-1.3911,-1.3878,-1.3798,-1.3785,-1.3769,-1.3752,-1.3868,-1.395,-1.3934,-1.4127,-1.4413,-1.4761,-1.4979,-1.5147,-1.5283,-1.5298,-1.5298,-1.5298,-1.4776,-1.4397,-1.4339,-1.3433,-1.2873,-1.2883,-1.2716,-1.276,-1.3094,-1.3054,-1.3174,-1.349,-1.3225,-1.3225,-1.349,-1.3934,-1.4268,-1.4502,-1.489,-1.5446,-0.1386,-0.1552,-0.1717,-0.219,-0.2395,-0.2558,-0.2849,-0.3098,-0.3262,-0.3208,-0.3266,-0.329,0.0,0.0,-0.4017,-0.4963,-0.539,-0.5938,-0.6878,-0.737,-0.7669,0.0,0.0,0.0,0.0,0.0,0.0,-1.1975,0.0,-1.318,-1.4133,-1.4235,-1.4247,-1.4235,-1.4281,-1.4536,-1.5017,-1.4581,-1.4609,-1.5042,-1.5549,-1.5516,-1.4999,-1.5187,-1.4982,-1.4503,-1.4755,-1.4858,-1.4903,-1.4983,-1.504,-1.5085,-1.5062,-1.5085,-1.5108,-1.5108,-1.5108,-1.5221,-1.612,-1.6445,-1.6457,-1.6457,-1.6466,-1.65,-1.65,-1.6132,-1.558,-1.5085,-1.4551,-1.3997,-1.3403,-1.3248,-1.3235,-1.321,-1.3198,-1.3198,-1.3198,-1.3198,-1.3181,-1.3124,-1.3408,-1.3648,-1.3598,-1.396,-1.4381,-1.4699,-1.4777,-1.4917,-1.5268,-1.5298,-1.5298,-1.5298,-1.4718,-1.4369,-1.444,-1.3897,-1.3583,-1.3635,-1.367,-1.3905,-1.4358,-1.3751,-1.3669,-1.4202,-1.3528,-1.3538,-1.4232,-1.4226,-1.4568,-1.5232,-1.5152,-1.5499,-0.1468,-0.1701,-0.1887,-0.2163,-0.2212,-0.233,-0.2847,-0.2983,-0.3056,-0.3245,-0.3403,-0.3494,0.0,0.0,0.0,-0.518,-0.5475,0.0,-0.6878,-0.7105,0.0,-0.7518,0.0,-0.8439,-0.8814,-0.9455,0.0,0.0,-1.1538,-1.2295,-1.2643,-1.3372,-1.3621,-1.3272,-1.3941,-1.4188,-1.3988,-1.4939,-1.5487,-1.5607,-1.5727,-1.5556,-1.5074,-1.481,-1.4637,-1.448,-1.4317,-1.4433,-1.4709,-1.4095,-1.4281,-1.4937,-1.4674,-1.4789,-1.5108,-1.5108,-1.5108,-1.5131,-1.5367,-1.569,-1.5976,-1.5976,-1.6216,-1.65,-1.65,-1.6132,-1.5668,-1.5517,-1.511,-1.4576,-1.4022,-1.3871,-1.3765,-1.3315,-1.3198,-1.3198,-1.3198,-1.3198,-1.3181,-1.3181,-1.3267,-1.3323,-1.3301,-1.3611,-1.3881,-1.398,-1.4449,-1.4917,-1.5268,-1.5298,-1.5298,-1.5298,-1.5198,-1.5111,-1.5066,-1.4571,-1.4232,-1.4189,-1.379,-1.3691,-1.4014,-1.3858,-1.398,-1.4403,-1.4293,-1.4401,-1.4804,-1.5381,-1.5741,-1.587,-1.6401,-1.6706,-0.165,-0.1842,-0.1974,-0.209,-0.2149,-0.2256,-0.2532,-0.2645,-0.2722,-0.2874,-0.3083,0.0,-0.3093,0.0,0.0,0.0,0.0,0.0,-0.6686,-0.692,-0.7134,0.0,-0.7793,0.0,-0.8805,-0.9375,-0.9763,0.0,-1.0844,-1.1585,-1.1965,-1.2598,-1.2934,-1.2905,-1.3416,-1.3632,-1.3554,-1.4583,-1.5067,-1.506,-1.4862,-1.4658,-1.4387,-1.3975,-1.3813,-1.3779,0.0,-1.3752,-1.3965,-1.3505,-1.3684,-1.4224,-1.4025,-1.4152,-1.4432,-1.4432,-1.4432,-1.4432,-1.4432,-1.4766,-1.522,-1.5423,-1.58,-1.6194,-1.6194,-1.6126,-1.6007,-1.5768,-1.5467,-1.5072,-1.4286,-1.4103,-1.3946,-1.3341,-1.3198,-1.3198,-1.3198,-1.3198,-1.3181,-1.3163,-1.3163,-1.3163,-1.3163,-1.334,-1.3581,-1.3914,-1.4319,-1.4761,-1.5237,-1.5298,-1.5298,-1.5298,-1.5328,-1.5343,-1.5313,-1.5023,-1.4834,-1.4805,-1.4512,-1.4443,-1.4726,-1.4556,-1.4628,-1.4991,-1.484,-1.5019,-1.5471,-1.5935,-1.6294,-1.6584,-1.6983,-1.7149,-0.1847,-0.1954,-0.1996,-0.2017,-0.2138,-0.2221,-0.2169,-0.2266,-0.2391,-0.2408,0.0,-0.2756,-0.2568,-0.2895,-0.3475,-0.4307,0.0,-0.5413,-0.6461,-0.6807,-0.7088,-0.745,-0.7742,-0.8204,-0.9018,-0.9329,-0.9536,-0.9666,-1.0208,-1.0889,-1.1641,-1.1925,-1.2323,-1.2881,-1.2856,-1.2998,-1.3418,-1.3887,-1.4023,-1.3851,-1.3597,-1.3447,-1.333,-1.3018,-1.2905,-1.2905,-1.3027,-1.3075,-1.3075,-1.3166,-1.3252,-1.3348,-1.3396,-1.3467,-1.3586,-1.3586,-1.3597,-1.3597,-1.3597,-1.3905,-1.4373,-1.4857,-1.5311,-1.57,-1.57,-1.6042,-1.6302,-1.5849,-1.5765,-1.5588,-1.4576,-1.4267,-1.406,-1.3453,-1.3248,-1.3198,-1.3198,-1.3198,-1.3163,-1.3077,-1.3107,-1.3132,-1.3206,-1.3196,-1.3433,-1.4166,-1.4292,-1.4509,-1.5086,-1.5237,-1.5298,-1.5298,-1.5298,-1.5298,-1.5298,-1.5298,-1.5298,-1.5298,-1.5344,-1.5492,-1.5725,-1.5406,-1.5348,-1.565,-1.5323,-1.5505,-1.6212,-1.6219,-1.6556,-1.7186,-1.7137,-1.7095,-0.1906,-0.1996,-0.2019,-0.2145,-0.2069,-0.2059,-0.2363,-0.2367,0.0,0.0,-0.2689,-0.2847,-0.276,-0.2991,-0.3519,-0.4484,0.0,0.0,0.0,0.0,-0.6881,0.0,0.0,0.0,0.0,0.0,0.0,0.0,0.0,-0.9847,-1.1065,-1.1591,-1.2163,-1.2881,-1.2529,-1.2549,-1.3013,-1.3406,-1.3258,-1.2545,-1.3178,-1.311,-1.2437,-1.2744,-1.2905,-1.2905,-1.2929,0.0,-1.2929,-1.3075,-1.3123,-1.3172,-1.3334,-1.3409,-1.3443,-1.3563,-1.3597,-1.3597,-1.3597,-1.3658,-1.3834,-1.435,-1.4834,-1.521,-1.521,-1.5557,-1.5908,-1.5811,-1.6059,-1.6233,-1.558,-1.5085,-1.4626,-1.4072,-1.3559,-1.3198,-1.3198,-1.3198,-1.3146,-1.2978,-1.3064,-1.3313,-1.3691,-1.3445,-1.34,-1.405,-1.4232,-1.4349,-1.4461,-1.4963,-1.5298,-1.5298,-1.5298,-1.5298,-1.5298,-1.5298,-1.5298,-1.5298,-1.5313,-1.5328,-1.5388,-1.5316,-1.549,-1.5924,-1.5964,-1.6245,-1.6767,-1.688,-1.6994,-1.7108,-1.7108,-1.7095,-0.168,-0.1806,-0.1922,-0.2021,-0.1922,-0.1839,-0.1999,0.0,0.0,0.0,-0.2358,-0.26,-0.2469,0.0,0.0,0.0,0.0,0.0,0.0,0.0,0.0,0.0,0.0,0.0,0.0,0.0,0.0,0.0,0.0,-0.9361,-1.0415,-1.1124,-1.1642,-1.1993,-1.1801,-1.1892,-1.2379,-1.2335,-1.2209,-1.2045,-1.2218,-1.2065,-1.1686,-1.1901,-1.2017,-1.2017,-1.2017,0.0,-1.2017,-1.2092,-1.2157,-1.2236,-1.2638,-1.2856,-1.304,-1.3372,-1.3539,-1.3597,-1.3597,-1.3597,-1.3634,-1.3905,-1.4316,-1.4743,-1.4743,-1.5051,-1.549,-1.5722,-1.5964,-1.6071,-1.5769,-1.5512,-1.511,-1.4286,-1.3634,-1.3181,-1.3163,-1.3094,-1.3012,-1.2873,-1.3212,-1.358,-1.3803,-1.3982,-1.4147,-1.4326,-1.4566,-1.4672,-1.4568,-1.4994,-1.5298,-1.5298,-1.5298,-1.5298,-1.5298,-1.5298,-1.5298,-1.5298,-1.5298,-1.5298,-1.5298,-1.5388,-1.5624,-1.5982,-1.6231,-1.653,-1.6892,-1.7032,-1.7095,-1.7095,-1.7095,-1.7095,-0.1372,-0.154,-0.1698,-0.1812,-0.1766,-0.1679,-0.1608,-0.1609,0.0,0.0,-0.1976,-0.2279,-0.2182,0.0,-0.3212,0.0,-0.4109,0.0,0.0,0.0,0.0,0.0,0.0,0.0,0.0,0.0,0.0,0.0,0.0,0.0,-0.9961,-1.0663,-1.1065,-1.12,-1.1123,-1.1242,-1.1619,-1.1413,-1.1379,-1.1481,-1.1379,-1.1217,-1.1081,-1.1166,-1.12,-1.12,-1.12,0.0,-1.12,-1.12,-1.1267,-1.14,-1.1841,-1.2236,-1.257,-1.304,-1.3372,-1.3563,-1.3586,-1.3586,-1.3563,-1.3586,-1.3905,-1.4233,-1.4233,-1.4581,-1.504,-1.54,-1.5567,-1.566,-1.5698,-1.5624,-1.5304,-1.4331,-1.3634,-1.3163,-1.306,-1.2978,-1.2878,-1.2785,-1.3227,-1.3649,-1.3785,-1.4281,-1.4632,-1.4503,-1.4946,-1.5152,-1.4735,-1.517,-1.5443,-1.5312,-1.5298,-1.5298,-1.5298,-1.5298,-1.5298,-1.5298,-1.5298,-1.5298,-1.5298,-1.5448,-1.5668,-1.5911,-1.6244,-1.6543,-1.6811,-1.6994,-1.7099,-1.7095,-1.7095,-1.7095,-0.1102,-0.1238,-0.1324,-0.1557,-0.1671,-0.1686,-0.1611,0.0,0.0,-0.1609,-0.1828,-0.2109,-0.2326,-0.262,-0.3019,0.0,0.0,-0.4434,0.0,0.0,0.0,0.0,0.0,0.0,0.0,0.0,0.0,0.0,0.0,0.0,-0.9969,-1.0294,-1.0687,-1.1191,-1.0859,-1.0689,-1.0723,-1.1336,-1.1167,-1.0199,-1.1192,-1.1294,-1.0665,-1.1038,-1.12,-1.12,-1.12,0.0,0.0,-1.12,-1.12,-1.125,-1.14,-1.1783,-1.227,-1.257,-1.2991,-1.3443,-1.3563,-1.3515,-1.3443,-1.3563,-1.3634,-1.3658,-1.3658,-1.4046,-1.4466,-1.4512,-1.4834,-1.5266,-1.5684,-1.5432,-1.4906,-1.4244,-1.3581,-1.306,-1.2943,-1.2908,-1.2873,-1.2727,-1.2869,-1.3159,-1.3711,-1.3908,-1.4032,-1.4134,-1.5156,-1.5548,-1.4485,-1.537,-1.5922,-1.5356,-1.5298,-1.5298,-1.5298,-1.5298,-1.5298,-1.5298,-1.5298,-1.5298,-1.5298,-1.5313,-1.5433,-1.5639,-1.5969,-1.6274,-1.6541,-1.6837,-1.7036,-1.7095,-1.7095,-1.7095,-0.0675,-0.0924,-0.1165,-0.1508,-0.1622,-0.1625,-0.1609,0.0,-0.1625,-0.1609,-0.1811,-0.2081,-0.2358,-0.2494,-0.2692,-0.3089,-0.339,-0.3797,-0.4431,0.0,0.0,0.0,0.0,0.0,0.0,0.0,0.0,0.0,0.0,0.0,-0.9614,-0.9669,-0.9789,-1.0002,-0.9916,-0.9864,-0.9864,-1.0453,-1.0511,-1.0056,-1.0519,-1.0573,-1.0301,-1.0265,-1.0226,-1.0226,-1.0226,0.0,0.0,-1.0226,-1.0226,-1.0277,-1.066,-1.0981,-1.1334,-1.208,-1.2555,-1.2861,-1.3242,-1.3314,-1.329,-1.3338,-1.3409,-1.3491,-1.3586,-1.3763,-1.3999,-1.4303,-1.4535,-1.4846,-1.5589,-1.5618,-1.5249,-1.4566,-1.397,-1.3451,-1.2946,-1.2838,-1.2803,-1.2727,-1.3034,-1.3496,-1.4052,-1.4528,-1.4784,-1.4777,-1.5378,-1.5671,-1.5197,-1.5437,-1.5719,-1.582,-1.5515,-1.5298,-1.5298,-1.5298,-1.5298,-1.5298,-1.5298,-1.5298,-1.5298,-1.5298,-1.5388,-1.5595,-1.5941,-1.6232,-1.6501,-1.6853,-1.7036,-1.7095,-1.7095,-1.7095,-0.025,-0.0588,-0.094,-0.1272,-0.1467,-0.1569,0.0,-0.159,-0.1609,-0.1609,-0.1742,-0.1961,-0.2228,-0.2275,-0.2377,-0.2646,-0.2931,-0.3304,-0.3787,-0.4399,0.0,0.0,0.0,0.0,0.0,0.0,0.0,0.0,0.0,0.0,-0.8837,-0.8942,-0.9106,-0.9263,-0.9361,-0.9413,-0.9413,-0.9855,-1.0053,-0.9958,-1.0155,-1.0148,-0.995,-0.9819,-0.9709,-0.9588,-0.9588,0.0,0.0,-0.9588,-0.9588,-0.964,-1.0035,-1.0413,-1.088,-1.1667,-1.2236,-1.2652,-1.3064,-1.3204,-1.318,-1.3194,-1.3242,-1.3334,-1.3443,-1.3539,-1.3692,-1.4069,-1.4257,-1.4524,-1.5321,-1.5447,-1.5237,-1.474,-1.4217,-1.3637,-1.2978,-1.2803,-1.275,-1.2709,-1.3035,-1.3447,-1.3861,-1.4443,-1.4792,-1.4563,-1.5188,-1.5591,-1.5266,-1.5391,-1.5614,-1.5907,-1.5544,-1.5298,-1.5298,-1.5298,-1.5298,-1.5298,-1.5298,-1.5298,-1.5298,-1.5298,-1.5373,-1.5507,-1.5884,-1.6163,-1.6353,-1.6746,-1.6969,-1.7016,-1.7045,-1.707,0.0154,-0.0202,-0.0548,-0.0751,-0.1163,-0.1493,-0.1505,-0.1548,-0.1609,-0.1609,-0.1609,-0.1692,-0.1964,-0.1997,-0.2097,-0.2358,-0.2576,-0.3005,-0.3874,-0.4176,0.0,0.0,0.0,0.0,0.0,0.0,0.0,0.0,0.0,0.0,-0.7521,-0.8203,-0.8863,-0.9387,-0.9387,-0.9413,-0.9413,-0.9855,-0.9936,-0.9629,-1.0272,-1.0243,-0.9603,-0.995,-0.9921,-0.9588,0.0,0.0,0.0,-0.9588,-0.9588,-0.9614,-0.9614,-1.0251,-1.12,-1.135,-1.2113,-1.3099,-1.318,-1.3176,-1.3099,-1.318,-1.3176,-1.3123,-1.318,-1.3396,-1.3597,-1.3621,-1.3894,-1.4316,-1.4789,-1.475,-1.4624,-1.47,-1.4141,-1.3478,-1.3001,-1.2785,-1.2709,-1.2709,-1.2721,-1.2727,-1.2797,-1.3265,-1.3454,-1.2994,-1.4508,-1.5309,-1.4245,-1.5217,-1.5819,-1.5355,-1.5298,-1.5298,-1.5298,-1.5298,-1.5298,-1.5298,-1.5298,-1.5298,-1.5298,-1.5298,-1.5298,-1.5298,-1.5755,-1.5996,-1.601,-1.6546,-1.6795,-1.6818,-1.6943,-1.7036,0.0169,-0.0034,-0.0217,-0.046,-0.068,-0.087,-0.1052,-0.1179,-0.1311,-0.1498,-0.1561,-0.1676,-0.1947,-0.1845,-0.1809,-0.2078,-0.2213,-0.2486,0.0,0.0,0.0,0.0,0.0,0.0,0.0,0.0,0.0,0.0,0.0,0.0,-0.7643,-0.7857,-0.8249,-0.8837,-0.9126,-0.9263,-0.9263,-0.9728,-0.9917,-0.9816,-1.01,-1.0148,-0.9943,-0.9819,-0.9709,0.0,0.0,0.0,-0.9588,-0.9588,-0.9588,-0.9588,-0.9588,-0.9821,-1.0156,-1.0566,-1.0947,-1.136,-1.2157,-1.2446,-1.2471,-1.2861,-1.3041,-1.3099,-1.3138,-1.3214,-1.3338,-1.3338,-1.3671,-1.4082,-1.4129,-1.4642,-1.5025,-1.4554,-1.4269,-1.3987,-1.3435,-1.2999,-1.2709,-1.2709,-1.2709,-1.2818,-1.3198,-1.3422,-1.3582,-1.3713,-1.4374,-1.4919,-1.5042,-1.5182,-1.5394,-1.5797,-1.5468,-1.5253,-1.5298,-1.5298,-1.5298,-1.5298,-1.5298,-1.5298,-1.5298,-1.5298,-1.5283,-1.5237,-1.5507,-1.5725,-1.5854,-1.6217,-1.6474,-1.6675,-1.6753,-1.7087,0.0286,0.0134,-0.0033,-0.018,-0.0331,-0.0501,-0.0671,-0.0877,-0.1093,-0.1296,-0.1464,-0.1628,-0.1811,-0.1709,-0.1659,-0.1828,-0.1884,-0.2111,0.0,0.0,0.0,0.0,0.0,0.0,0.0,0.0,0.0,0.0,0.0,0.0,-0.6977,-0.7241,-0.7584,-0.7951,-0.8521,-0.8817,-0.8817,-0.9159,-0.9275,-0.916,-0.9467,-0.9576,-0.9538,-0.9548,-0.958,0.0,0.0,-0.9588,0.0,-0.9588,-0.9588,-0.9588,-0.9588,-0.9718,-0.995,-1.0275,-1.0531,-1.0804,-1.151,-1.1769,-1.1843,-1.2431,-1.2774,-1.3027,-1.3027,-1.3104,-1.3194,-1.3194,-1.342,-1.3692,-1.3773,-1.4269,-1.4609,-1.4192,-1.4074,-1.3923,-1.3393,-1.2962,-1.2709,-1.2709,-1.2709,-1.2818,-1.3143,-1.3204,-1.3283,-1.353,-1.3811,-1.418,-1.4745,-1.4731,-1.4917,-1.5582,-1.5331,-1.5133,-1.5178,-1.5223,-1.5238,-1.5193,-1.5223,-1.5238,-1.5193,-1.5238,-1.5223,-1.5133,-1.5418,-1.5609,-1.574,-1.6093,-1.6367,-1.657,-1.6918,-1.7364,0.0,0.0269,0.005,0.011,-0.0113,-0.0348,-0.0361,-0.063,0.0,-0.106,-0.1313,-0.1516,-0.16,-0.1596,-0.1611,-0.16,-0.1623,0.0,0.0,0.0,0.0,0.0,0.0,0.0,0.0,0.0,0.0,0.0,0.0,0.0,-0.5795,-0.6458,-0.6831,-0.6826,-0.7622,-0.8088,-0.8168,-0.8295,-0.8203,-0.7904,-0.8486,-0.8698,-0.858,-0.9133,-0.943,0.0,0.0,-0.9536,-0.9562,-0.9562,-0.9562,-0.9588,-0.9588,-0.9906,-1.0344,-1.0344,-1.0651,-1.1099,-1.1124,-1.1124,-1.1225,-1.1843,-1.2406,-1.2832,-1.2832,-1.2997,-1.317,-1.317,-1.3128,-1.3196,-1.3631,-1.3668,-1.3614,-1.3717,-1.3655,-1.3457,-1.3081,-1.2862,-1.2758,-1.2721,-1.2709,-1.2704,-1.2758,-1.277,-1.2764,-1.2818,-1.3043,-1.3345,-1.3731,-1.4146,-1.4538,-1.488,-1.4992,-1.5025,-1.4997,-1.5118,-1.5133,-1.5013,-1.5118,-1.5133,-1.5013,-1.5118,-1.5118,-1.4997,-1.5448,-1.5667,-1.5624,-1.6136,-1.6441,-1.6582,-1.7328,-1.776,0.0487,0.0,0.0385,0.0397,0.0349,0.0234,0.0,-0.0283,-0.0605,-0.0892,0.0,0.0,-0.1648,-0.1639,-0.1614,-0.1665,-0.177,-0.2125,0.0,0.0,0.0,0.0,0.0,0.0,0.0,0.0,0.0,0.0,0.0,-0.5489,-0.565,-0.5896,-0.6114,-0.6213,-0.6507,-0.7047,-0.7809,-0.7957,-0.7978,-0.7898,-0.8146,-0.8246,-0.821,-0.8366,-0.8526,0.0,-0.8679,-0.887,-0.9133,-0.9133,-0.9309,-0.9588,-0.9588,-0.9666,-0.9795,-0.9795,-0.9873,-1.002,-1.0446,-1.0582,-1.0676,-1.1234,-1.1819,-1.2283,-1.2283,-1.2618,-1.2968,-1.2968,-1.2968,-1.2978,-1.3065,-1.3344,-1.3697,-1.406,-1.4127,-1.4092,-1.3986,-1.3629,-1.3192,-1.2782,-1.2709,-1.283,-1.324,-1.3312,-1.3457,-1.3855,-1.4158,-1.4387,-1.4525,-1.5027,-1.5305,-1.5154,-1.5365,-1.5364,-1.4961,-1.4996,-1.5028,-1.5013,-1.5028,-1.5028,-1.5013,-1.5028,-1.5012,-1.4934,-1.5329,-1.5638,-1.5827,-1.6111,-1.6526,-1.7034,-1.7275,-1.8016,0.0471,0.0504,0.0504,0.0504,0.0504,0.0454,0.0319,-0.005,0.0,0.0,0.0,0.0,0.0,0.0,0.0,0.0,-0.201,0.0,0.0,0.0,0.0,0.0,0.0,0.0,0.0,0.0,0.0,0.0,0.0,-0.5352,-0.5462,-0.5517,-0.5599,-0.5677,-0.5837,-0.6295,-0.7106,-0.7262,-0.7316,-0.7208,-0.7498,-0.7685,-0.7738,-0.7871,-0.809,0.0,-0.8395,-0.8533,-0.8745,-0.8929,-0.914,-0.9335,-0.9536,-0.9588,-0.9588,-0.9588,-0.9588,-0.964,-0.9932,-1.019,-1.0454,-1.0753,-1.1234,-1.1694,-1.1694,-1.2076,-1.2578,-1.2832,-1.2905,-1.2905,-1.2905,-1.3089,-1.3406,-1.3871,-1.3968,-1.4044,-1.4257,-1.3891,-1.3409,-1.3131,-1.3071,-1.3155,-1.3457,-1.3698,-1.3983,-1.4253,-1.4408,-1.4565,-1.4722,-1.5069,-1.5319,-1.5421,-1.5663,-1.5782,-1.5663,-1.5435,-1.5202,-1.4932,-1.4935,-1.4935,-1.4904,-1.4935,-1.5027,-1.5178,-1.5507,-1.5798,-1.6042,-1.646,-1.6855,-1.7224,-1.7899,-1.8656,0.0471,0.0504,0.0504,0.0504,0.0504,0.0504,0.0504,0.0,0.0,0.0,0.0,0.0,0.0,0.0,0.0,0.0,0.0,0.0,0.0,0.0,0.0,0.0,0.0,0.0,0.0,0.0,0.0,0.0,0.0,-0.5297,-0.5297,-0.5297,-0.5297,-0.5297,-0.5458,-0.5786,-0.6273,-0.6539,-0.6598,-0.6463,-0.6869,-0.7139,-0.7241,-0.7482,-0.7809,-0.8209,0.0,0.0,-0.8421,-0.8771,-0.8982,-0.914,-0.9465,-0.9588,-0.9588,-0.9588,-0.9588,-0.9588,-0.9588,-0.9906,-1.0275,-1.0275,-1.0651,-1.1082,-1.1082,-1.1485,-1.2076,-1.2505,-1.2774,-1.2905,-1.2905,-1.2905,-1.3027,-1.3478,-1.3644,-1.3817,-1.4222,-1.3991,-1.3703,-1.3638,-1.3614,-1.365,-1.3734,-1.412,-1.4434,-1.453,-1.453,-1.4611,-1.4843,-1.5022,-1.5298,-1.5712,-1.6016,-1.6282,-1.6476,-1.6089,-1.5621,-1.5117,-1.4954,-1.4871,-1.4808,-1.4886,-1.5118,-1.5477,-1.5755,-1.6059,-1.6348,-1.6916,-1.73,-1.7561,-1.8731,-1.9381,0.0471,0.0504,0.0504,0.0504,0.0504,0.0504,0.0504,0.0,0.0,0.0,0.0,0.0,0.0,0.0,0.0,0.0,0.0,0.0,0.0,0.0,0.0,0.0,0.0,0.0,0.0,0.0,0.0,0.0,0.0,-0.5297,-0.5297,-0.5297,-0.5297,-0.5297,-0.5325,-0.5462,-0.5732,-0.6191,-0.6517,-0.6652,-0.6847,-0.6933,-0.6955,-0.7009,-0.7117,-0.73,0.0,-0.7729,-0.8395,-0.848,-0.889,-0.951,-0.9588,-0.9588,-0.9588,-0.9588,-0.9588,-0.9588,-0.9588,-0.9666,-0.9718,-0.9718,-1.0087,-1.0523,-1.0523,-1.0905,-1.136,-1.1435,-1.2166,-1.2905,-1.2905,-1.2905,-1.3027,-1.3478,-1.3912,-1.4201,-1.429,-1.4554,-1.465,-1.4253,-1.4168,-1.4313,-1.471,-1.4833,-1.5058,-1.5502,-1.5574,-1.5574,-1.5618,-1.6198,-1.6448,-1.6087,-1.6671,-1.6932,-1.6536,-1.6544,-1.6512,-1.6396,-1.5415,-1.4808,-1.4808,-1.5025,-1.5268,-1.5507,-1.5755,-1.6287,-1.7055,-1.7147,-1.7807,-1.8978,-1.9194,-1.961,0.0471,0.0504,0.0504,0.0504,0.0504,0.0454,0.0319,0.0,0.0,0.0,0.0,0.0,0.0,0.0,0.0,0.0,0.0,0.0,0.0,0.0,0.0,0.0,0.0,0.0,0.0,0.0,0.0,0.0,0.0,0.0,-0.5297,-0.5297,-0.5297,-0.5297,-0.5297,-0.5407,-0.5595,-0.5923,-0.6168,-0.6327,-0.6522,-0.6685,-0.6793,-0.6879,-0.6982,-0.7112,0.0,-0.7327,-0.7723,-0.8209,-0.8633,-0.8995,-0.9432,-0.9588,-0.9588,-0.9588,-0.9588,-0.9588,-0.9588,-0.9588,-0.9588,-0.9588,-0.9769,-0.9984,-0.9984,-1.0344,-1.0829,-1.1124,-1.1819,-1.248,-1.248,-1.2676,-1.3027,-1.3478,-1.3752,-1.4064,-1.4609,-1.4676,-1.4634,-1.4668,-1.4682,-1.4754,-1.4965,-1.5241,-1.5516,-1.5756,-1.5792,-1.5792,-1.5792,-1.61,-1.6357,-1.6525,-1.6969,-1.73,-1.7412,-1.7292,-1.6888,-1.6199,-1.5623,-1.5129,-1.4808,-1.5056,-1.5298,-1.5507,-1.6114,-1.6696,-1.7208,-1.7946,-1.867,-1.9302,-1.9672,-2.0011,0.0471,0.0487,0.0504,0.0504,0.0,0.0421,0.0137,0.0,0.0,0.0,0.0,0.0,0.0,0.0,0.0,0.0,0.0,0.0,0.0,0.0,0.0,0.0,0.0,0.0,0.0,0.0,0.0,0.0,0.0,0.0,-0.4994,-0.4994,-0.4994,-0.4994,-0.4994,-0.5128,-0.5375,-0.5375,-0.5595,-0.6,-0.6245,-0.6431,-0.6593,-0.6712,-0.6874,-0.7004,-0.7031,-0.7112,-0.73,-0.7969,-0.8289,-0.8474,-0.9178,-0.951,-0.9588,-0.9588,-0.9588,-0.9588,-0.9588,-0.9588,-0.9588,-0.9588,-0.9588,-0.9588,-0.9588,-0.9984,-1.048,-1.0905,-1.1544,-1.2126,-1.2249,-1.2603,-1.3002,-1.3344,-1.3525,-1.38,-1.457,-1.4508,-1.4435,-1.4924,-1.501,-1.5064,-1.5171,-1.5528,-1.5792,-1.5792,-1.5792,-1.5792,-1.5792,-1.5869,-1.6132,-1.6693,-1.7073,-1.7529,-1.8169,-1.7967,-1.7319,-1.621,-1.6014,-1.5736,-1.5258,-1.5498,-1.5718,-1.5949,-1.6697,-1.7288,-1.7684,-1.8762,-1.9379,-1.9549,-2.0058,-2.0304,0.0471,0.0454,0.0504,0.0504,0.0504,0.0,0.009,-0.0254,0.0,-0.11,0.0,0.0,0.0,0.0,0.0,0.0,0.0,0.0,0.0,0.0,0.0,0.0,0.0,0.0,0.0,0.0,0.0,0.0,0.0,0.0,-0.4107,-0.4107,-0.4107,-0.4107,-0.4107,-0.4301,-0.4774,-0.4356,-0.4767,-0.6,-0.6159,-0.6209,-0.6236,-0.6381,-0.6544,-0.6729,-0.6847,-0.7198,-0.767,-0.7723,-0.8017,-0.8454,-0.8877,-0.9256,-0.9588,-0.9588,-0.9588,-0.9588,-0.9588,-0.9588,-0.9588,-0.9588,-0.9588,-0.9588,-0.9588,-0.9984,-1.0403,-1.0454,-1.1242,-1.22,-1.27,-1.2881,-1.2905,-1.2954,-1.3272,-1.3621,-1.3681,-1.4027,-1.4458,-1.4983,-1.5096,-1.5231,-1.5666,-1.5768,-1.5792,-1.5792,-1.5792,-1.5792,-1.5792,-1.6076,-1.6269,-1.6346,-1.7026,-1.77,-1.826,-1.8383,-1.8147,-1.7506,-1.6948,-1.6624,-1.6568,-1.6764,-1.6987,-1.7258,-1.7576,-1.8197,-1.9148,-1.924,-1.9626,-2.0227,-2.0289,-2.0304,0.0471,0.0483,0.0544,0.0509,0.053,0.0,0.0,-0.0383,-0.0729,-0.1326,-0.172,0.0,0.0,0.0,0.0,0.0,0.0,0.0,0.0,0.0,0.0,0.0,0.0,0.0,0.0,0.0,0.0,0.0,0.0,0.0,-0.3996,-0.3996,-0.3996,-0.3996,-0.3996,-0.4079,-0.4273,-0.4079,-0.4242,-0.4767,-0.4893,-0.5308,-0.595,-0.5778,-0.5996,-0.6517,-0.6707,-0.6928,-0.7225,-0.7563,-0.7803,-0.8017,-0.8448,-0.887,-0.9237,-0.9237,-0.9387,-0.9588,-0.9588,-0.9588,-0.9588,-0.9588,-0.9588,-0.9588,-0.9588,-0.9744,-0.9984,-1.03,-1.0956,-1.166,-1.2249,-1.2652,-1.2905,-1.2905,-1.3041,-1.3248,-1.3549,-1.3729,-1.4001,-1.4513,-1.4869,-1.5153,-1.5334,-1.5614,-1.5792,-1.5792,-1.5792,-1.5792,-1.5792,-1.5913,-1.6076,-1.6269,-1.7026,-1.7639,-1.7948,-1.822,-1.8313,-1.8161,-1.759,-1.7084,-1.6723,-1.6782,-1.6996,-1.7388,-1.7749,-1.838,-1.9302,-1.9502,-1.9838,-2.0304,-2.0304,-2.0304,0.0471,0.0449,0.053,0.0538,0.0,0.0,-0.0036,-0.0378,-0.0782,-0.1382,-0.1834,0.0,0.0,0.0,0.0,0.0,0.0,0.0,0.0,0.0,0.0,0.0,0.0,0.0,0.0,0.0,0.0,0.0,0.0,0.0,0.0,-0.3577,-0.3577,-0.3577,-0.3577,-0.366,-0.3802,-0.366,-0.3716,-0.3993,-0.3824,-0.4267,-0.5238,-0.5203,-0.5473,-0.6,-0.6381,-0.6657,-0.6874,-0.7273,-0.7542,-0.7723,-0.8049,-0.8501,-0.8982,-0.885,-0.9152,-0.9588,-0.9465,-0.9484,-0.9588,-0.9588,-0.9588,-0.9588,-0.9588,-0.9718,-0.9932,-1.03,-1.0778,-1.1334,-1.1943,-1.2505,-1.2905,-1.2905,-1.2905,-1.3002,-1.332,-1.3392,-1.3573,-1.4188,-1.4605,-1.4937,-1.5266,-1.5592,-1.5792,-1.5792,-1.5792,-1.5792,-1.5792,-1.5792,-1.5935,-1.6247,-1.6942,-1.74,-1.7544,-1.8002,-1.8274,-1.8288,-1.7995,-1.7651,-1.7281,-1.7267,-1.7455,-1.7867,-1.8144,-1.8667,-1.9461,-1.9682,-1.9962,-2.0304,-2.0304,-2.0304,0.0471,0.0353,0.0426,0.0,0.0,0.0,0.025,-0.0203,-0.0734,-0.1197,0.0,0.0,0.0,0.0,0.0,0.0,0.0,0.0,0.0,0.0,0.0,0.0,0.0,0.0,0.0,0.0,0.0,0.0,0.0,0.0,0.0,-0.2689,-0.2689,-0.2691,-0.2691,-0.2914,-0.3385,-0.2942,-0.3135,-0.3965,-0.3107,-0.3163,-0.4024,-0.4625,-0.4956,-0.5124,-0.5873,-0.6386,-0.6701,-0.6847,-0.7225,-0.7696,-0.7696,-0.8229,-0.8929,-0.8527,-0.889,-0.9536,-0.9133,-0.9263,-0.9588,-0.9588,-0.9588,-0.9588,-0.9588,-0.9984,-1.0403,-1.0403,-1.0778,-1.1334,-1.1918,-1.2505,-1.2881,-1.2905,-1.2905,-1.2905,-1.2905,-1.2905,-1.3176,-1.4118,-1.4294,-1.4628,-1.5603,-1.5792,-1.5792,-1.5792,-1.5792,-1.5792,-1.5792,-1.5792,-1.5935,-1.6247,-1.6718,-1.6993,-1.6993,-1.772,-1.8089,-1.7821,-1.8108,-1.8358,-1.8498,-1.8498,-1.862,-1.8879,-1.8898,-1.9184,-1.9788,-1.9788,-1.9962,-2.0304,-2.0304,-2.0304,0.0538,0.045,0.0,0.0,0.0,0.0,0.0,0.0099,0.0,0.0,0.0,0.0,0.0,0.0,0.0,0.0,0.0,0.0,0.0,0.0,0.0,0.0,0.0,0.0,0.0,0.0,0.0,0.0,0.0,0.0,0.0,-0.2622,-0.2653,-0.2689,-0.2691,-0.2775,-0.2914,-0.2775,-0.283,-0.3079,-0.283,-0.3163,-0.3993,-0.3882,-0.4267,-0.4983,-0.5395,-0.5914,-0.6517,-0.6896,-0.7139,-0.7268,-0.7268,-0.7616,-0.807,-0.7937,-0.8256,-0.8791,-0.8956,-0.9087,-0.9237,-0.9517,-0.9588,-0.9588,-0.9588,-0.9718,-0.9847,-0.9847,-1.0208,-1.0778,-1.1309,-1.1893,-1.2421,-1.2808,-1.2905,-1.2905,-1.2905,-1.2905,-1.2968,-1.3272,-1.3847,-1.4398,-1.4697,-1.5322,-1.5792,-1.5792,-1.5792,-1.5792,-1.5792,-1.5792,-1.5836,-1.5935,-1.6281,-1.6548,-1.6637,-1.7089,-1.7462,-1.7707,-1.7868,-1.8101,-1.8478,-1.8498,-1.862,-1.8879,-1.8702,-1.8912,-1.9527,-1.9527,-1.9672,-1.9945,-2.0185,-2.0304,0.0518,0.0,0.0,0.0,0.0,0.0,0.0,0.0,0.0,0.0,0.0,0.0,0.0,0.0,0.0,0.0,0.0,0.0,0.0,0.0,0.0,0.0,0.0,0.0,0.0,0.0,0.0,0.0,0.0,0.0,0.0,-0.2525,-0.2568,-0.2661,-0.2663,-0.2682,-0.2691,-0.2691,-0.2691,-0.2691,-0.2691,-0.297,-0.3497,-0.3413,-0.3744,-0.4349,-0.5085,-0.5823,-0.6544,-0.695,-0.7112,-0.7112,-0.7112,-0.7348,-0.767,-0.7509,-0.7857,-0.8401,-0.8474,-0.8606,-0.8824,-0.9237,-0.9361,-0.9387,-0.9562,-0.9588,-0.9588,-0.9588,-0.9984,-1.0523,-1.1057,-1.1635,-1.2249,-1.2774,-1.2905,-1.2905,-1.2905,-1.2905,-1.2954,-1.3138,-1.3634,-1.4142,-1.4536,-1.5119,-1.5592,-1.577,-1.5792,-1.5792,-1.5792,-1.5792,-1.5792,-1.5792,-1.6098,-1.6281,-1.6241,-1.668,-1.7089,-1.74,-1.7625,-1.7962,-1.8392,-1.8464,-1.8581,-1.8741,-1.8581,-1.8716,-1.9195,-1.9339,-1.9545,-1.9806,-2.015,-2.0304,0.0497,0.0,0.0,0.0,0.0,0.0,0.0,0.0,0.0,0.0,0.0,0.0,0.0,0.0,0.0,0.0,0.0,0.0,0.0,0.0,0.0,0.0,0.0,0.0,0.0,0.0,0.0,0.0,0.0,0.0,0.0,-0.238,-0.2448,-0.2566,-0.2595,-0.2614,-0.2676,-0.2679,-0.2683,-0.2691,-0.2691,-0.2691,-0.2719,-0.3137,-0.3357,-0.3494,-0.4917,-0.5932,-0.662,-0.6896,-0.7058,-0.7085,-0.7085,-0.7327,-0.7589,-0.7246,-0.7595,-0.8235,-0.783,-0.8017,-0.848,-0.8877,-0.9035,-0.9133,-0.9491,-0.9588,-0.9588,-0.9588,-0.9958,-1.0446,-1.0998,-1.1535,-1.2101,-1.2686,-1.2856,-1.2905,-1.2905,-1.2905,-1.3017,-1.3454,-1.3573,-1.3894,-1.4811,-1.4994,-1.5198,-1.5659,-1.577,-1.5792,-1.5792,-1.5792,-1.5792,-1.5792,-1.6076,-1.6129,-1.5836,-1.6405,-1.6842,-1.693,-1.7359,-1.7787,-1.8206,-1.8392,-1.8498,-1.8498,-1.8498,-1.862,-1.886,-1.9176,-1.949,-1.9734,-2.0098,-2.0252,0.0,0.0712,0.0,0.0,0.0,0.0,0.0,0.0,0.0,0.0,0.0,0.0,0.0,0.0,0.0,0.0,0.0,0.0,0.0,0.0,0.0,0.0,0.0,0.0,0.0,0.0,0.0,0.0,0.0,0.0,-0.2307,-0.2311,-0.2352,-0.2444,-0.2446,-0.2491,-0.2609,-0.2611,-0.2647,-0.2691,-0.2691,-0.2691,-0.2691,-0.2802,-0.3105,-0.3599,-0.4505,-0.525,-0.5864,-0.6241,-0.6625,-0.6955,-0.7058,-0.7166,-0.7219,-0.7139,-0.7219,-0.7402,-0.7616,-0.8017,-0.848,-0.8877,-0.9211,-0.9491,-0.9562,-0.9588,-0.9588,-0.9588,-0.9692,-0.9906,-1.0421,-1.0676,-1.1006,-1.2026,-1.2603,-1.2905,-1.2905,-1.2905,-1.2929,-1.3017,-1.3344,-1.3658,-1.3894,-1.4246,-1.4651,-1.5176,-1.5558,-1.5792,-1.5792,-1.5792,-1.5792,-1.5792,-1.5859,-1.5869,-1.5814,-1.5947,-1.6154,-1.642,-1.6646,-1.7026,-1.7659,-1.8208,-1.8498,-1.8498,-1.8498,-1.8537,-1.8581,-1.8874,-1.903,-1.9124,-1.966,-1.9909,0.0,0.0,0.0,0.0,0.0,0.0,0.0,0.0,0.0,0.0,0.0,0.0,0.0,0.0,0.0,0.0,0.0,0.0,0.0,0.0,0.0,0.0,0.0,0.0,0.0,0.0,0.0,0.0,0.0,-0.2219,-0.224,-0.2244,-0.2283,-0.235,-0.2352,-0.2397,-0.2514,-0.2514,-0.2513,-0.256,-0.256,-0.2583,-0.2655,-0.2698,-0.3021,-0.3627,-0.407,-0.4787,-0.5622,-0.5964,-0.6431,-0.6906,-0.7063,-0.7112,-0.7112,-0.7112,-0.7112,-0.7139,-0.7348,-0.7563,-0.7889,-0.8501,-0.887,-0.9099,-0.9484,-0.9588,-0.9588,-0.9588,-0.9795,-1.0061,-1.0326,-1.06,-1.0972,-1.1721,-1.2214,-1.2578,-1.2832,-1.2905,-1.2905,-1.2905,-1.3089,-1.3344,-1.3573,-1.3978,-1.4398,-1.4686,-1.5142,-1.5563,-1.5809,-1.605,-1.6283,-1.6547,-1.6571,-1.6571,-1.6571,-1.6331,-1.6345,-1.6665,-1.656,-1.6723,-1.7235,-1.7659,-1.8036,-1.8392,-1.8478,-1.8498,-1.8498,-1.8779,-1.8898,-1.8898,-1.9384,-1.9603,0.0,0.0,0.0,0.0,0.0,0.0,0.0,0.0,0.0,0.0,0.0,0.0,0.0,0.0,0.0,0.0,0.0,0.0,0.0,0.0,0.0,0.0,0.0,0.0,0.0,0.0,0.0,0.0,0.0,-0.2201,-0.2201,-0.2201,-0.2234,-0.2279,-0.2281,-0.2327,-0.2393,-0.2395,-0.2376,-0.2392,-0.2392,-0.2466,-0.2609,-0.2661,-0.295,-0.3461,-0.3574,-0.4267,-0.5317,-0.566,-0.6182,-0.6771,-0.6982,-0.7085,-0.7112,-0.7112,-0.7112,-0.7112,-0.7112,-0.7139,-0.7327,-0.8129,-0.8448,-0.8633,-0.938,-0.9588,-0.9588,-0.9588,-0.997,-1.0361,-1.0361,-1.0711,-1.1188,-1.1549,-1.1809,-1.2133,-1.2702,-1.2973,-1.3101,-1.3023,-1.3071,-1.3234,-1.3606,-1.4079,-1.4402,-1.4402,-1.4931,-1.5486,-1.5958,-1.6421,-1.6907,-1.7339,-1.7387,-1.7387,-1.7387,-1.6991,-1.6867,-1.7143,-1.6849,-1.682,-1.714,-1.7282,-1.7663,-1.8344,-1.8365,-1.842,-1.8478,-1.8702,-1.8836,-1.8836,-1.9157,-1.9379,0.0,0.0,0.0,0.0,0.0,0.0,0.0,0.0,0.0,0.0,0.0,0.0,0.0,0.0,0.0,0.0,0.0,0.0,0.0,0.0,0.0,0.0,0.0,0.0,0.0,0.0,0.0,0.0,-0.2201,-0.2201,-0.2201,-0.2201,-0.2205,-0.2217,-0.2217,-0.2236,-0.2323,-0.2323,-0.2338,-0.2392,-0.2392,-0.2466,-0.2607,-0.262,-0.2697,-0.2828,-0.297,-0.3413,-0.4101,-0.4759,-0.5477,-0.6164,-0.6712,-0.7009,-0.7112,-0.7112,-0.7112,-0.7112,-0.7112,-0.7321,-0.7696,-0.8235,-0.8639,-0.9008,-0.9465,-0.9588,-0.9588,-0.9588,-0.9872,-1.0147,-1.0147,-1.0409,-1.0801,-1.1316,-1.1479,-1.1688,-1.2393,-1.3285,-1.3831,-1.3496,-1.3695,-1.3965,-1.4018,-1.4479,-1.4816,-1.4816,-1.5661,-1.6343,-1.6411,-1.6927,-1.7315,-1.7375,-1.7387,-1.7387,-1.7387,-1.7327,-1.7303,-1.7352,-1.7315,-1.7434,-1.7765,-1.7906,-1.8149,-1.8552,-1.812,-1.8042,-1.8338,-1.8484,-1.8542,-1.8556,-1.8836,-1.9272,0.1587,0.1219,0.0,0.0,0.0,0.0,0.0,0.0,0.0,0.0,0.0,0.0,0.0,0.0,0.0,0.0,0.0,0.0,0.0,0.0,0.0,0.0,0.0,0.0,0.0,0.0,0.0,0.0,-0.2154,-0.2201,-0.2201,-0.2201,-0.2201,-0.2201,-0.2201,-0.2217,-0.2232,-0.2234,-0.2255,-0.2294,-0.2294,-0.2341,-0.2428,-0.2479,-0.2556,-0.2691,-0.2775,-0.3163,-0.3852,-0.4512,-0.5254,-0.6059,-0.6657,-0.6982,-0.7112,-0.7112,-0.7112,-0.7112,-0.7112,-0.7219,-0.7429,-0.7863,-0.8315,-0.8738,-0.9133,-0.9561,-0.9885,-0.9885,-1.0119,-1.0375,-1.0375,-1.0477,-1.0717,-1.1127,-1.1492,-1.182,-1.2111,-1.2619,-1.3077,-1.3279,-1.3738,-1.4104,-1.4104,-1.4291,-1.445,-1.445,-1.5112,-1.5829,-1.6465,-1.7014,-1.76,-1.824,-1.8301,-1.8301,-1.8301,-1.8025,-1.7857,-1.7857,-1.758,-1.746,-1.7605,-1.7678,-1.787,-1.8202,-1.8525,-1.8816,-1.9036,-1.9301,-1.9495,-1.9571,-1.968,-1.9897,0.1617,0.1352,0.1065,0.0,0.0,0.0,0.0,0.0,0.0,0.0,0.0,0.0,0.0,0.0,0.0,0.0,0.0,0.0,0.0,0.0,0.0,0.0,0.0,0.0,0.0,0.0,0.0,0.0,-0.1817,-0.1928,-0.1928,-0.1997,-0.2042,-0.1997,-0.2064,-0.2087,-0.2087,-0.2176,-0.2201,-0.2201,-0.2201,-0.2244,-0.2308,-0.2374,-0.2505,-0.2686,-0.2681,-0.3023,-0.3633,-0.4346,-0.5089,-0.5832,-0.6571,-0.6955,-0.7112,-0.7112,-0.7112,-0.7112,-0.7112,-0.7112,-0.7166,-0.7563,-0.8017,-0.8474,-0.8877,-0.9508,-1.0104,-1.0104,-1.0397,-1.074,-1.074,-1.0806,-1.0924,-1.1173,-1.1556,-1.1968,-1.2257,-1.2344,-1.2599,-1.3385,-1.3876,-1.4234,-1.4398,-1.4436,-1.4436,-1.4436,-1.4915,-1.5566,-1.6418,-1.6962,-1.7653,-1.8661,-1.8762,-1.8815,-1.8987,-1.8626,-1.8398,-1.8398,-1.8037,-1.782,-1.782,-1.782,-1.7908,-1.8179,-1.9025,-1.9466,-1.9512,-1.9867,-2.0142,-2.0343,-2.0378,-2.047,0.1903,0.1858,0.0,0.0,0.0,0.0,0.0,0.0,0.0,0.0,0.0,0.0,0.0,0.0,0.0,0.0,0.0,0.0,0.0,0.0,0.0,0.0,0.0,0.0,0.0,0.0,0.0,0.0,-0.1007,-0.1164,-0.1164,-0.1456,-0.1569,-0.1456,-0.1681,-0.1817,-0.1817,-0.2064,-0.2201,-0.2201,-0.2201,-0.2244,-0.2308,-0.2374,-0.247,-0.262,-0.2682,-0.2805,-0.3026,-0.4076,-0.4759,-0.5246,-0.629,-0.6869,-0.7112,-0.7112,-0.7112,-0.7112,-0.7112,-0.7112,-0.7166,-0.7563,-0.8017,-0.8474,-0.8877,-0.9508,-1.0104,-1.0104,-1.0558,-1.1078,-1.1078,-1.1305,-1.1547,-1.1562,-1.16,-1.1965,-1.3144,-1.3126,-1.3177,-1.4243,-1.4464,-1.467,-1.5226,-1.5313,-1.5313,-1.5313,-1.585,-1.6249,-1.6299,-1.6824,-1.7457,-1.8093,-1.8147,-1.8375,-1.896,-1.8963,-1.8951,-1.8951,-1.8927,-1.8915,-1.8915,-1.8915,-1.8903,-1.8941,-1.9374,-1.9482,-1.9216,-1.9499,-1.9823,-2.0215,-2.0343,-2.0717,0.1819,0.1831,0.0,0.0,0.0,0.0,0.0,0.0,0.0,0.0,0.0,0.0,0.0,0.0,0.0,0.0,0.0,0.0,0.0,0.0,0.0,0.0,0.0,0.0,0.0,0.0,0.0,0.0,0.0,-0.1052,-0.0985,-0.1299,-0.1456,-0.1411,-0.15,-0.1591,-0.1681,-0.1861,-0.1997,-0.2064,-0.2154,-0.2215,-0.2249,-0.2314,-0.238,-0.247,-0.2591,-0.2747,-0.2944,-0.363,-0.4346,-0.5058,-0.5828,-0.6458,-0.6982,-0.7058,-0.7112,-0.7112,-0.7112,-0.7112,-0.7139,-0.7268,-0.7589,-0.8043,-0.8474,-0.9268,-1.0087,-1.0362,-1.0909,-1.1415,-1.1415,-1.1503,-1.1591,-1.1591,-1.1591,-1.1716,-1.2166,-1.2463,-1.2762,-1.3127,-1.3914,-1.4558,-1.4795,-1.5147,-1.541,-1.541,-1.5575,-1.5853,-1.6244,-1.65,-1.6866,-1.7451,-1.7863,-1.8174,-1.8402,-1.8762,-1.8987,-1.8987,-1.8987,-1.8987,-1.8987,-1.8987,-1.8987,-1.8987,-1.9146,-1.9457,-1.9971,-2.0407,-2.0879,-2.1365,-2.1493,-2.1673,0.1901,0.0,0.0,0.0,0.0,0.0,0.0,0.0,0.0,0.0,0.0,0.0,0.0,0.0,0.0,0.0,0.0,0.0,0.0,0.0,0.0,0.0,0.0,0.0,0.0,0.0,0.0,0.0,0.0,0.0,-0.0537,-0.0873,-0.1141,-0.1299,-0.1299,-0.1366,-0.15,-0.1658,-0.1794,-0.1928,-0.2064,-0.2154,-0.2203,-0.2265,-0.2315,-0.2378,-0.2527,-0.2688,-0.2858,-0.338,-0.3984,-0.4673,-0.5445,-0.6105,-0.6685,-0.6955,-0.7058,-0.7085,-0.7004,-0.7004,-0.7031,-0.6977,-0.7268,-0.7696,-0.8049,-0.9018,-1.0062,-1.0308,-1.0973,-1.1591,-1.1591,-1.1591,-1.1591,-1.1591,-1.1591,-1.1591,-1.1591,-1.1919,-1.2274,-1.2451,-1.3394,-1.4231,-1.4469,-1.5001,-1.541,-1.541,-1.541,-1.5546,-1.595,-1.5997,-1.6226,-1.6838,-1.7451,-1.7875,-1.8093,-1.8655,-1.8987,-1.8987,-1.8987,-1.8987,-1.8987,-1.8987,-1.8987,-1.8987,-1.8987,-1.937,-2.0144,-2.0673,-2.1215,-2.1722,-2.202,-2.2161,0.0,0.0,0.0,0.0,0.0,0.0,0.0,0.0,0.0,0.0,0.0,0.0,0.0,0.0,0.0,0.0,0.0,0.0,0.0,0.0,0.0,0.0,0.0,0.0,0.0,0.0,0.0,0.0,0.0784,0.056,0.0247,-0.0179,-0.0604,-0.1052,-0.1074,-0.1164,-0.1277,-0.15,-0.1658,-0.1794,-0.1928,-0.2064,-0.2203,-0.2263,-0.2302,-0.2314,-0.2498,-0.263,-0.2742,-0.3322,-0.3735,-0.4091,-0.5148,-0.5805,-0.6236,-0.6712,-0.6982,-0.7058,-0.6788,-0.6788,-0.6879,-0.6734,-0.7058,-0.7494,-0.7655,-0.8769,-0.9983,-0.999,-1.0777,-1.1591,-1.1591,-1.1591,-1.1591,-1.1591,-1.1591,-1.1591,-1.1591,-1.1591,-1.1771,-1.2358,-1.3009,-1.3692,-1.435,-1.4971,-1.5381,-1.541,-1.541,-1.541,-1.541,-1.541,-1.5633,-1.6226,-1.681,-1.7424,-1.8011,-1.8629,-1.8987,-1.8987,-1.8987,-1.8987,-1.8987,-1.8987,-1.8987,-1.8987,-1.8987,-1.9198,-1.9578,-2.0118,-2.0648,-2.1204,-2.1746,-2.2067,0.2424,0.0,0.0,0.0,0.0,0.0,0.0,0.0,0.0,0.0,0.0,0.0,0.0,0.0,0.0,0.0,0.0,0.0,0.0,0.0,0.0,0.0,0.0,0.0,0.0,0.0,0.0,0.0,0.0828,0.0694,0.0717,0.009,-0.0314,-0.0449,-0.0674,-0.0876,-0.101,-0.1256,-0.1478,-0.1658,-0.1884,-0.2064,-0.2201,-0.2224,-0.2246,-0.231,-0.2405,-0.2533,-0.2651,-0.2856,-0.3299,-0.3904,-0.4288,-0.5054,-0.5964,-0.6268,-0.6625,-0.6955,-0.6874,-0.682,-0.6761,-0.6701,-0.681,-0.703,-0.7643,-0.8376,-0.9151,-0.9986,-1.0598,-1.1122,-1.1498,-1.1591,-1.1591,-1.1591,-1.1591,-1.1591,-1.1591,-1.1591,-1.1654,-1.1833,-1.2343,-1.2978,-1.3653,-1.4312,-1.4913,-1.5323,-1.541,-1.541,-1.541,-1.541,-1.5468,-1.5633,-1.6197,-1.6782,-1.7396,-1.8011,-1.8548,-1.896,-1.8987,-1.8987,-1.8987,-1.8987,-1.8987,-1.8987,-1.8987,-1.904,-1.9172,-1.9708,-2.0334,-2.108,-2.1684,-2.2067,0.2498,0.2596,0.0,0.0,0.0,0.0,0.0,0.1722,0.0,0.0,0.0,0.0,0.0,0.0,0.0,0.0,0.0,0.0,0.0,0.0,0.0,0.0,0.0,0.0,0.0,0.0866,0.1009,0.1097,0.103,0.0962,0.0895,0.0359,-0.0022,-0.0202,-0.0382,-0.0607,-0.081,-0.1033,-0.1256,-0.1478,-0.1725,-0.1928,-0.2109,-0.2176,-0.2228,-0.2259,-0.2362,-0.2448,-0.2533,-0.2638,-0.2996,-0.3466,-0.3793,-0.4422,-0.5195,-0.58,-0.6268,-0.6625,-0.6685,-0.6707,-0.6674,-0.6593,-0.662,-0.6808,-0.7334,-0.8006,-0.8734,-0.9392,-1.0166,-1.0926,-1.1466,-1.1591,-1.1591,-1.1591,-1.1591,-1.1591,-1.1591,-1.1591,-1.1685,-1.1919,-1.2489,-1.313,-1.3803,-1.446,-1.5001,-1.5352,-1.541,-1.541,-1.541,-1.541,-1.541,-1.541,-1.594,-1.6443,-1.6782,-1.7617,-1.8267,-1.8602,-1.8854,-1.8987,-1.8987,-1.8987,-1.8987,-1.8987,-1.8987,-1.8987,-1.8987,-1.9474,-2.008,-2.0746,-2.1385,-2.1722,0.2529,0.262,0.2757,0.2876,0.2818,0.0,0.2052,0.1813,0.1525,0.0,0.0,0.0,0.0,0.0,0.0,0.0,0.0,0.0,0.0,0.0,0.0,0.0,0.0,0.0,0.069,0.093,0.1084,0.1089,0.1273,0.1277,0.0962,0.0649,0.0291,-0.0067,-0.0157,-0.0337,-0.0652,-0.081,-0.1034,-0.1299,-0.15,-0.1748,-0.1997,-0.2131,-0.2201,-0.2209,-0.2329,-0.2382,-0.2406,-0.2605,-0.2766,-0.2944,-0.3494,-0.3904,-0.4288,-0.5277,-0.5882,-0.6182,-0.63,-0.649,-0.6647,-0.649,-0.6544,-0.6739,-0.6878,-0.7644,-0.8492,-0.861,-0.9627,-1.0832,-1.1303,-1.1466,-1.1498,-1.1498,-1.156,-1.1591,-1.1591,-1.1591,-1.1771,-1.2389,-1.2978,-1.3593,-1.4261,-1.4913,-1.5323,-1.5381,-1.541,-1.541,-1.541,-1.541,-1.541,-1.541,-1.5882,-1.6244,-1.6386,-1.7368,-1.8066,-1.8174,-1.8709,-1.8987,-1.8987,-1.8987,-1.8987,-1.8987,-1.8987,-1.8987,-1.8987,-1.9396,-1.9837,-2.0346,-2.0871,-2.118,0.2686,0.2764,0.2873,0.2885,0.0,0.0,0.2746,0.2581,0.2347,0.0,0.0,0.0,0.0,0.0,0.0,0.0,0.0,0.0,0.0,0.0,0.0,0.0,0.0,0.0,0.0617,0.0803,0.0964,0.1021,0.1254,0.1366,0.1299,0.0985,0.0761,0.0694,0.0112,-0.0225,-0.0292,-0.0697,-0.1034,-0.1299,-0.15,-0.1748,-0.1997,-0.2131,-0.2201,-0.2205,-0.2288,-0.235,-0.24,-0.2562,-0.2734,-0.2916,-0.316,-0.3574,-0.4104,-0.457,-0.5226,-0.5909,-0.6028,-0.6245,-0.649,-0.6593,-0.6674,-0.6764,-0.706,-0.7383,-0.7793,-0.8608,-0.9463,-1.018,-1.0275,-1.0636,-1.0965,-1.0965,-1.1279,-1.1591,-1.1591,-1.1591,-1.1771,-1.2389,-1.2604,-1.2909,-1.3593,-1.4222,-1.4854,-1.5323,-1.541,-1.541,-1.541,-1.541,-1.541,-1.541,-1.5497,-1.5968,-1.695,-1.723,-1.7793,-1.8762,-1.8934,-1.8987,-1.8987,-1.8987,-1.8987,-1.8987,-1.8987,-1.8987,-1.8987,-1.9396,-1.9708,-1.9927,-2.0372,-2.0623,0.274,0.2754,0.2815,0.289,0.0,0.0,0.0,0.2529,0.2315,0.2016,0.0,0.0,0.0,0.0,0.0,0.0,0.0,0.0,0.0,0.0,0.0,0.0,0.0,0.0,0.0606,0.0774,0.0973,0.1139,0.1269,0.1358,0.1344,0.1192,0.1029,0.0895,0.0538,0.0269,0.0112,-0.0337,-0.0651,-0.0851,-0.1254,-0.1569,-0.1817,-0.202,-0.2131,-0.2205,-0.2267,-0.2331,-0.24,-0.2543,-0.269,-0.2805,-0.294,-0.3218,-0.3605,-0.4076,-0.4763,-0.5504,-0.5864,-0.6245,-0.6571,-0.6734,-0.6793,-0.6841,-0.701,-0.7321,-0.7786,-0.8665,-0.9262,-0.9709,-0.9926,-1.0212,-1.0478,-1.0744,-1.1028,-1.1279,-1.1529,-1.1591,-1.1685,-1.1973,-1.2297,-1.2726,-1.3381,-1.3782,-1.4231,-1.4854,-1.4942,-1.5059,-1.5352,-1.541,-1.541,-1.541,-1.541,-1.5633,-1.6244,-1.6585,-1.7146,-1.8038,-1.8375,-1.8682,-1.8987,-1.8987,-1.8987,-1.8987,-1.8987,-1.8987,-1.8987,-1.9198,-1.9356,-1.9422,-1.9811,-2.0067,0.0,0.0,0.0,0.0,0.0,0.2773,0.0,0.0,0.0,0.201,0.0,0.0,0.0,0.0,0.0,0.0,0.0,0.0,0.0,0.0,0.0,0.0,0.0,0.0,0.0575,0.0746,0.0959,0.122,0.1261,0.1267,0.1302,0.1295,0.1194,0.0994,0.0936,0.0738,0.0403,0.0067,-0.0202,-0.0403,-0.0918,-0.1254,-0.1478,-0.1817,-0.2042,-0.2158,-0.225,-0.2317,-0.2398,-0.2523,-0.262,-0.2719,-0.286,-0.297,-0.3158,-0.3688,-0.4325,-0.5011,-0.5591,-0.6109,-0.6512,-0.6739,-0.6852,-0.6906,-0.6928,-0.7339,-0.7928,-0.852,-0.8914,-0.9242,-0.9614,-0.9799,-0.999,-1.051,-1.0706,-1.0958,-1.1466,-1.1591,-1.1591,-1.1591,-1.1973,-1.2551,-1.3199,-1.3411,-1.3722,-1.441,-1.4499,-1.4706,-1.5323,-1.541,-1.541,-1.541,-1.541,-1.5439,-1.5546,-1.6026,-1.6557,-1.7174,-1.7655,-1.8147,-1.8617,-1.8762,-1.8881,-1.8987,-1.8987,-1.8987,-1.8987,-1.8987,-1.8987,-1.9013,-1.933,-1.9526,0.0,0.0,0.0,0.0,0.3208,0.0,0.0,0.0,0.2761,0.2629,0.0,0.0,0.0,0.0,0.0,0.0,0.0,0.0,0.0,0.0,0.0,0.0,0.0,0.0,0.0,0.0631,0.0804,0.1027,0.1087,0.1167,0.1285,0.1294,0.1283,0.1246,0.1031,0.0738,0.0403,0.0358,0.0089,-0.0403,-0.0537,-0.0738,-0.1007,-0.1569,-0.1906,-0.202,-0.2164,-0.2288,-0.2394,-0.2404,-0.2536,-0.2719,-0.286,-0.297,-0.313,-0.3383,-0.3824,-0.4374,-0.4869,-0.534,-0.5814,-0.6305,-0.6657,-0.6933,-0.7031,-0.7419,-0.7806,-0.7893,-0.826,-0.8608,-0.8673,-0.9017,-0.9492,-0.999,-1.0446,-1.0958,-1.1466,-1.1591,-1.1591,-1.1591,-1.1654,-1.1888,-1.2512,-1.31,-1.3722,-1.441,-1.4499,-1.4706,-1.5323,-1.541,-1.541,-1.541,-1.541,-1.5613,-1.614,-1.6255,-1.6557,-1.7174,-1.7257,-1.7341,-1.7396,-1.7929,-1.8456,-1.8987,-1.8987,-1.8987,-1.8987,-1.8987,-1.8987,-1.8987,-1.904,-1.9066,0.0,0.0,0.0,0.0,0.0,0.0,0.2957,0.0,0.2784,0.0,0.0,0.0,0.0,0.0,0.0,0.0,0.0,0.0,0.0,0.0,0.0,0.0,0.0,0.0,0.0,0.0,0.0,0.0,0.1016,0.1085,0.1291,0.1267,0.1253,0.1299,0.1196,0.1091,0.0985,0.0783,0.047,0.0067,-0.0291,-0.0693,-0.1141,-0.1523,-0.1794,-0.1997,-0.2131,-0.2277,-0.2392,-0.2392,-0.2525,-0.2719,-0.2775,-0.2912,-0.3102,-0.3188,-0.363,-0.4288,-0.4818,-0.5312,-0.5832,-0.6468,-0.6793,-0.6933,-0.7058,-0.7419,-0.7801,-0.7801,-0.8145,-0.8517,-0.8517,-0.8673,-0.8958,-0.946,-0.9964,-1.0471,-1.1021,-1.1373,-1.1591,-1.1591,-1.1591,-1.1685,-1.1919,-1.2197,-1.275,-1.3773,-1.3932,-1.4282,-1.5264,-1.541,-1.541,-1.541,-1.541,-1.5497,-1.5748,-1.5777,-1.6026,-1.6641,-1.7006,-1.7368,-1.7699,-1.7984,-1.8375,-1.8987,-1.8987,-1.8987,-1.8987,-1.8987,-1.8987,-1.8987,-1.8987,-1.8987,0.3172,0.0,0.0,0.0,0.0,0.0,0.0,0.0,0.0,0.0,0.0,0.0,0.0,0.0,0.0,0.0,0.0,0.2421,0.0,0.0,0.0,0.0,0.0,0.0,0.0,0.0,0.0,0.0,0.0,0.0993,0.1263,0.1229,0.1222,0.1297,0.13,0.1244,0.1119,0.0985,0.0672,0.0224,-0.0201,-0.0649,-0.1097,-0.1433,-0.1725,-0.1951,-0.2131,-0.2277,-0.2392,-0.2392,-0.2525,-0.2691,-0.2691,-0.2856,-0.3102,-0.3102,-0.3463,-0.407,-0.4601,-0.5203,-0.5859,-0.6549,-0.682,-0.6944,-0.7138,-0.7472,-0.7812,-0.7876,-0.8194,-0.8517,-0.8517,-0.8517,-0.8641,-0.9177,-0.9646,-1.0148,-1.0674,-1.1216,-1.1591,-1.1591,-1.1591,-1.1591,-1.1591,-1.1591,-1.2019,-1.3299,-1.3511,-1.3953,-1.5235,-1.541,-1.541,-1.541,-1.541,-1.541,-1.541,-1.541,-1.5584,-1.6026,-1.6472,-1.6978,-1.7589,-1.7617,-1.7984,-1.8735,-1.8762,-1.8815,-1.8987,-1.8987,-1.8987,-1.8987,-1.8987,-1.8987,0.0,0.0,0.0,0.3175,0.0,0.0,0.0,0.0,0.305,0.0,0.0,0.0,0.0,0.0,0.304,0.2924,0.0,0.0,0.0,0.0,0.0,0.0,0.0,0.0,0.0,0.0,0.0,0.0,0.0799,0.0,0.1183,0.1205,0.1222,0.1297,0.13,0.1028,0.0447,0.0738,0.0537,-0.018,-0.0336,-0.0447,-0.0559,-0.1277,-0.1681,-0.1817,-0.2087,-0.2277,-0.2392,-0.2392,-0.2525,-0.2691,-0.2691,-0.2856,-0.3102,-0.3102,-0.3244,-0.3497,-0.3885,-0.4739,-0.57,-0.6245,-0.663,-0.6975,-0.7286,-0.7578,-0.7844,-0.8101,-0.8349,-0.8517,-0.8517,-0.8517,-0.8641,-0.9177,-0.9646,-1.0148,-1.0674,-1.1216,-1.1591,-1.1591,-1.1591,-1.1591,-1.1591,-1.1591,-1.2019,-1.3299,-1.3511,-1.3953,-1.5235,-1.541,-1.541,-1.541,-1.541,-1.541,-1.541,-1.541,-1.541,-1.5439,-1.5439,-1.5719,-1.633,-1.6358,-1.6922,-1.8093,-1.812,-1.8429,-1.8987,-1.8987,-1.8987,-1.8987,-1.8987,-1.8987,0.0,0.0,0.3895,0.3479,0.0,0.0,0.0,0.0,0.0,0.0,0.0,0.0,0.0,0.0,0.3084,0.3037,0.2953,0.0,0.0,0.0,0.0,0.0,0.0,0.0,0.0,0.0,0.0,0.0,0.0897,0.0,0.1255,0.1229,0.1223,0.1305,0.1308,0.1212,0.1007,0.1147,0.0873,0.0202,0.0067,-0.0358,-0.1052,-0.1433,-0.1725,-0.1954,-0.2167,-0.2307,-0.2396,-0.2508,-0.2607,-0.2691,-0.2691,-0.2802,-0.297,-0.3077,-0.3272,-0.358,-0.399,-0.4567,-0.5175,-0.5454,-0.5925,-0.644,-0.6757,-0.7332,-0.7926,-0.8129,-0.836,-0.8517,-0.8517,-0.8517,-0.8544,-0.8738,-0.939,-1.0053,-1.0212,-1.0982,-1.1591,-1.1591,-1.1591,-1.1591,-1.1591,-1.1591,-1.1895,-1.2704,-1.323,-1.3812,-1.4706,-1.5147,-1.541,-1.541,-1.541,-1.541,-1.541,-1.541,-1.541,-1.541,-1.541,-1.5661,-1.6283,-1.6312,-1.6669,-1.7479,-1.7506,-1.7589,-1.7809,-1.8213,-1.8402,-1.8402,-1.8815,-1.8987,0.3702,0.3896,0.0,0.3648,0.3672,0.0,0.3157,0.0,0.3279,0.0,0.0,0.0,0.0,0.0,0.3286,0.3271,0.3146,0.301,0.0,0.2866,0.0,0.0,0.0,0.0,0.0,0.0,0.1187,0.0975,0.0918,0.0,0.0,0.1232,0.1223,0.1306,0.1309,0.1246,0.1113,0.1184,0.094,0.0403,0.0089,-0.0403,-0.1097,-0.15,-0.1794,-0.2001,-0.222,-0.2331,-0.24,-0.2543,-0.2634,-0.2691,-0.2691,-0.2802,-0.297,-0.3077,-0.3302,-0.3666,-0.407,-0.4457,-0.4798,-0.5079,-0.5486,-0.595,-0.628,-0.6897,-0.757,-0.787,-0.8159,-0.8409,-0.8479,-0.8517,-0.8517,-0.8517,-0.9268,-0.9983,-0.9983,-1.085,-1.1591,-1.1591,-1.1591,-1.1591,-1.1591,-1.1591,-1.1802,-1.242,-1.2879,-1.3381,-1.4052,-1.4706,-1.5089,-1.5089,-1.5264,-1.541,-1.541,-1.541,-1.541,-1.541,-1.541,-1.5575,-1.5968,-1.5968,-1.6244,-1.6866,-1.6894,-1.6978,-1.7202,-1.782,-1.8093,-1.812,-1.8709,-1.8987]}]]